<?xml version="1.0" encoding="UTF-8" standalone="no" ?><gpx xmlns="http://www.topografix.com/GPX/1/1" xmlns:gpxx="http://www.garmin.com/xmlschemas/GpxExtensions/v3" xmlns:wptx1="http://www.garmin.com/xmlschemas/WaypointExtension/v1" xmlns:gpxtpx="http://www.garmin.com/xmlschemas/TrackPointExtension/v1" creator="GuideVTT.com" version="1.1" xmlns:xsi="http://www.w3.org/2001/XMLSchema-instance" xsi:schemaLocation="http://www.topografix.com/GPX/1/1 http://www.topografix.com/GPX/1/1/gpx.xsd http://www.garmin.com/xmlschemas/GpxExtensions/v3 http://www8.garmin.com/xmlschemas/GpxExtensionsv3.xsd http://www.garmin.com/xmlschemas/WaypointExtension/v1 http://www8.garmin.com/xmlschemas/WaypointExtensionv1.xsd http://www.garmin.com/xmlschemas/TrackPointExtension/v1 http://www.garmin.com/xmlschemas/TrackPointExtensionv1.xsd">
<metadata><link href="http://www.garmin.com"><text>Garmin International</text></link><time>2013-06-22T15:13:50Z</time></metadata>
<trk><name>activity_576438573.gpx</name><extensions><gpxx:TrackExtension><gpxx:DisplayColor>Cyan</gpxx:DisplayColor></gpxx:TrackExtension></extensions><trkseg>
<trkpt lat="44.09699250943959" lon="5.406037364155054"><ele></ele><time>2014-12-13T14:35:51Z</time></trkpt>
<trkpt lat="44.097018744796515" lon="5.406102240085602"><ele></ele><time>2014-12-13T14:35:54Z</time></trkpt>
<trkpt lat="44.09706543199718" lon="5.4061400424689054"><ele></ele><time>2014-12-13T14:35:57Z</time></trkpt>
<trkpt lat="44.097072472795844" lon="5.406163427978754"><ele></ele><time>2014-12-13T14:36:0Z</time></trkpt>
<trkpt lat="44.0971334092319" lon="5.406331066042185"><ele></ele><time>2014-12-13T14:36:3Z</time></trkpt>
<trkpt lat="44.097152100875974" lon="5.40637674741447"><ele></ele><time>2014-12-13T14:36:6Z</time></trkpt>
<trkpt lat="44.09717682749033" lon="5.406407173722982"><ele></ele><time>2014-12-13T14:36:9Z</time></trkpt>
<trkpt lat="44.097195100039244" lon="5.406407341361046"><ele></ele><time>2014-12-13T14:36:12Z</time></trkpt>
<trkpt lat="44.09723290242255" lon="5.4063355922698975"><ele></ele><time>2014-12-13T14:36:15Z</time></trkpt>
<trkpt lat="44.09723022021353" lon="5.406292844563723"><ele></ele><time>2014-12-13T14:36:18Z</time></trkpt>
<trkpt lat="44.09719593822956" lon="5.406013056635857"><ele></ele><time>2014-12-13T14:36:21Z</time></trkpt>
<trkpt lat="44.09726240672171" lon="5.405728323385119"><ele></ele><time>2014-12-13T14:36:24Z</time></trkpt>
<trkpt lat="44.09743239171803" lon="5.40541073307395"><ele></ele><time>2014-12-13T14:36:27Z</time></trkpt>
<trkpt lat="44.097496597096324" lon="5.405344432219863"><ele></ele><time>2014-12-13T14:36:30Z</time></trkpt>
<trkpt lat="44.097655434161425" lon="5.405166316777468"><ele></ele><time>2014-12-13T14:36:33Z</time></trkpt>
<trkpt lat="44.09767630510032" lon="5.4051378183066845"><ele></ele><time>2014-12-13T14:36:36Z</time></trkpt>
<trkpt lat="44.09778904169798" lon="5.404991386458278"><ele></ele><time>2014-12-13T14:36:39Z</time></trkpt>
<trkpt lat="44.09782667644322" lon="5.404939167201519"><ele></ele><time>2014-12-13T14:36:42Z</time></trkpt>
<trkpt lat="44.09787504002452" lon="5.404864903539419"><ele></ele><time>2014-12-13T14:36:45Z</time></trkpt>
<trkpt lat="44.09798056818545" lon="5.404734145849943"><ele></ele><time>2014-12-13T14:36:48Z</time></trkpt>
<trkpt lat="44.09799565561116" lon="5.404710508882999"><ele></ele><time>2014-12-13T14:36:51Z</time></trkpt>
<trkpt lat="44.09812339581549" lon="5.404534321278334"><ele></ele><time>2014-12-13T14:36:54Z</time></trkpt>
<trkpt lat="44.09823269583285" lon="5.404378920793533"><ele></ele><time>2014-12-13T14:36:57Z</time></trkpt>
<trkpt lat="44.09837879240513" lon="5.404188148677349"><ele></ele><time>2014-12-13T14:37:0Z</time></trkpt>
<trkpt lat="44.09847216680646" lon="5.404050098732114"><ele></ele><time>2014-12-13T14:37:3Z</time></trkpt>
<trkpt lat="44.09852254204452" lon="5.403982624411583"><ele></ele><time>2014-12-13T14:37:6Z</time></trkpt>
<trkpt lat="44.09859328530729" lon="5.403897548094392"><ele></ele><time>2014-12-13T14:37:9Z</time></trkpt>
<trkpt lat="44.09865966998041" lon="5.40380853228271"><ele></ele><time>2014-12-13T14:37:12Z</time></trkpt>
<trkpt lat="44.098707530647516" lon="5.403740722686052"><ele></ele><time>2014-12-13T14:37:15Z</time></trkpt>
<trkpt lat="44.09877265803516" lon="5.403649779036641"><ele></ele><time>2014-12-13T14:37:18Z</time></trkpt>
<trkpt lat="44.098843736574054" lon="5.4035501182079315"><ele></ele><time>2014-12-13T14:37:21Z</time></trkpt>
<trkpt lat="44.098915569484234" lon="5.403439477086067"><ele></ele><time>2014-12-13T14:37:24Z</time></trkpt>
<trkpt lat="44.098951276391745" lon="5.403378792107105"><ele></ele><time>2014-12-13T14:37:27Z</time></trkpt>
<trkpt lat="44.09907365217805" lon="5.403149798512459"><ele></ele><time>2014-12-13T14:37:30Z</time></trkpt>
<trkpt lat="44.099111035466194" lon="5.403075870126486"><ele></ele><time>2014-12-13T14:37:33Z</time></trkpt>
<trkpt lat="44.09925604239106" lon="5.40279122069478"><ele></ele><time>2014-12-13T14:37:36Z</time></trkpt>
<trkpt lat="44.099277667701244" lon="5.402759788557887"><ele></ele><time>2014-12-13T14:37:39Z</time></trkpt>
<trkpt lat="44.09949601627886" lon="5.402567842975259"><ele></ele><time>2014-12-13T14:37:42Z</time></trkpt>
<trkpt lat="44.09978753887117" lon="5.402474803850055"><ele></ele><time>2014-12-13T14:37:45Z</time></trkpt>
<trkpt lat="44.09986389800906" lon="5.402453178539872"><ele></ele><time>2014-12-13T14:37:48Z</time></trkpt>
<trkpt lat="44.10009699873626" lon="5.402372796088457"><ele></ele><time>2014-12-13T14:37:51Z</time></trkpt>
<trkpt lat="44.10013396292925" lon="5.402353601530194"><ele></ele><time>2014-12-13T14:37:54Z</time></trkpt>
<trkpt lat="44.10049254074693" lon="5.40217406116426"><ele></ele><time>2014-12-13T14:37:57Z</time></trkpt>
<trkpt lat="44.1007683891803" lon="5.402022767812014"><ele></ele><time>2014-12-13T14:38:0Z</time></trkpt>
<trkpt lat="44.10100660286844" lon="5.40186770260334"><ele></ele><time>2014-12-13T14:38:3Z</time></trkpt>
<trkpt lat="44.10128949210048" lon="5.401693861931562"><ele></ele><time>2014-12-13T14:38:6Z</time></trkpt>
<trkpt lat="44.10133081488311" lon="5.401674751192331"><ele></ele><time>2014-12-13T14:38:9Z</time></trkpt>
<trkpt lat="44.10182082094252" lon="5.401413571089506"><ele></ele><time>2014-12-13T14:38:12Z</time></trkpt>
<trkpt lat="44.10223958082497" lon="5.401176363229752"><ele></ele><time>2014-12-13T14:38:15Z</time></trkpt>
<trkpt lat="44.10261148586869" lon="5.40098374709487"><ele></ele><time>2014-12-13T14:38:18Z</time></trkpt>
<trkpt lat="44.10275842063129" lon="5.400905795395374"><ele></ele><time>2014-12-13T14:38:21Z</time></trkpt>
<trkpt lat="44.10305052995682" lon="5.400752909481525"><ele></ele><time>2014-12-13T14:38:24Z</time></trkpt>
<trkpt lat="44.103304501622915" lon="5.400610836222768"><ele></ele><time>2014-12-13T14:38:27Z</time></trkpt>
<trkpt lat="44.10341271199286" lon="5.400540931150317"><ele></ele><time>2014-12-13T14:38:30Z</time></trkpt>
<trkpt lat="44.10371655598283" lon="5.400277487933636"><ele></ele><time>2014-12-13T14:38:33Z</time></trkpt>
<trkpt lat="44.10386826843023" lon="5.400095768272877"><ele></ele><time>2014-12-13T14:38:36Z</time></trkpt>
<trkpt lat="44.103950913995504" lon="5.399971380829811"><ele></ele><time>2014-12-13T14:38:39Z</time></trkpt>
<trkpt lat="44.10414713434875" lon="5.399675499647856"><ele></ele><time>2014-12-13T14:38:42Z</time></trkpt>
<trkpt lat="44.10430253483355" lon="5.399448685348034"><ele></ele><time>2014-12-13T14:38:45Z</time></trkpt>
<trkpt lat="44.10437713377178" lon="5.399374756962061"><ele></ele><time>2014-12-13T14:38:48Z</time></trkpt>
<trkpt lat="44.104451732710004" lon="5.39932195097208"><ele></ele><time>2014-12-13T14:38:51Z</time></trkpt>
<trkpt lat="44.10453395918012" lon="5.399270737543702"><ele></ele><time>2014-12-13T14:38:54Z</time></trkpt>
<trkpt lat="44.10461727529764" lon="5.399223547428846"><ele></ele><time>2014-12-13T14:38:57Z</time></trkpt>
<trkpt lat="44.10494886338711" lon="5.3991407342255116"><ele></ele><time>2014-12-13T14:39:0Z</time></trkpt>
<trkpt lat="44.10503704100847" lon="5.39915188215673"><ele></ele><time>2014-12-13T14:39:3Z</time></trkpt>
<trkpt lat="44.10525631159544" lon="5.39922371506691"><ele></ele><time>2014-12-13T14:39:6Z</time></trkpt>
<trkpt lat="44.105561412870884" lon="5.399412224069238"><ele></ele><time>2014-12-13T14:39:9Z</time></trkpt>
<trkpt lat="44.10593809559941" lon="5.3996641002595425"><ele></ele><time>2014-12-13T14:39:12Z</time></trkpt>
<trkpt lat="44.10598000511527" lon="5.39969184435904"><ele></ele><time>2014-12-13T14:39:15Z</time></trkpt>
<trkpt lat="44.106165412813425" lon="5.399808771908283"><ele></ele><time>2014-12-13T14:39:18Z</time></trkpt>
<trkpt lat="44.1061996947974" lon="5.399830145761371"><ele></ele><time>2014-12-13T14:39:21Z</time></trkpt>
<trkpt lat="44.10642265342176" lon="5.399974230676889"><ele></ele><time>2014-12-13T14:39:24Z</time></trkpt>
<trkpt lat="44.10648291930556" lon="5.400013038888574"><ele></ele><time>2014-12-13T14:39:27Z</time></trkpt>
<trkpt lat="44.106589034199715" lon="5.400092750787735"><ele></ele><time>2014-12-13T14:39:30Z</time></trkpt>
<trkpt lat="44.10665441304445" lon="5.400147484615445"><ele></ele><time>2014-12-13T14:39:33Z</time></trkpt>
<trkpt lat="44.10667494870722" lon="5.400166427716613"><ele></ele><time>2014-12-13T14:39:36Z</time></trkpt>
<trkpt lat="44.1068075504154" lon="5.4002902284264565"><ele></ele><time>2014-12-13T14:39:39Z</time></trkpt>
<trkpt lat="44.106849459931254" lon="5.400326019152999"><ele></ele><time>2014-12-13T14:39:42Z</time></trkpt>
<trkpt lat="44.10696404054761" lon="5.4004044737666845"><ele></ele><time>2014-12-13T14:39:45Z</time></trkpt>
<trkpt lat="44.10703453235328" lon="5.400449065491557"><ele></ele><time>2014-12-13T14:39:48Z</time></trkpt>
<trkpt lat="44.10710762254894" lon="5.400488879531622"><ele></ele><time>2014-12-13T14:39:51Z</time></trkpt>
<trkpt lat="44.10725053399801" lon="5.400537326931953"><ele></ele><time>2014-12-13T14:39:54Z</time></trkpt>
<trkpt lat="44.10746703855693" lon="5.400579152628779"><ele></ele><time>2014-12-13T14:39:57Z</time></trkpt>
<trkpt lat="44.107628893107176" lon="5.400640424340963"><ele></ele><time>2014-12-13T14:40:0Z</time></trkpt>
<trkpt lat="44.10767449066043" lon="5.400663474574685"><ele></ele><time>2014-12-13T14:40:3Z</time></trkpt>
<trkpt lat="44.10780952312052" lon="5.4007213935256"><ele></ele><time>2014-12-13T14:40:6Z</time></trkpt>
<trkpt lat="44.107857467606664" lon="5.400752825662494"><ele></ele><time>2014-12-13T14:40:9Z</time></trkpt>
<trkpt lat="44.10797548480332" lon="5.40080638602376"><ele></ele><time>2014-12-13T14:40:12Z</time></trkpt>
<trkpt lat="44.10804899409413" lon="5.400826251134276"><ele></ele><time>2014-12-13T14:40:15Z</time></trkpt>
<trkpt lat="44.10812929272652" lon="5.400815103203058"><ele></ele><time>2014-12-13T14:40:18Z</time></trkpt>
<trkpt lat="44.10818964242935" lon="5.400762381032109"><ele></ele><time>2014-12-13T14:40:21Z</time></trkpt>
<trkpt lat="44.10824244841933" lon="5.400697002187371"><ele></ele><time>2014-12-13T14:40:24Z</time></trkpt>
<trkpt lat="44.10829567350447" lon="5.400632377713919"><ele></ele><time>2014-12-13T14:40:27Z</time></trkpt>
<trkpt lat="44.10836993716657" lon="5.40053372271359"><ele></ele><time>2014-12-13T14:40:30Z</time></trkpt>
<trkpt lat="44.108422826975584" lon="5.400461219251156"><ele></ele><time>2014-12-13T14:40:33Z</time></trkpt>
<trkpt lat="44.10851410590112" lon="5.400348147377372"><ele></ele><time>2014-12-13T14:40:36Z</time></trkpt>
<trkpt lat="44.10856490023434" lon="5.400271452963352"><ele></ele><time>2014-12-13T14:40:39Z</time></trkpt>
<trkpt lat="44.10869465209544" lon="5.400076489895582"><ele></ele><time>2014-12-13T14:40:42Z</time></trkpt>
<trkpt lat="44.10880076698959" lon="5.3998917527496815"><ele></ele><time>2014-12-13T14:40:45Z</time></trkpt>
<trkpt lat="44.10883597098291" lon="5.399841545149684"><ele></ele><time>2014-12-13T14:40:48Z</time></trkpt>
<trkpt lat="44.10899271257222" lon="5.399628728628159"><ele></ele><time>2014-12-13T14:40:51Z</time></trkpt>
<trkpt lat="44.109125565737486" lon="5.3994732443243265"><ele></ele><time>2014-12-13T14:40:54Z</time></trkpt>
<trkpt lat="44.10916303284466" lon="5.399433765560389"><ele></ele><time>2014-12-13T14:40:57Z</time></trkpt>
<trkpt lat="44.1092680580914" lon="5.399343157187104"><ele></ele><time>2014-12-13T14:41:0Z</time></trkpt>
<trkpt lat="44.10937584936619" lon="5.399253806099296"><ele></ele><time>2014-12-13T14:41:3Z</time></trkpt>
<trkpt lat="44.109399151057005" lon="5.399238634854555"><ele></ele><time>2014-12-13T14:41:6Z</time></trkpt>
<trkpt lat="44.10947090014815" lon="5.399198569357395"><ele></ele><time>2014-12-13T14:41:9Z</time></trkpt>
<trkpt lat="44.10960610024631" lon="5.399105446413159"><ele></ele><time>2014-12-13T14:41:12Z</time></trkpt>
<trkpt lat="44.1096274740994" lon="5.399091532453895"><ele></ele><time>2014-12-13T14:41:15Z</time></trkpt>
<trkpt lat="44.109803494066" lon="5.398976197466254"><ele></ele><time>2014-12-13T14:41:18Z</time></trkpt>
<trkpt lat="44.109937604516745" lon="5.398882571607828"><ele></ele><time>2014-12-13T14:41:21Z</time></trkpt>
<trkpt lat="44.10998278297484" lon="5.398856503888965"><ele></ele><time>2014-12-13T14:41:24Z</time></trkpt>
<trkpt lat="44.11006643436849" lon="5.398791208863258"><ele></ele><time>2014-12-13T14:41:27Z</time></trkpt>
<trkpt lat="44.11015620455146" lon="5.39873655885458"><ele></ele><time>2014-12-13T14:41:30Z</time></trkpt>
<trkpt lat="44.11022367887199" lon="5.398694230243564"><ele></ele><time>2014-12-13T14:41:33Z</time></trkpt>
<trkpt lat="44.11034940741956" lon="5.398600604385138"><ele></ele><time>2014-12-13T14:41:36Z</time></trkpt>
<trkpt lat="44.11038938909769" lon="5.398579146713018"><ele></ele><time>2014-12-13T14:41:39Z</time></trkpt>
<trkpt lat="44.11049240268767" lon="5.398514019325376"><ele></ele><time>2014-12-13T14:41:42Z</time></trkpt>
<trkpt lat="44.110571444034576" lon="5.398456435650587"><ele></ele><time>2014-12-13T14:41:45Z</time></trkpt>
<trkpt lat="44.11065434105694" lon="5.398406060412526"><ele></ele><time>2014-12-13T14:41:48Z</time></trkpt>
<trkpt lat="44.110836731269956" lon="5.398278404027224"><ele></ele><time>2014-12-13T14:41:51Z</time></trkpt>
<trkpt lat="44.1108757071197" lon="5.398245798423886"><ele></ele><time>2014-12-13T14:41:54Z</time></trkpt>
<trkpt lat="44.111029263585806" lon="5.39812333881855"><ele></ele><time>2014-12-13T14:41:57Z</time></trkpt>
<trkpt lat="44.111045356839895" lon="5.398105401545763"><ele></ele><time>2014-12-13T14:42:0Z</time></trkpt>
<trkpt lat="44.111192375421524" lon="5.397963915020227"><ele></ele><time>2014-12-13T14:42:3Z</time></trkpt>
<trkpt lat="44.11124300211668" lon="5.397917311638594"><ele></ele><time>2014-12-13T14:42:6Z</time></trkpt>
<trkpt lat="44.11132791079581" lon="5.39784288033843"><ele></ele><time>2014-12-13T14:42:9Z</time></trkpt>
<trkpt lat="44.1113440040499" lon="5.397826116532087"><ele></ele><time>2014-12-13T14:42:12Z</time></trkpt>
<trkpt lat="44.11146956495941" lon="5.397713212296367"><ele></ele><time>2014-12-13T14:42:15Z</time></trkpt>
<trkpt lat="44.11148532293737" lon="5.397695442661643"><ele></ele><time>2014-12-13T14:42:18Z</time></trkpt>
<trkpt lat="44.11157031543553" lon="5.397620424628258"><ele></ele><time>2014-12-13T14:42:21Z</time></trkpt>
<trkpt lat="44.11164357326925" lon="5.397577425464988"><ele></ele><time>2014-12-13T14:42:24Z</time></trkpt>
<trkpt lat="44.11178489215672" lon="5.397511376067996"><ele></ele><time>2014-12-13T14:42:27Z</time></trkpt>
<trkpt lat="44.11182789131999" lon="5.397494193166494"><ele></ele><time>2014-12-13T14:42:30Z</time></trkpt>
<trkpt lat="44.11193501204252" lon="5.397465191781521"><ele></ele><time>2014-12-13T14:42:33Z</time></trkpt>
<trkpt lat="44.1120483353734" lon="5.397443063557148"><ele></ele><time>2014-12-13T14:42:36Z</time></trkpt>
<trkpt lat="44.112111954018474" lon="5.397436358034611"><ele></ele><time>2014-12-13T14:42:39Z</time></trkpt>
<trkpt lat="44.112133076414466" lon="5.397438118234277"><ele></ele><time>2014-12-13T14:42:42Z</time></trkpt>
<trkpt lat="44.11217339336872" lon="5.397454295307398"><ele></ele><time>2014-12-13T14:42:45Z</time></trkpt>
<trkpt lat="44.11230121739209" lon="5.397451194003224"><ele></ele><time>2014-12-13T14:42:48Z</time></trkpt>
<trkpt lat="44.11232301034033" lon="5.397455887869"><ele></ele><time>2014-12-13T14:42:51Z</time></trkpt>
<trkpt lat="44.1124957613647" lon="5.397436944767833"><ele></ele><time>2014-12-13T14:42:54Z</time></trkpt>
<trkpt lat="44.11258167587221" lon="5.397431580349803"><ele></ele><time>2014-12-13T14:42:57Z</time></trkpt>
<trkpt lat="44.11270589567721" lon="5.397406183183193"><ele></ele><time>2014-12-13T14:43:0Z</time></trkpt>
<trkpt lat="44.112907564267516" lon="5.397357903420925"><ele></ele><time>2014-12-13T14:43:3Z</time></trkpt>
<trkpt lat="44.11292818374932" lon="5.397350192070007"><ele></ele><time>2014-12-13T14:43:6Z</time></trkpt>
<trkpt lat="44.11305273883045" lon="5.397322112694383"><ele></ele><time>2014-12-13T14:43:9Z</time></trkpt>
<trkpt lat="44.11311535164714" lon="5.397311300039291"><ele></ele><time>2014-12-13T14:43:12Z</time></trkpt>
<trkpt lat="44.113213336095214" lon="5.397286573424935"><ele></ele><time>2014-12-13T14:43:15Z</time></trkpt>
<trkpt lat="44.11325859837234" lon="5.397290429100394"><ele></ele><time>2014-12-13T14:43:18Z</time></trkpt>
<trkpt lat="44.1134421620518" lon="5.397289507091045"><ele></ele><time>2014-12-13T14:43:21Z</time></trkpt>
<trkpt lat="44.11346294917166" lon="5.397289339452982"><ele></ele><time>2014-12-13T14:43:24Z</time></trkpt>
<trkpt lat="44.113618936389685" lon="5.397310797125101"><ele></ele><time>2014-12-13T14:43:27Z</time></trkpt>
<trkpt lat="44.11366528831422" lon="5.397319262847304"><ele></ele><time>2014-12-13T14:43:30Z</time></trkpt>
<trkpt lat="44.113794369623065" lon="5.397342396900058"><ele></ele><time>2014-12-13T14:43:33Z</time></trkpt>
<trkpt lat="44.11384826526046" lon="5.397347593680024"><ele></ele><time>2014-12-13T14:43:36Z</time></trkpt>
<trkpt lat="44.11387919448316" lon="5.397330326959491"><ele></ele><time>2014-12-13T14:43:39Z</time></trkpt>
<trkpt lat="44.11399494856596" lon="5.39725748822093"><ele></ele><time>2014-12-13T14:43:42Z</time></trkpt>
<trkpt lat="44.11413677036762" lon="5.397189259529114"><ele></ele><time>2014-12-13T14:43:45Z</time></trkpt>
<trkpt lat="44.11418974399567" lon="5.397166209295392"><ele></ele><time>2014-12-13T14:43:48Z</time></trkpt>
<trkpt lat="44.11436190828681" lon="5.397069230675697"><ele></ele><time>2014-12-13T14:43:51Z</time></trkpt>
<trkpt lat="44.11444899626076" lon="5.396892372518778"><ele></ele><time>2014-12-13T14:43:54Z</time></trkpt>
<trkpt lat="44.114428544417024" lon="5.396670922636986"><ele></ele><time>2014-12-13T14:43:57Z</time></trkpt>
<trkpt lat="44.11441798321903" lon="5.396633371710777"><ele></ele><time>2014-12-13T14:44:0Z</time></trkpt>
<trkpt lat="44.114351850003004" lon="5.396461375057697"><ele></ele><time>2014-12-13T14:44:3Z</time></trkpt>
<trkpt lat="44.11431262269616" lon="5.39636816829443"><ele></ele><time>2014-12-13T14:44:6Z</time></trkpt>
<trkpt lat="44.11424674093723" lon="5.396210588514805"><ele></ele><time>2014-12-13T14:44:9Z</time></trkpt>
<trkpt lat="44.11421287804842" lon="5.396111262962222"><ele></ele><time>2014-12-13T14:44:12Z</time></trkpt>
<trkpt lat="44.11416241899133" lon="5.395985450595617"><ele></ele><time>2014-12-13T14:44:15Z</time></trkpt>
<trkpt lat="44.11411363631487" lon="5.395865421742201"><ele></ele><time>2014-12-13T14:44:18Z</time></trkpt>
<trkpt lat="44.11410408094525" lon="5.395831223577261"><ele></ele><time>2014-12-13T14:44:21Z</time></trkpt>
<trkpt lat="44.11403853446245" lon="5.39564061909914"><ele></ele><time>2014-12-13T14:44:24Z</time></trkpt>
<trkpt lat="44.113953709602356" lon="5.3954090271145105"><ele></ele><time>2014-12-13T14:44:27Z</time></trkpt>
<trkpt lat="44.11393878981471" lon="5.395375918596983"><ele></ele><time>2014-12-13T14:44:30Z</time></trkpt>
<trkpt lat="44.113836362957954" lon="5.3951578214764595"><ele></ele><time>2014-12-13T14:44:33Z</time></trkpt>
<trkpt lat="44.113730331882834" lon="5.39499269798398"><ele></ele><time>2014-12-13T14:44:36Z</time></trkpt>
<trkpt lat="44.11365447565913" lon="5.394890522584319"><ele></ele><time>2014-12-13T14:44:39Z</time></trkpt>
<trkpt lat="44.11363578401506" lon="5.394863113760948"><ele></ele><time>2014-12-13T14:44:42Z</time></trkpt>
<trkpt lat="44.113477282226086" lon="5.394697403535247"><ele></ele><time>2014-12-13T14:44:45Z</time></trkpt>
<trkpt lat="44.113332191482186" lon="5.394599502906203"><ele></ele><time>2014-12-13T14:44:48Z</time></trkpt>
<trkpt lat="44.113306207582355" lon="5.3945820685476065"><ele></ele><time>2014-12-13T14:44:51Z</time></trkpt>
<trkpt lat="44.11317804828286" lon="5.394498500972986"><ele></ele><time>2014-12-13T14:44:54Z</time></trkpt>
<trkpt lat="44.11307335831225" lon="5.39443370886147"><ele></ele><time>2014-12-13T14:44:57Z</time></trkpt>
<trkpt lat="44.112947629764676" lon="5.394351901486516"><ele></ele><time>2014-12-13T14:45:0Z</time></trkpt>
<trkpt lat="44.11286959424615" lon="5.394301023334265"><ele></ele><time>2014-12-13T14:45:3Z</time></trkpt>
<trkpt lat="44.11275727674365" lon="5.394237153232098"><ele></ele><time>2014-12-13T14:45:6Z</time></trkpt>
<trkpt lat="44.11261226981878" lon="5.394159369170666"><ele></ele><time>2014-12-13T14:45:9Z</time></trkpt>
<trkpt lat="44.1125266905874" lon="5.3941049706190825"><ele></ele><time>2014-12-13T14:45:12Z</time></trkpt>
<trkpt lat="44.11239065229893" lon="5.394016960635781"><ele></ele><time>2014-12-13T14:45:15Z</time></trkpt>
<trkpt lat="44.11236181855202" lon="5.394001705572009"><ele></ele><time>2014-12-13T14:45:18Z</time></trkpt>
<trkpt lat="44.112193090841174" lon="5.393896764144301"><ele></ele><time>2014-12-13T14:45:21Z</time></trkpt>
<trkpt lat="44.11216341890395" lon="5.393884191289544"><ele></ele><time>2014-12-13T14:45:24Z</time></trkpt>
<trkpt lat="44.112015310674906" lon="5.393835660070181"><ele></ele><time>2014-12-13T14:45:27Z</time></trkpt>
<trkpt lat="44.111898550763726" lon="5.393759971484542"><ele></ele><time>2014-12-13T14:45:30Z</time></trkpt>
<trkpt lat="44.111837949603796" lon="5.39364748634398"><ele></ele><time>2014-12-13T14:45:33Z</time></trkpt>
<trkpt lat="44.11182411946356" lon="5.3935603983700275"><ele></ele><time>2014-12-13T14:45:36Z</time></trkpt>
<trkpt lat="44.11185965873301" lon="5.393371973186731"><ele></ele><time>2014-12-13T14:45:39Z</time></trkpt>
<trkpt lat="44.11187273450196" lon="5.393343474715948"><ele></ele><time>2014-12-13T14:45:42Z</time></trkpt>
<trkpt lat="44.1119777597487" lon="5.393145494163036"><ele></ele><time>2014-12-13T14:45:45Z</time></trkpt>
<trkpt lat="44.1120086889714" lon="5.393089670687914"><ele></ele><time>2014-12-13T14:45:48Z</time></trkpt>
<trkpt lat="44.1121072601527" lon="5.392941143363714"><ele></ele><time>2014-12-13T14:45:51Z</time></trkpt>
<trkpt lat="44.11211958155036" lon="5.3929113037884235"><ele></ele><time>2014-12-13T14:45:54Z</time></trkpt>
<trkpt lat="44.112165262922645" lon="5.39277920499444"><ele></ele><time>2014-12-13T14:45:57Z</time></trkpt>
<trkpt lat="44.11216735839844" lon="5.392708964645863"><ele></ele><time>2014-12-13T14:46:0Z</time></trkpt>
<trkpt lat="44.11211111582816" lon="5.392557587474585"><ele></ele><time>2014-12-13T14:46:3Z</time></trkpt>
<trkpt lat="44.11203106865287" lon="5.392488772049546"><ele></ele><time>2014-12-13T14:46:6Z</time></trkpt>
<trkpt lat="44.111985974013805" lon="5.392466057091951"><ele></ele><time>2014-12-13T14:46:9Z</time></trkpt>
<trkpt lat="44.11181355826557" lon="5.392424901947379"><ele></ele><time>2014-12-13T14:46:12Z</time></trkpt>
<trkpt lat="44.11167450249195" lon="5.392367988824844"><ele></ele><time>2014-12-13T14:46:15Z</time></trkpt>
<trkpt lat="44.11165262572467" lon="5.392359187826514"><ele></ele><time>2014-12-13T14:46:18Z</time></trkpt>
<trkpt lat="44.11147207953036" lon="5.3922840021550655"><ele></ele><time>2014-12-13T14:46:21Z</time></trkpt>
<trkpt lat="44.1114491969347" lon="5.392273189499974"><ele></ele><time>2014-12-13T14:46:24Z</time></trkpt>
<trkpt lat="44.111287174746394" lon="5.3921841736882925"><ele></ele><time>2014-12-13T14:46:27Z</time></trkpt>
<trkpt lat="44.111238894984126" lon="5.392165733501315"><ele></ele><time>2014-12-13T14:46:30Z</time></trkpt>
<trkpt lat="44.11107821390033" lon="5.392045537009835"><ele></ele><time>2014-12-13T14:46:33Z</time></trkpt>
<trkpt lat="44.111055582761765" lon="5.392027851194143"><ele></ele><time>2014-12-13T14:46:36Z</time></trkpt>
<trkpt lat="44.110878724604845" lon="5.3919203113764524"><ele></ele><time>2014-12-13T14:46:39Z</time></trkpt>
<trkpt lat="44.110835222527385" lon="5.3918849397450686"><ele></ele><time>2014-12-13T14:46:42Z</time></trkpt>
<trkpt lat="44.11071787588298" lon="5.391812855377793"><ele></ele><time>2014-12-13T14:46:45Z</time></trkpt>
<trkpt lat="44.110697926953435" lon="5.3917936608195305"><ele></ele><time>2014-12-13T14:46:48Z</time></trkpt>
<trkpt lat="44.11063062027097" lon="5.3917547687888145"><ele></ele><time>2014-12-13T14:46:51Z</time></trkpt>
<trkpt lat="44.11056423559785" lon="5.391709506511688"><ele></ele><time>2014-12-13T14:46:54Z</time></trkpt>
<trkpt lat="44.110458036884665" lon="5.391623759642243"><ele></ele><time>2014-12-13T14:46:57Z</time></trkpt>
<trkpt lat="44.11037564277649" lon="5.39154295809567"><ele></ele><time>2014-12-13T14:47:0Z</time></trkpt>
<trkpt lat="44.110285956412554" lon="5.391463413834572"><ele></ele><time>2014-12-13T14:47:3Z</time></trkpt>
<trkpt lat="44.110198114067316" lon="5.391381690278649"><ele></ele><time>2014-12-13T14:47:6Z</time></trkpt>
<trkpt lat="44.11013198085129" lon="5.391322681680322"><ele></ele><time>2014-12-13T14:47:9Z</time></trkpt>
<trkpt lat="44.110019244253635" lon="5.391217488795519"><ele></ele><time>2014-12-13T14:47:12Z</time></trkpt>
<trkpt lat="44.10999644547701" lon="5.391196282580495"><ele></ele><time>2014-12-13T14:47:15Z</time></trkpt>
<trkpt lat="44.10983132198453" lon="5.390998218208551"><ele></ele><time>2014-12-13T14:47:18Z</time></trkpt>
<trkpt lat="44.109813468530774" lon="5.390967456623912"><ele></ele><time>2014-12-13T14:47:21Z</time></trkpt>
<trkpt lat="44.10974817350507" lon="5.390774589031935"><ele></ele><time>2014-12-13T14:47:24Z</time></trkpt>
<trkpt lat="44.1097429767251" lon="5.390742989256978"><ele></ele><time>2014-12-13T14:47:27Z</time></trkpt>
<trkpt lat="44.10973065532744" lon="5.390567723661661"><ele></ele><time>2014-12-13T14:47:30Z</time></trkpt>
<trkpt lat="44.10974104888737" lon="5.390455909073353"><ele></ele><time>2014-12-13T14:47:33Z</time></trkpt>
<trkpt lat="44.10978111438453" lon="5.390161955729127"><ele></ele><time>2014-12-13T14:47:36Z</time></trkpt>
<trkpt lat="44.109792513772845" lon="5.39008978754282"><ele></ele><time>2014-12-13T14:47:39Z</time></trkpt>
<trkpt lat="44.10986300557852" lon="5.389824332669377"><ele></ele><time>2014-12-13T14:47:42Z</time></trkpt>
<trkpt lat="44.10988664254546" lon="5.389759121462703"><ele></ele><time>2014-12-13T14:47:45Z</time></trkpt>
<trkpt lat="44.1099451482296" lon="5.389642361551523"><ele></ele><time>2014-12-13T14:47:48Z</time></trkpt>
<trkpt lat="44.11005235277116" lon="5.389472208917141"><ele></ele><time>2014-12-13T14:47:51Z</time></trkpt>
<trkpt lat="44.11012552678585" lon="5.389362657442689"><ele></ele><time>2014-12-13T14:47:54Z</time></trkpt>
<trkpt lat="44.11024421453476" lon="5.389214884489775"><ele></ele><time>2014-12-13T14:47:57Z</time></trkpt>
<trkpt lat="44.110287968069315" lon="5.389168951660395"><ele></ele><time>2014-12-13T14:48:0Z</time></trkpt>
<trkpt lat="44.1105167940259" lon="5.388964433223009"><ele></ele><time>2014-12-13T14:48:3Z</time></trkpt>
<trkpt lat="44.1105374135077" lon="5.388946579769254"><ele></ele><time>2014-12-13T14:48:6Z</time></trkpt>
<trkpt lat="44.110625591129065" lon="5.38889360614121"><ele></ele><time>2014-12-13T14:48:9Z</time></trkpt>
<trkpt lat="44.110675882548094" lon="5.38886921480298"><ele></ele><time>2014-12-13T14:48:12Z</time></trkpt>
<trkpt lat="44.11088635213673" lon="5.388777432963252"><ele></ele><time>2014-12-13T14:48:15Z</time></trkpt>
<trkpt lat="44.11105432547629" lon="5.388743905350566"><ele></ele><time>2014-12-13T14:48:18Z</time></trkpt>
<trkpt lat="44.111254904419184" lon="5.388723956421018"><ele></ele><time>2014-12-13T14:48:21Z</time></trkpt>
<trkpt lat="44.11138474009931" lon="5.388735942542553"><ele></ele><time>2014-12-13T14:48:24Z</time></trkpt>
<trkpt lat="44.111487586051226" lon="5.388748347759247"><ele></ele><time>2014-12-13T14:48:27Z</time></trkpt>
<trkpt lat="44.11167215555906" lon="5.388761758804321"><ele></ele><time>2014-12-13T14:48:30Z</time></trkpt>
<trkpt lat="44.11172663792968" lon="5.388770392164588"><ele></ele><time>2014-12-13T14:48:33Z</time></trkpt>
<trkpt lat="44.111961498856544" lon="5.388766536489129"><ele></ele><time>2014-12-13T14:48:36Z</time></trkpt>
<trkpt lat="44.11206015385687" lon="5.388760585337877"><ele></ele><time>2014-12-13T14:48:39Z</time></trkpt>
<trkpt lat="44.11218705587089" lon="5.388738624751568"><ele></ele><time>2014-12-13T14:48:42Z</time></trkpt>
<trkpt lat="44.11229417659342" lon="5.388733930885792"><ele></ele><time>2014-12-13T14:48:45Z</time></trkpt>
<trkpt lat="44.11245469003916" lon="5.388733763247728"><ele></ele><time>2014-12-13T14:48:48Z</time></trkpt>
<trkpt lat="44.11266406998038" lon="5.3888170793652534"><ele></ele><time>2014-12-13T14:48:51Z</time></trkpt>
<trkpt lat="44.11290102638304" lon="5.389033583924174"><ele></ele><time>2014-12-13T14:48:54Z</time></trkpt>
<trkpt lat="44.11292633973062" lon="5.389061663299799"><ele></ele><time>2014-12-13T14:48:57Z</time></trkpt>
<trkpt lat="44.113082494586706" lon="5.38921027444303"><ele></ele><time>2014-12-13T14:49:0Z</time></trkpt>
<trkpt lat="44.113248120993376" lon="5.389357963576913"><ele></ele><time>2014-12-13T14:49:3Z</time></trkpt>
<trkpt lat="44.113270500674844" lon="5.389371542260051"><ele></ele><time>2014-12-13T14:49:6Z</time></trkpt>
<trkpt lat="44.11343361251056" lon="5.3894018009305"><ele></ele><time>2014-12-13T14:49:9Z</time></trkpt>
<trkpt lat="44.11356872878969" lon="5.389375565573573"><ele></ele><time>2014-12-13T14:49:12Z</time></trkpt>
<trkpt lat="44.11362513899803" lon="5.389347821474075"><ele></ele><time>2014-12-13T14:49:15Z</time></trkpt>
<trkpt lat="44.11382303573191" lon="5.389204323291779"><ele></ele><time>2014-12-13T14:49:18Z</time></trkpt>
<trkpt lat="44.11403744481504" lon="5.389067195355892"><ele></ele><time>2014-12-13T14:49:21Z</time></trkpt>
<trkpt lat="44.114063596352935" lon="5.3890500124543905"><ele></ele><time>2014-12-13T14:49:24Z</time></trkpt>
<trkpt lat="44.11427289247513" lon="5.388901485130191"><ele></ele><time>2014-12-13T14:49:27Z</time></trkpt>
<trkpt lat="44.11447330377996" lon="5.3888550493866205"><ele></ele><time>2014-12-13T14:49:30Z</time></trkpt>
<trkpt lat="44.11465611308813" lon="5.388910369947553"><ele></ele><time>2014-12-13T14:49:33Z</time></trkpt>
<trkpt lat="44.114716881886125" lon="5.3889466635882854"><ele></ele><time>2014-12-13T14:49:36Z</time></trkpt>
<trkpt lat="44.11489340476692" lon="5.389021262526512"><ele></ele><time>2014-12-13T14:49:39Z</time></trkpt>
<trkpt lat="44.114969093352556" lon="5.38902947679162"><ele></ele><time>2014-12-13T14:49:42Z</time></trkpt>
<trkpt lat="44.11515994928777" lon="5.388960242271423"><ele></ele><time>2014-12-13T14:49:45Z</time></trkpt>
<trkpt lat="44.11529414355755" lon="5.388797130435705"><ele></ele><time>2014-12-13T14:49:48Z</time></trkpt>
<trkpt lat="44.115436132997274" lon="5.388531005010009"><ele></ele><time>2014-12-13T14:49:51Z</time></trkpt>
<trkpt lat="44.11549489013851" lon="5.388391697779298"><ele></ele><time>2014-12-13T14:49:54Z</time></trkpt>
<trkpt lat="44.11554425954819" lon="5.3882931265980005"><ele></ele><time>2014-12-13T14:49:57Z</time></trkpt>
<trkpt lat="44.11568398587406" lon="5.387989534065127"><ele></ele><time>2014-12-13T14:50:0Z</time></trkpt>
<trkpt lat="44.11576922982931" lon="5.387869086116552"><ele></ele><time>2014-12-13T14:50:3Z</time></trkpt>
<trkpt lat="44.115836787968874" lon="5.387750146910548"><ele></ele><time>2014-12-13T14:50:6Z</time></trkpt>
<trkpt lat="44.11595027893782" lon="5.387628609314561"><ele></ele><time>2014-12-13T14:50:9Z</time></trkpt>
<trkpt lat="44.116011718288064" lon="5.3875568602234125"><ele></ele><time>2014-12-13T14:50:12Z</time></trkpt>
<trkpt lat="44.11609553731978" lon="5.387489637359977"><ele></ele><time>2014-12-13T14:50:15Z</time></trkpt>
<trkpt lat="44.11613987758756" lon="5.387461557984352"><ele></ele><time>2014-12-13T14:50:18Z</time></trkpt>
<trkpt lat="44.116185726597905" lon="5.387431802228093"><ele></ele><time>2014-12-13T14:50:21Z</time></trkpt>
<trkpt lat="44.11632134579122" lon="5.387349743396044"><ele></ele><time>2014-12-13T14:50:24Z</time></trkpt>
<trkpt lat="44.116363087669015" lon="5.387325352057815"><ele></ele><time>2014-12-13T14:50:27Z</time></trkpt>
<trkpt lat="44.116430059075356" lon="5.387291740626097"><ele></ele><time>2014-12-13T14:50:30Z</time></trkpt>
<trkpt lat="44.11656215786934" lon="5.387206496670842"><ele></ele><time>2014-12-13T14:50:33Z</time></trkpt>
<trkpt lat="44.116667518392205" lon="5.387149667367339"><ele></ele><time>2014-12-13T14:50:36Z</time></trkpt>
<trkpt lat="44.11673415452242" lon="5.387107003480196"><ele></ele><time>2014-12-13T14:50:39Z</time></trkpt>
<trkpt lat="44.11684462800622" lon="5.387049755081534"><ele></ele><time>2014-12-13T14:50:42Z</time></trkpt>
<trkpt lat="44.11690313369036" lon="5.387003235518932"><ele></ele><time>2014-12-13T14:50:45Z</time></trkpt>
<trkpt lat="44.11702886223793" lon="5.386925702914596"><ele></ele><time>2014-12-13T14:50:48Z</time></trkpt>
<trkpt lat="44.11706901155412" lon="5.386902065947652"><ele></ele><time>2014-12-13T14:50:51Z</time></trkpt>
<trkpt lat="44.11710664629936" lon="5.38687608204782"><ele></ele><time>2014-12-13T14:50:54Z</time></trkpt>
<trkpt lat="44.11719876341522" lon="5.386799052357674"><ele></ele><time>2014-12-13T14:50:57Z</time></trkpt>
<trkpt lat="44.117347709834576" lon="5.386657230556011"><ele></ele><time>2014-12-13T14:51:0Z</time></trkpt>
<trkpt lat="44.11737000569701" lon="5.386639041826129"><ele></ele><time>2014-12-13T14:51:3Z</time></trkpt>
<trkpt lat="44.11749112419784" lon="5.386528233066201"><ele></ele><time>2014-12-13T14:51:6Z</time></trkpt>
<trkpt lat="44.11759598180652" lon="5.386434607207775"><ele></ele><time>2014-12-13T14:51:9Z</time></trkpt>
<trkpt lat="44.11761777475476" lon="5.386415496468544"><ele></ele><time>2014-12-13T14:51:12Z</time></trkpt>
<trkpt lat="44.11771357990801" lon="5.386300832033157"><ele></ele><time>2014-12-13T14:51:15Z</time></trkpt>
<trkpt lat="44.11774232983589" lon="5.386238722130656"><ele></ele><time>2014-12-13T14:51:18Z</time></trkpt>
<trkpt lat="44.11775071173906" lon="5.386203350499272"><ele></ele><time>2014-12-13T14:51:21Z</time></trkpt>
<trkpt lat="44.11775481887162" lon="5.3860987443476915"><ele></ele><time>2014-12-13T14:51:24Z</time></trkpt>
<trkpt lat="44.117745431140065" lon="5.386035041883588"><ele></ele><time>2014-12-13T14:51:27Z</time></trkpt>
<trkpt lat="44.117684410884976" lon="5.385905876755714"><ele></ele><time>2014-12-13T14:51:30Z</time></trkpt>
<trkpt lat="44.11767477169633" lon="5.385880563408136"><ele></ele><time>2014-12-13T14:51:33Z</time></trkpt>
<trkpt lat="44.11764107644558" lon="5.385808143764734"><ele></ele><time>2014-12-13T14:51:36Z</time></trkpt>
<trkpt lat="44.117626240476966" lon="5.3858010191470385"><ele></ele><time>2014-12-13T14:51:39Z</time></trkpt>
<trkpt lat="44.1175639629364" lon="5.38575709797442"><ele></ele><time>2014-12-13T14:51:42Z</time></trkpt>
<trkpt lat="44.117548540234566" lon="5.385735221207142"><ele></ele><time>2014-12-13T14:51:45Z</time></trkpt>
<trkpt lat="44.117531441152096" lon="5.385712338611484"><ele></ele><time>2014-12-13T14:51:48Z</time></trkpt>
<trkpt lat="44.117445945739746" lon="5.385591555386782"><ele></ele><time>2014-12-13T14:51:51Z</time></trkpt>
<trkpt lat="44.117382327094674" lon="5.385480411350727"><ele></ele><time>2014-12-13T14:51:54Z</time></trkpt>
<trkpt lat="44.117337903007865" lon="5.3853989392519"><ele></ele><time>2014-12-13T14:51:57Z</time></trkpt>
<trkpt lat="44.11727847531438" lon="5.385237419977784"><ele></ele><time>2014-12-13T14:52:0Z</time></trkpt>
<trkpt lat="44.11723648197949" lon="5.385101716965437"><ele></ele><time>2014-12-13T14:52:3Z</time></trkpt>
<trkpt lat="44.11720119416714" lon="5.3849171474576"><ele></ele><time>2014-12-13T14:52:6Z</time></trkpt>
<trkpt lat="44.11719339899719" lon="5.384879093617201"><ele></ele><time>2014-12-13T14:52:9Z</time></trkpt>
<trkpt lat="44.117170348763466" lon="5.384617745876312"><ele></ele><time>2014-12-13T14:52:12Z</time></trkpt>
<trkpt lat="44.11719356663525" lon="5.3843682166188955"><ele></ele><time>2014-12-13T14:52:15Z</time></trkpt>
<trkpt lat="44.1172185447067" lon="5.384265203028917"><ele></ele><time>2014-12-13T14:52:18Z</time></trkpt>
<trkpt lat="44.11727210506797" lon="5.384102175012231"><ele></ele><time>2014-12-13T14:52:21Z</time></trkpt>
<trkpt lat="44.117318792268634" lon="5.384013913571835"><ele></ele><time>2014-12-13T14:52:24Z</time></trkpt>
<trkpt lat="44.11736832931638" lon="5.383934453129768"><ele></ele><time>2014-12-13T14:52:27Z</time></trkpt>
<trkpt lat="44.11744309589267" lon="5.3838216327130795"><ele></ele><time>2014-12-13T14:52:30Z</time></trkpt>
<trkpt lat="44.11749883554876" lon="5.383752230554819"><ele></ele><time>2014-12-13T14:52:33Z</time></trkpt>
<trkpt lat="44.11759941838682" lon="5.383652150630951"><ele></ele><time>2014-12-13T14:52:36Z</time></trkpt>
<trkpt lat="44.117616433650255" lon="5.383629938587546"><ele></ele><time>2014-12-13T14:52:39Z</time></trkpt>
<trkpt lat="44.117735205218196" lon="5.383497504517436"><ele></ele><time>2014-12-13T14:52:42Z</time></trkpt>
<trkpt lat="44.11781516857445" lon="5.383420055732131"><ele></ele><time>2014-12-13T14:52:45Z</time></trkpt>
<trkpt lat="44.11791373975575" lon="5.383310839533806"><ele></ele><time>2014-12-13T14:52:48Z</time></trkpt>
<trkpt lat="44.117935951799154" lon="5.383290722966194"><ele></ele><time>2014-12-13T14:52:51Z</time></trkpt>
<trkpt lat="44.11806520074606" lon="5.383154600858688"><ele></ele><time>2014-12-13T14:52:54Z</time></trkpt>
<trkpt lat="44.11808464676142" lon="5.3831371665000916"><ele></ele><time>2014-12-13T14:52:57Z</time></trkpt>
<trkpt lat="44.11822780966759" lon="5.383007163181901"><ele></ele><time>2014-12-13T14:53:0Z</time></trkpt>
<trkpt lat="44.1182460822165" lon="5.382986711338162"><ele></ele><time>2014-12-13T14:53:3Z</time></trkpt>
<trkpt lat="44.11838279105723" lon="5.382847907021642"><ele></ele><time>2014-12-13T14:53:6Z</time></trkpt>
<trkpt lat="44.11840282380581" lon="5.382828125730157"><ele></ele><time>2014-12-13T14:53:9Z</time></trkpt>
<trkpt lat="44.11853341385722" lon="5.382695775479078"><ele></ele><time>2014-12-13T14:53:12Z</time></trkpt>
<trkpt lat="44.11855235695839" lon="5.382676748558879"><ele></ele><time>2014-12-13T14:53:15Z</time></trkpt>
<trkpt lat="44.11866811104119" lon="5.382564598694444"><ele></ele><time>2014-12-13T14:53:18Z</time></trkpt>
<trkpt lat="44.11870490759611" lon="5.382527131587267"><ele></ele><time>2014-12-13T14:53:21Z</time></trkpt>
<trkpt lat="44.1188058257103" lon="5.382436104118824"><ele></ele><time>2014-12-13T14:53:24Z</time></trkpt>
<trkpt lat="44.118865421041846" lon="5.382377011701465"><ele></ele><time>2014-12-13T14:53:27Z</time></trkpt>
<trkpt lat="44.11896734498441" lon="5.382233764976263"><ele></ele><time>2014-12-13T14:53:30Z</time></trkpt>
<trkpt lat="44.11898838356137" lon="5.3821817971765995"><ele></ele><time>2014-12-13T14:53:33Z</time></trkpt>
<trkpt lat="44.119029119610786" lon="5.381945176050067"><ele></ele><time>2014-12-13T14:53:36Z</time></trkpt>
<trkpt lat="44.11903138272464" lon="5.381909720599651"><ele></ele><time>2014-12-13T14:53:39Z</time></trkpt>
<trkpt lat="44.11904403939843" lon="5.3817029390484095"><ele></ele><time>2014-12-13T14:53:42Z</time></trkpt>
<trkpt lat="44.119048062711954" lon="5.381630100309849"><ele></ele><time>2014-12-13T14:53:45Z</time></trkpt>
<trkpt lat="44.119076393544674" lon="5.381468329578638"><ele></ele><time>2014-12-13T14:53:48Z</time></trkpt>
<trkpt lat="44.11912953481078" lon="5.381350144743919"><ele></ele><time>2014-12-13T14:53:51Z</time></trkpt>
<trkpt lat="44.11916943266988" lon="5.381260626018047"><ele></ele><time>2014-12-13T14:53:54Z</time></trkpt>
<trkpt lat="44.119219975546" lon="5.381179321557283"><ele></ele><time>2014-12-13T14:53:57Z</time></trkpt>
<trkpt lat="44.119286611676216" lon="5.381074715405703"><ele></ele><time>2014-12-13T14:54:0Z</time></trkpt>
<trkpt lat="44.1193581931293" lon="5.38093289360404"><ele></ele><time>2014-12-13T14:54:3Z</time></trkpt>
<trkpt lat="44.11937369965017" lon="5.380907915532589"><ele></ele><time>2014-12-13T14:54:6Z</time></trkpt>
<trkpt lat="44.11948216147721" lon="5.380749749019742"><ele></ele><time>2014-12-13T14:54:9Z</time></trkpt>
<trkpt lat="44.11952197551727" lon="5.380688142031431"><ele></ele><time>2014-12-13T14:54:12Z</time></trkpt>
<trkpt lat="44.119624653831124" lon="5.380527460947633"><ele></ele><time>2014-12-13T14:54:15Z</time></trkpt>
<trkpt lat="44.11966061219573" lon="5.380480019375682"><ele></ele><time>2014-12-13T14:54:18Z</time></trkpt>
<trkpt lat="44.11972498521209" lon="5.380375161767006"><ele></ele><time>2014-12-13T14:54:21Z</time></trkpt>
<trkpt lat="44.11975792609155" lon="5.380324283614755"><ele></ele><time>2014-12-13T14:54:24Z</time></trkpt>
<trkpt lat="44.11985817365348" lon="5.380150023847818"><ele></ele><time>2014-12-13T14:54:27Z</time></trkpt>
<trkpt lat="44.11987770348787" lon="5.3801237884908915"><ele></ele><time>2014-12-13T14:54:30Z</time></trkpt>
<trkpt lat="44.11997275426984" lon="5.379967046901584"><ele></ele><time>2014-12-13T14:54:33Z</time></trkpt>
<trkpt lat="44.11998708732426" lon="5.379943996667862"><ele></ele><time>2014-12-13T14:54:36Z</time></trkpt>
<trkpt lat="44.120088424533606" lon="5.379766970872879"><ele></ele><time>2014-12-13T14:54:39Z</time></trkpt>
<trkpt lat="44.12011222913861" lon="5.379741154611111"><ele></ele><time>2014-12-13T14:54:42Z</time></trkpt>
<trkpt lat="44.12028565071523" lon="5.379563542082906"><ele></ele><time>2014-12-13T14:54:45Z</time></trkpt>
<trkpt lat="44.120310209691525" lon="5.379530852660537"><ele></ele><time>2014-12-13T14:54:48Z</time></trkpt>
<trkpt lat="44.12040375173092" lon="5.379426246508956"><ele></ele><time>2014-12-13T14:54:51Z</time></trkpt>
<trkpt lat="44.120496958494186" lon="5.3793171141296625"><ele></ele><time>2014-12-13T14:54:54Z</time></trkpt>
<trkpt lat="44.12051908671856" lon="5.379288615658879"><ele></ele><time>2014-12-13T14:54:57Z</time></trkpt>
<trkpt lat="44.120647916570306" lon="5.379138244315982"><ele></ele><time>2014-12-13T14:55:0Z</time></trkpt>
<trkpt lat="44.12070617079735" lon="5.3790597058832645"><ele></ele><time>2014-12-13T14:55:3Z</time></trkpt>
<trkpt lat="44.12072645500302" lon="5.379034476354718"><ele></ele><time>2014-12-13T14:55:6Z</time></trkpt>
<trkpt lat="44.12083248607814" lon="5.378919476643205"><ele></ele><time>2014-12-13T14:55:9Z</time></trkpt>
<trkpt lat="44.12087347358465" lon="5.378870191052556"><ele></ele><time>2014-12-13T14:55:12Z</time></trkpt>
<trkpt lat="44.12098788656294" lon="5.3787201549857855"><ele></ele><time>2014-12-13T14:55:15Z</time></trkpt>
<trkpt lat="44.12102594040334" lon="5.378673048689961"><ele></ele><time>2014-12-13T14:55:18Z</time></trkpt>
<trkpt lat="44.12106106057763" lon="5.378627115860581"><ele></ele><time>2014-12-13T14:55:21Z</time></trkpt>
<trkpt lat="44.12112610414624" lon="5.378498872742057"><ele></ele><time>2014-12-13T14:55:24Z</time></trkpt>
<trkpt lat="44.12116105668247" lon="5.378422178328037"><ele></ele><time>2014-12-13T14:55:27Z</time></trkpt>
<trkpt lat="44.12120363675058" lon="5.37825127132237"><ele></ele><time>2014-12-13T14:55:30Z</time></trkpt>
<trkpt lat="44.121226854622364" lon="5.378137780353427"><ele></ele><time>2014-12-13T14:55:33Z</time></trkpt>
<trkpt lat="44.121253760531545" lon="5.378015153110027"><ele></ele><time>2014-12-13T14:55:36Z</time></trkpt>
<trkpt lat="44.1212803311646" lon="5.377938207238913"><ele></ele><time>2014-12-13T14:55:39Z</time></trkpt>
<trkpt lat="44.1213355679065" lon="5.3776967246085405"><ele></ele><time>2014-12-13T14:55:42Z</time></trkpt>
<trkpt lat="44.121403796598315" lon="5.377432191744447"><ele></ele><time>2014-12-13T14:55:45Z</time></trkpt>
<trkpt lat="44.121423829346895" lon="5.377355832606554"><ele></ele><time>2014-12-13T14:55:48Z</time></trkpt>
<trkpt lat="44.1214735340327" lon="5.377122480422258"><ele></ele><time>2014-12-13T14:55:51Z</time></trkpt>
<trkpt lat="44.12150504998863" lon="5.376990381628275"><ele></ele><time>2014-12-13T14:55:54Z</time></trkpt>
<trkpt lat="44.12152851931751" lon="5.37688946351409"><ele></ele><time>2014-12-13T14:55:57Z</time></trkpt>
<trkpt lat="44.121545534580946" lon="5.376824419945478"><ele></ele><time>2014-12-13T14:56:0Z</time></trkpt>
<trkpt lat="44.12159842438996" lon="5.376674383878708"><ele></ele><time>2014-12-13T14:56:3Z</time></trkpt>
<trkpt lat="44.121616361662745" lon="5.376610932871699"><ele></ele><time>2014-12-13T14:56:6Z</time></trkpt>
<trkpt lat="44.1216965764761" lon="5.3763944283127785"><ele></ele><time>2014-12-13T14:56:9Z</time></trkpt>
<trkpt lat="44.12175382487476" lon="5.3762745670974255"><ele></ele><time>2014-12-13T14:56:12Z</time></trkpt>
<trkpt lat="44.121789280325174" lon="5.376183204352856"><ele></ele><time>2014-12-13T14:56:15Z</time></trkpt>
<trkpt lat="44.1218139231205" lon="5.3761296439915895"><ele></ele><time>2014-12-13T14:56:18Z</time></trkpt>
<trkpt lat="44.121889946982265" lon="5.375970890745521"><ele></ele><time>2014-12-13T14:56:21Z</time></trkpt>
<trkpt lat="44.121949626132846" lon="5.37586335092783"><ele></ele><time>2014-12-13T14:56:24Z</time></trkpt>
<trkpt lat="44.122009640559554" lon="5.375761007890105"><ele></ele><time>2014-12-13T14:56:27Z</time></trkpt>
<trkpt lat="44.12205976434052" lon="5.375683307647705"><ele></ele><time>2014-12-13T14:56:30Z</time></trkpt>
<trkpt lat="44.12216235883534" lon="5.3755279909819365"><ele></ele><time>2014-12-13T14:56:33Z</time></trkpt>
<trkpt lat="44.12219655700028" lon="5.375476190820336"><ele></ele><time>2014-12-13T14:56:36Z</time></trkpt>
<trkpt lat="44.12226604297757" lon="5.375340320169926"><ele></ele><time>2014-12-13T14:56:39Z</time></trkpt>
<trkpt lat="44.12230216898024" lon="5.375298662111163"><ele></ele><time>2014-12-13T14:56:42Z</time></trkpt>
<trkpt lat="44.1223855689168" lon="5.375192128121853"><ele></ele><time>2014-12-13T14:56:45Z</time></trkpt>
<trkpt lat="44.12243099883199" lon="5.375120714306831"><ele></ele><time>2014-12-13T14:56:48Z</time></trkpt>
<trkpt lat="44.122516829520464" lon="5.37501267157495"><ele></ele><time>2014-12-13T14:56:51Z</time></trkpt>
<trkpt lat="44.12256762385368" lon="5.374941676855087"><ele></ele><time>2014-12-13T14:56:54Z</time></trkpt>
<trkpt lat="44.12262512370944" lon="5.3748532477766275"><ele></ele><time>2014-12-13T14:56:57Z</time></trkpt>
<trkpt lat="44.12269536405802" lon="5.37476590834558"><ele></ele><time>2014-12-13T14:57:0Z</time></trkpt>
<trkpt lat="44.122791504487395" lon="5.374639760702848"><ele></ele><time>2014-12-13T14:57:3Z</time></trkpt>
<trkpt lat="44.12284607067704" lon="5.374575890600681"><ele></ele><time>2014-12-13T14:57:6Z</time></trkpt>
<trkpt lat="44.12292125634849" lon="5.374490479007363"><ele></ele><time>2014-12-13T14:57:9Z</time></trkpt>
<trkpt lat="44.123014295473695" lon="5.374378161504865"><ele></ele><time>2014-12-13T14:57:12Z</time></trkpt>
<trkpt lat="44.12307221442461" lon="5.374316554516554"><ele></ele><time>2014-12-13T14:57:15Z</time></trkpt>
<trkpt lat="44.12314161658287" lon="5.374239273369312"><ele></ele><time>2014-12-13T14:57:18Z</time></trkpt>
<trkpt lat="44.123240020126104" lon="5.374138941988349"><ele></ele><time>2014-12-13T14:57:21Z</time></trkpt>
<trkpt lat="44.123337753117085" lon="5.374033246189356"><ele></ele><time>2014-12-13T14:57:24Z</time></trkpt>
<trkpt lat="44.12336868233979" lon="5.373994605615735"><ele></ele><time>2014-12-13T14:57:27Z</time></trkpt>
<trkpt lat="44.123410088941455" lon="5.373959401622415"><ele></ele><time>2014-12-13T14:57:30Z</time></trkpt>
<trkpt lat="44.1234612185508" lon="5.373899303376675"><ele></ele><time>2014-12-13T14:57:33Z</time></trkpt>
<trkpt lat="44.12347722798586" lon="5.373882204294205"><ele></ele><time>2014-12-13T14:57:36Z</time></trkpt>
<trkpt lat="44.123642183840275" lon="5.373717751353979"><ele></ele><time>2014-12-13T14:57:39Z</time></trkpt>
<trkpt lat="44.123681830242276" lon="5.373685983940959"><ele></ele><time>2014-12-13T14:57:42Z</time></trkpt>
<trkpt lat="44.12376053631306" lon="5.373616078868508"><ele></ele><time>2014-12-13T14:57:45Z</time></trkpt>
<trkpt lat="44.12385458126664" lon="5.373533684760332"><ele></ele><time>2014-12-13T14:57:48Z</time></trkpt>
<trkpt lat="44.12393471226096" lon="5.37347249686718"><ele></ele><time>2014-12-13T14:57:51Z</time></trkpt>
<trkpt lat="44.12404904142022" lon="5.373391108587384"><ele></ele><time>2014-12-13T14:57:54Z</time></trkpt>
<trkpt lat="44.12409002892673" lon="5.373366214334965"><ele></ele><time>2014-12-13T14:57:57Z</time></trkpt>
<trkpt lat="44.12410855293274" lon="5.373354060575366"><ele></ele><time>2014-12-13T14:58:0Z</time></trkpt>
<trkpt lat="44.12422480992973" lon="5.37328583188355"><ele></ele><time>2014-12-13T14:58:3Z</time></trkpt>
<trkpt lat="44.12426948547363" lon="5.373261859640479"><ele></ele><time>2014-12-13T14:58:6Z</time></trkpt>
<trkpt lat="44.12435372360051" lon="5.3732202015817165"><ele></ele><time>2014-12-13T14:58:9Z</time></trkpt>
<trkpt lat="44.12441533058882" lon="5.373198157176375"><ele></ele><time>2014-12-13T14:58:12Z</time></trkpt>
<trkpt lat="44.12453334778547" lon="5.373157253488898"><ele></ele><time>2014-12-13T14:58:15Z</time></trkpt>
<trkpt lat="44.12455765530467" lon="5.37314660847187"><ele></ele><time>2014-12-13T14:58:18Z</time></trkpt>
<trkpt lat="44.124777764081955" lon="5.37309137172997"><ele></ele><time>2014-12-13T14:58:21Z</time></trkpt>
<trkpt lat="44.12480492144823" lon="5.373086929321289"><ele></ele><time>2014-12-13T14:58:24Z</time></trkpt>
<trkpt lat="44.124971721321344" lon="5.373059352859855"><ele></ele><time>2014-12-13T14:58:27Z</time></trkpt>
<trkpt lat="44.12504917010665" lon="5.373056838288903"><ele></ele><time>2014-12-13T14:58:30Z</time></trkpt>
<trkpt lat="44.1251655947417" lon="5.373046360909939"><ele></ele><time>2014-12-13T14:58:33Z</time></trkpt>
<trkpt lat="44.12525410763919" lon="5.373035045340657"><ele></ele><time>2014-12-13T14:58:36Z</time></trkpt>
<trkpt lat="44.125360222533345" lon="5.37303370423615"><ele></ele><time>2014-12-13T14:58:39Z</time></trkpt>
<trkpt lat="44.125389475375414" lon="5.373028675094247"><ele></ele><time>2014-12-13T14:58:42Z</time></trkpt>
<trkpt lat="44.12553825415671" lon="5.373031524941325"><ele></ele><time>2014-12-13T14:58:45Z</time></trkpt>
<trkpt lat="44.125569351017475" lon="5.373029261827469"><ele></ele><time>2014-12-13T14:58:48Z</time></trkpt>
<trkpt lat="44.12568208761513" lon="5.37303077057004"><ele></ele><time>2014-12-13T14:58:51Z</time></trkpt>
<trkpt lat="44.12582231685519" lon="5.373024987056851"><ele></ele><time>2014-12-13T14:58:54Z</time></trkpt>
<trkpt lat="44.1258823312819" lon="5.373026495799422"><ele></ele><time>2014-12-13T14:58:57Z</time></trkpt>
<trkpt lat="44.12603999488056" lon="5.373038733378053"><ele></ele><time>2014-12-13T14:59:0Z</time></trkpt>
<trkpt lat="44.12607343867421" lon="5.37303957156837"><ele></ele><time>2014-12-13T14:59:3Z</time></trkpt>
<trkpt lat="44.126231018453836" lon="5.373038314282894"><ele></ele><time>2014-12-13T14:59:6Z</time></trkpt>
<trkpt lat="44.1262621153146" lon="5.373033285140991"><ele></ele><time>2014-12-13T14:59:9Z</time></trkpt>
<trkpt lat="44.126456659287214" lon="5.37302833981812"><ele></ele><time>2014-12-13T14:59:12Z</time></trkpt>
<trkpt lat="44.12658674642444" lon="5.373027333989739"><ele></ele><time>2014-12-13T14:59:15Z</time></trkpt>
<trkpt lat="44.12665287964046" lon="5.373038565739989"><ele></ele><time>2014-12-13T14:59:18Z</time></trkpt>
<trkpt lat="44.12683451548219" lon="5.373079804703593"><ele></ele><time>2014-12-13T14:59:21Z</time></trkpt>
<trkpt lat="44.12686049938202" lon="5.373086342588067"><ele></ele><time>2014-12-13T14:59:24Z</time></trkpt>
<trkpt lat="44.12697005085647" lon="5.373141160234809"><ele></ele><time>2014-12-13T14:59:27Z</time></trkpt>
<trkpt lat="44.12704590708017" lon="5.373169826343656"><ele></ele><time>2014-12-13T14:59:30Z</time></trkpt>
<trkpt lat="44.127161744982004" lon="5.373200168833137"><ele></ele><time>2014-12-13T14:59:33Z</time></trkpt>
<trkpt lat="44.127206252887845" lon="5.373220704495907"><ele></ele><time>2014-12-13T14:59:36Z</time></trkpt>
<trkpt lat="44.12735008634627" lon="5.373264709487557"><ele></ele><time>2014-12-13T14:59:39Z</time></trkpt>
<trkpt lat="44.127421751618385" lon="5.373279796913266"><ele></ele><time>2014-12-13T14:59:42Z</time></trkpt>
<trkpt lat="44.12757975049317" lon="5.373335117474198"><ele></ele><time>2014-12-13T14:59:45Z</time></trkpt>
<trkpt lat="44.12775099277496" lon="5.373393790796399"><ele></ele><time>2014-12-13T14:59:48Z</time></trkpt>
<trkpt lat="44.1277751326561" lon="5.373401250690222"><ele></ele><time>2014-12-13T14:59:51Z</time></trkpt>
<trkpt lat="44.12795375101268" lon="5.373462270945311"><ele></ele><time>2014-12-13T14:59:54Z</time></trkpt>
<trkpt lat="44.12800194695592" lon="5.3734776098281145"><ele></ele><time>2014-12-13T14:59:57Z</time></trkpt>
<trkpt lat="44.12815508432686" lon="5.373505856841803"><ele></ele><time>2014-12-13T15:0:0Z</time></trkpt>
<trkpt lat="44.12820621393621" lon="5.373516082763672"><ele></ele><time>2014-12-13T15:0:3Z</time></trkpt>
<trkpt lat="44.12836194969714" lon="5.3735267277807"><ele></ele><time>2014-12-13T15:0:6Z</time></trkpt>
<trkpt lat="44.12844602018595" lon="5.373532511293888"><ele></ele><time>2014-12-13T15:0:9Z</time></trkpt>
<trkpt lat="44.128555404022336" lon="5.373543323948979"><ele></ele><time>2014-12-13T15:0:12Z</time></trkpt>
<trkpt lat="44.1286610160023" lon="5.373530080541968"><ele></ele><time>2014-12-13T15:0:15Z</time></trkpt>
<trkpt lat="44.12874064408243" lon="5.37353603169322"><ele></ele><time>2014-12-13T15:0:18Z</time></trkpt>
<trkpt lat="44.128908198326826" lon="5.373541647568345"><ele></ele><time>2014-12-13T15:0:21Z</time></trkpt>
<trkpt lat="44.12893284112215" lon="5.373541982844472"><ele></ele><time>2014-12-13T15:0:24Z</time></trkpt>
<trkpt lat="44.129089917987585" lon="5.373528907075524"><ele></ele><time>2014-12-13T15:0:27Z</time></trkpt>
<trkpt lat="44.129197373986244" lon="5.373513903468847"><ele></ele><time>2014-12-13T15:0:30Z</time></trkpt>
<trkpt lat="44.12928203120828" lon="5.373499905690551"><ele></ele><time>2014-12-13T15:0:33Z</time></trkpt>
<trkpt lat="44.12939359433949" lon="5.373484147712588"><ele></ele><time>2014-12-13T15:0:36Z</time></trkpt>
<trkpt lat="44.12942100316286" lon="5.3734783641994"><ele></ele><time>2014-12-13T15:0:39Z</time></trkpt>
<trkpt lat="44.1295241843909" lon="5.373428491875529"><ele></ele><time>2014-12-13T15:0:42Z</time></trkpt>
<trkpt lat="44.12963633425534" lon="5.373382056131959"><ele></ele><time>2014-12-13T15:0:45Z</time></trkpt>
<trkpt lat="44.12974211387336" lon="5.373320616781712"><ele></ele><time>2014-12-13T15:0:48Z</time></trkpt>
<trkpt lat="44.129798356443644" lon="5.373292537406087"><ele></ele><time>2014-12-13T15:0:51Z</time></trkpt>
<trkpt lat="44.12992148660123" lon="5.373253226280212"><ele></ele><time>2014-12-13T15:0:54Z</time></trkpt>
<trkpt lat="44.130018800497055" lon="5.373215172439814"><ele></ele><time>2014-12-13T15:0:57Z</time></trkpt>
<trkpt lat="44.13004880771041" lon="5.373204862698913"><ele></ele><time>2014-12-13T15:1:0Z</time></trkpt>
<trkpt lat="44.13024100475013" lon="5.373157672584057"><ele></ele><time>2014-12-13T15:1:3Z</time></trkpt>
<trkpt lat="44.130269419401884" lon="5.373156918212771"><ele></ele><time>2014-12-13T15:1:6Z</time></trkpt>
<trkpt lat="44.13044275715947" lon="5.373158426955342"><ele></ele><time>2014-12-13T15:1:9Z</time></trkpt>
<trkpt lat="44.13048877380788" lon="5.373166389763355"><ele></ele><time>2014-12-13T15:1:12Z</time></trkpt>
<trkpt lat="44.13062648847699" lon="5.373200001195073"><ele></ele><time>2014-12-13T15:1:15Z</time></trkpt>
<trkpt lat="44.130693040788174" lon="5.373212741687894"><ele></ele><time>2014-12-13T15:1:18Z</time></trkpt>
<trkpt lat="44.130847519263625" lon="5.373253058642149"><ele></ele><time>2014-12-13T15:1:21Z</time></trkpt>
<trkpt lat="44.130871407687664" lon="5.373260686174035"><ele></ele><time>2014-12-13T15:1:24Z</time></trkpt>
<trkpt lat="44.13103627972305" lon="5.373315839096904"><ele></ele><time>2014-12-13T15:1:27Z</time></trkpt>
<trkpt lat="44.131058156490326" lon="5.373324304819107"><ele></ele><time>2014-12-13T15:1:30Z</time></trkpt>
<trkpt lat="44.131236942484975" lon="5.373394964262843"><ele></ele><time>2014-12-13T15:1:33Z</time></trkpt>
<trkpt lat="44.13127960637212" lon="5.373414745554328"><ele></ele><time>2014-12-13T15:1:36Z</time></trkpt>
<trkpt lat="44.13138278760016" lon="5.373460007831454"><ele></ele><time>2014-12-13T15:1:39Z</time></trkpt>
<trkpt lat="44.131473479792476" lon="5.3735182620584965"><ele></ele><time>2014-12-13T15:1:42Z</time></trkpt>
<trkpt lat="44.131555538624525" lon="5.373562853783369"><ele></ele><time>2014-12-13T15:1:45Z</time></trkpt>
<trkpt lat="44.131622929126024" lon="5.373594118282199"><ele></ele><time>2014-12-13T15:1:48Z</time></trkpt>
<trkpt lat="44.131644889712334" lon="5.373605685308576"><ele></ele><time>2014-12-13T15:1:51Z</time></trkpt>
<trkpt lat="44.1317970212549" lon="5.3736955393105745"><ele></ele><time>2014-12-13T15:1:54Z</time></trkpt>
<trkpt lat="44.131880421191454" lon="5.3737373650074005"><ele></ele><time>2014-12-13T15:1:57Z</time></trkpt>
<trkpt lat="44.13196097128093" lon="5.3737822920084"><ele></ele><time>2014-12-13T15:2:0Z</time></trkpt>
<trkpt lat="44.132203878834844" lon="5.373886143788695"><ele></ele><time>2014-12-13T15:2:3Z</time></trkpt>
<trkpt lat="44.13222659379244" lon="5.373896202072501"><ele></ele><time>2014-12-13T15:2:6Z</time></trkpt>
<trkpt lat="44.13238023407757" lon="5.373970801010728"><ele></ele><time>2014-12-13T15:2:9Z</time></trkpt>
<trkpt lat="44.13252524100244" lon="5.374035844579339"><ele></ele><time>2014-12-13T15:2:12Z</time></trkpt>
<trkpt lat="44.13261174224317" lon="5.374099966138601"><ele></ele><time>2014-12-13T15:2:15Z</time></trkpt>
<trkpt lat="44.13269883021712" lon="5.374143132939935"><ele></ele><time>2014-12-13T15:2:18Z</time></trkpt>
<trkpt lat="44.13280226290226" lon="5.374195016920567"><ele></ele><time>2014-12-13T15:2:21Z</time></trkpt>
<trkpt lat="44.13282531313598" lon="5.3741982858628035"><ele></ele><time>2014-12-13T15:2:24Z</time></trkpt>
<trkpt lat="44.13294550962746" lon="5.374240782111883"><ele></ele><time>2014-12-13T15:2:27Z</time></trkpt>
<trkpt lat="44.13299496285617" lon="5.374247403815389"><ele></ele><time>2014-12-13T15:2:30Z</time></trkpt>
<trkpt lat="44.13308464922011" lon="5.374275064095855"><ele></ele><time>2014-12-13T15:2:33Z</time></trkpt>
<trkpt lat="44.133201660588384" lon="5.37429484538734"><ele></ele><time>2014-12-13T15:2:36Z</time></trkpt>
<trkpt lat="44.133247593417764" lon="5.374311609193683"><ele></ele><time>2014-12-13T15:2:39Z</time></trkpt>
<trkpt lat="44.13338229060173" lon="5.374376568943262"><ele></ele><time>2014-12-13T15:2:42Z</time></trkpt>
<trkpt lat="44.13346200250089" lon="5.3744105994701385"><ele></ele><time>2014-12-13T15:2:45Z</time></trkpt>
<trkpt lat="44.13355872966349" lon="5.374456364661455"><ele></ele><time>2014-12-13T15:2:48Z</time></trkpt>
<trkpt lat="44.133644979447126" lon="5.374474469572306"><ele></ele><time>2014-12-13T15:2:51Z</time></trkpt>
<trkpt lat="44.133717231452465" lon="5.374494083225727"><ele></ele><time>2014-12-13T15:2:54Z</time></trkpt>
<trkpt lat="44.13384212180972" lon="5.374523755162954"><ele></ele><time>2014-12-13T15:2:57Z</time></trkpt>
<trkpt lat="44.13389090448618" lon="5.374530125409365"><ele></ele><time>2014-12-13T15:3:0Z</time></trkpt>
<trkpt lat="44.13402962498367" lon="5.374523000791669"><ele></ele><time>2014-12-13T15:3:3Z</time></trkpt>
<trkpt lat="44.13408092223108" lon="5.374499782919884"><ele></ele><time>2014-12-13T15:3:6Z</time></trkpt>
<trkpt lat="44.134236574172974" lon="5.37445854395628"><ele></ele><time>2014-12-13T15:3:9Z</time></trkpt>
<trkpt lat="44.134286865592" lon="5.374446976929903"><ele></ele><time>2014-12-13T15:3:12Z</time></trkpt>
<trkpt lat="44.134432543069124" lon="5.374419400468469"><ele></ele><time>2014-12-13T15:3:15Z</time></trkpt>
<trkpt lat="44.13448065519333" lon="5.3744041454046965"><ele></ele><time>2014-12-13T15:3:18Z</time></trkpt>
<trkpt lat="44.134660782292485" lon="5.374355111271143"><ele></ele><time>2014-12-13T15:3:21Z</time></trkpt>
<trkpt lat="44.13483118638396" lon="5.374307166785002"><ele></ele><time>2014-12-13T15:3:24Z</time></trkpt>
<trkpt lat="44.13485499098897" lon="5.3743010479956865"><ele></ele><time>2014-12-13T15:3:27Z</time></trkpt>
<trkpt lat="44.13501491770148" lon="5.374260228127241"><ele></ele><time>2014-12-13T15:3:30Z</time></trkpt>
<trkpt lat="44.13503830321133" lon="5.3742539416998625"><ele></ele><time>2014-12-13T15:3:33Z</time></trkpt>
<trkpt lat="44.13517501205206" lon="5.374220833182335"><ele></ele><time>2014-12-13T15:3:36Z</time></trkpt>
<trkpt lat="44.13526142947376" lon="5.374186635017395"><ele></ele><time>2014-12-13T15:3:39Z</time></trkpt>
<trkpt lat="44.135362012311816" lon="5.374167440459132"><ele></ele><time>2014-12-13T15:3:42Z</time></trkpt>
<trkpt lat="44.13540065288544" lon="5.374161070212722"><ele></ele><time>2014-12-13T15:3:45Z</time></trkpt>
<trkpt lat="44.13547122851014" lon="5.374078843742609"><ele></ele><time>2014-12-13T15:3:48Z</time></trkpt>
<trkpt lat="44.13549503311515" lon="5.374055625870824"><ele></ele><time>2014-12-13T15:3:51Z</time></trkpt>
<trkpt lat="44.13550911471248" lon="5.374039448797703"><ele></ele><time>2014-12-13T15:3:54Z</time></trkpt>
<trkpt lat="44.13549075834453" lon="5.37409502081573"><ele></ele><time>2014-12-13T15:3:57Z</time></trkpt>
<trkpt lat="44.135502660647035" lon="5.3741175681352615"><ele></ele><time>2014-12-13T15:4:0Z</time></trkpt>
<trkpt lat="44.13558631204069" lon="5.374107761308551"><ele></ele><time>2014-12-13T15:4:3Z</time></trkpt>
<trkpt lat="44.135610200464725" lon="5.374104408547282"><ele></ele><time>2014-12-13T15:4:6Z</time></trkpt>
<trkpt lat="44.13576249964535" lon="5.374067863449454"><ele></ele><time>2014-12-13T15:4:9Z</time></trkpt>
<trkpt lat="44.135784124955535" lon="5.374065851792693"><ele></ele><time>2014-12-13T15:4:12Z</time></trkpt>
<trkpt lat="44.13590784184635" lon="5.374033162370324"><ele></ele><time>2014-12-13T15:4:15Z</time></trkpt>
<trkpt lat="44.13597640581429" lon="5.374028803780675"><ele></ele><time>2014-12-13T15:4:18Z</time></trkpt>
<trkpt lat="44.1360189858824" lon="5.374029139056802"><ele></ele><time>2014-12-13T15:4:21Z</time></trkpt>
<trkpt lat="44.13608520291746" lon="5.374023355543613"><ele></ele><time>2014-12-13T15:4:24Z</time></trkpt>
<trkpt lat="44.13617447018623" lon="5.374017404392362"><ele></ele><time>2014-12-13T15:4:27Z</time></trkpt>
<trkpt lat="44.13630925118923" lon="5.373989995568991"><ele></ele><time>2014-12-13T15:4:30Z</time></trkpt>
<trkpt lat="44.1363488137722" lon="5.373965855687857"><ele></ele><time>2014-12-13T15:4:33Z</time></trkpt>
<trkpt lat="44.1364265140146" lon="5.37388488650322"><ele></ele><time>2014-12-13T15:4:36Z</time></trkpt>
<trkpt lat="44.13646062836051" lon="5.373798971995711"><ele></ele><time>2014-12-13T15:4:39Z</time></trkpt>
<trkpt lat="44.13647001609206" lon="5.373767372220755"><ele></ele><time>2014-12-13T15:4:42Z</time></trkpt>
<trkpt lat="44.1364680044353" lon="5.373609289526939"><ele></ele><time>2014-12-13T15:4:45Z</time></trkpt>
<trkpt lat="44.136455012485385" lon="5.373586909845471"><ele></ele><time>2014-12-13T15:4:48Z</time></trkpt>
<trkpt lat="44.13643389008939" lon="5.373534942045808"><ele></ele><time>2014-12-13T15:4:51Z</time></trkpt>
<trkpt lat="44.13641628809273" lon="5.37348766811192"><ele></ele><time>2014-12-13T15:4:54Z</time></trkpt>
<trkpt lat="44.13633146323264" lon="5.373396892100573"><ele></ele><time>2014-12-13T15:4:57Z</time></trkpt>
<trkpt lat="44.13630866445601" lon="5.373388594016433"><ele></ele><time>2014-12-13T15:5:0Z</time></trkpt>
<trkpt lat="44.13615234196186" lon="5.373336123302579"><ele></ele><time>2014-12-13T15:5:3Z</time></trkpt>
<trkpt lat="44.13610967807472" lon="5.373319778591394"><ele></ele><time>2014-12-13T15:5:6Z</time></trkpt>
<trkpt lat="44.13599878549576" lon="5.3732523042708635"><ele></ele><time>2014-12-13T15:5:9Z</time></trkpt>
<trkpt lat="44.13594849407673" lon="5.373215423896909"><ele></ele><time>2014-12-13T15:5:12Z</time></trkpt>
<trkpt lat="44.13584698922932" lon="5.373157421126962"><ele></ele><time>2014-12-13T15:5:15Z</time></trkpt>
<trkpt lat="44.13579711690545" lon="5.373115176334977"><ele></ele><time>2014-12-13T15:5:18Z</time></trkpt>
<trkpt lat="44.135734336450696" lon="5.373038901016116"><ele></ele><time>2014-12-13T15:5:21Z</time></trkpt>
<trkpt lat="44.135646326467395" lon="5.372952232137322"><ele></ele><time>2014-12-13T15:5:24Z</time></trkpt>
<trkpt lat="44.13563040085137" lon="5.3729321993887424"><ele></ele><time>2014-12-13T15:5:27Z</time></trkpt>
<trkpt lat="44.135495368391275" lon="5.372774703428149"><ele></ele><time>2014-12-13T15:5:30Z</time></trkpt>
<trkpt lat="44.13539780303836" lon="5.372661296278238"><ele></ele><time>2014-12-13T15:5:33Z</time></trkpt>
<trkpt lat="44.13534692488611" lon="5.372602790594101"><ele></ele><time>2014-12-13T15:5:36Z</time></trkpt>
<trkpt lat="44.1352401394397" lon="5.372463148087263"><ele></ele><time>2014-12-13T15:5:39Z</time></trkpt>
<trkpt lat="44.135181717574596" lon="5.372392572462559"><ele></ele><time>2014-12-13T15:5:42Z</time></trkpt>
<trkpt lat="44.13509245030582" lon="5.3722786623984575"><ele></ele><time>2014-12-13T15:5:45Z</time></trkpt>
<trkpt lat="44.135037548840046" lon="5.372194005176425"><ele></ele><time>2014-12-13T15:5:48Z</time></trkpt>
<trkpt lat="44.13485398516059" lon="5.371954198926687"><ele></ele><time>2014-12-13T15:5:51Z</time></trkpt>
<trkpt lat="44.134809309616685" lon="5.371895357966423"><ele></ele><time>2014-12-13T15:5:54Z</time></trkpt>
<trkpt lat="44.134618788957596" lon="5.371643984690309"><ele></ele><time>2014-12-13T15:5:57Z</time></trkpt>
<trkpt lat="44.13459657691419" lon="5.371620766818523"><ele></ele><time>2014-12-13T15:6:0Z</time></trkpt>
<trkpt lat="44.13441963493824" lon="5.371376099064946"><ele></ele><time>2014-12-13T15:6:3Z</time></trkpt>
<trkpt lat="44.1343492269516" lon="5.371156577020884"><ele></ele><time>2014-12-13T15:6:6Z</time></trkpt>
<trkpt lat="44.13434721529484" lon="5.37110997363925"><ele></ele><time>2014-12-13T15:6:9Z</time></trkpt>
<trkpt lat="44.134392058476806" lon="5.370887685567141"><ele></ele><time>2014-12-13T15:6:12Z</time></trkpt>
<trkpt lat="44.134513763710856" lon="5.370703283697367"><ele></ele><time>2014-12-13T15:6:15Z</time></trkpt>
<trkpt lat="44.1346063837409" lon="5.3706197161227465"><ele></ele><time>2014-12-13T15:6:18Z</time></trkpt>
<trkpt lat="44.13470352999866" lon="5.37055928260088"><ele></ele><time>2014-12-13T15:6:21Z</time></trkpt>
<trkpt lat="44.13483487442136" lon="5.370489293709397"><ele></ele><time>2014-12-13T15:6:24Z</time></trkpt>
<trkpt lat="44.13499530404806" lon="5.370371360331774"><ele></ele><time>2014-12-13T15:6:27Z</time></trkpt>
<trkpt lat="44.135029502213" lon="5.370346885174513"><ele></ele><time>2014-12-13T15:6:30Z</time></trkpt>
<trkpt lat="44.13516277447343" lon="5.37024806253612"><ele></ele><time>2014-12-13T15:6:33Z</time></trkpt>
<trkpt lat="44.13522815331817" lon="5.370206320658326"><ele></ele><time>2014-12-13T15:6:36Z</time></trkpt>
<trkpt lat="44.13525723852217" lon="5.370188802480698"><ele></ele><time>2014-12-13T15:6:39Z</time></trkpt>
<trkpt lat="44.13537634536624" lon="5.370069360360503"><ele></ele><time>2014-12-13T15:6:42Z</time></trkpt>
<trkpt lat="44.13543493486941" lon="5.370016386732459"><ele></ele><time>2014-12-13T15:6:45Z</time></trkpt>
<trkpt lat="44.13553870283067" lon="5.369965089485049"><ele></ele><time>2014-12-13T15:6:48Z</time></trkpt>
<trkpt lat="44.13563274778426" lon="5.369905410334468"><ele></ele><time>2014-12-13T15:6:51Z</time></trkpt>
<trkpt lat="44.13568924181163" lon="5.369861992076039"><ele></ele><time>2014-12-13T15:6:54Z</time></trkpt>
<trkpt lat="44.13581999950111" lon="5.369763001799583"><ele></ele><time>2014-12-13T15:6:57Z</time></trkpt>
<trkpt lat="44.135874984785914" lon="5.369731150567532"><ele></ele><time>2014-12-13T15:7:0Z</time></trkpt>
<trkpt lat="44.135956121608615" lon="5.369683708995581"><ele></ele><time>2014-12-13T15:7:3Z</time></trkpt>
<trkpt lat="44.136067600920796" lon="5.3696301486343145"><ele></ele><time>2014-12-13T15:7:6Z</time></trkpt>
<trkpt lat="44.13612979464233" lon="5.369611205533147"><ele></ele><time>2014-12-13T15:7:9Z</time></trkpt>
<trkpt lat="44.136255690827966" lon="5.369561333209276"><ele></ele><time>2014-12-13T15:7:12Z</time></trkpt>
<trkpt lat="44.136406648904085" lon="5.36951020359993"><ele></ele><time>2014-12-13T15:7:15Z</time></trkpt>
<trkpt lat="44.13642902858555" lon="5.369504168629646"><ele></ele><time>2014-12-13T15:7:18Z</time></trkpt>
<trkpt lat="44.13657512515783" lon="5.369473658502102"><ele></ele><time>2014-12-13T15:7:21Z</time></trkpt>
<trkpt lat="44.13664938881993" lon="5.369446417316794"><ele></ele><time>2014-12-13T15:7:24Z</time></trkpt>
<trkpt lat="44.13674737326801" lon="5.369421187788248"><ele></ele><time>2014-12-13T15:7:27Z</time></trkpt>
<trkpt lat="44.13681627251208" lon="5.369411380961537"><ele></ele><time>2014-12-13T15:7:30Z</time></trkpt>
<trkpt lat="44.13693663664162" lon="5.369373913854361"><ele></ele><time>2014-12-13T15:7:33Z</time></trkpt>
<trkpt lat="44.137026155367494" lon="5.369335021823645"><ele></ele><time>2014-12-13T15:7:36Z</time></trkpt>
<trkpt lat="44.13709228858352" lon="5.36931331269443"><ele></ele><time>2014-12-13T15:7:39Z</time></trkpt>
<trkpt lat="44.137214412912726" lon="5.369253549724817"><ele></ele><time>2014-12-13T15:7:42Z</time></trkpt>
<trkpt lat="44.137359503656626" lon="5.369189511984587"><ele></ele><time>2014-12-13T15:7:45Z</time></trkpt>
<trkpt lat="44.137476682662964" lon="5.369140645489097"><ele></ele><time>2014-12-13T15:7:48Z</time></trkpt>
<trkpt lat="44.137531919404864" lon="5.369095718488097"><ele></ele><time>2014-12-13T15:7:51Z</time></trkpt>
<trkpt lat="44.13756921887398" lon="5.369064789265394"><ele></ele><time>2014-12-13T15:7:54Z</time></trkpt>
<trkpt lat="44.137693690136075" lon="5.368940653279424"><ele></ele><time>2014-12-13T15:7:57Z</time></trkpt>
<trkpt lat="44.13771112449467" lon="5.368922967463732"><ele></ele><time>2014-12-13T15:8:0Z</time></trkpt>
<trkpt lat="44.13784632459283" lon="5.368763962760568"><ele></ele><time>2014-12-13T15:8:3Z</time></trkpt>
<trkpt lat="44.13795688189566" lon="5.368613172322512"><ele></ele><time>2014-12-13T15:8:6Z</time></trkpt>
<trkpt lat="44.13808009587228" lon="5.368461459875107"><ele></ele><time>2014-12-13T15:8:9Z</time></trkpt>
<trkpt lat="44.13824572227895" lon="5.368277980014682"><ele></ele><time>2014-12-13T15:8:12Z</time></trkpt>
<trkpt lat="44.138387963175774" lon="5.368153927847743"><ele></ele><time>2014-12-13T15:8:15Z</time></trkpt>
<trkpt lat="44.13845853880048" lon="5.368096679449081"><ele></ele><time>2014-12-13T15:8:18Z</time></trkpt>
<trkpt lat="44.13856649771333" lon="5.368045466020703"><ele></ele><time>2014-12-13T15:8:21Z</time></trkpt>
<trkpt lat="44.13864880800247" lon="5.368016632273793"><ele></ele><time>2014-12-13T15:8:24Z</time></trkpt>
<trkpt lat="44.13876456208527" lon="5.367948319762945"><ele></ele><time>2014-12-13T15:8:27Z</time></trkpt>
<trkpt lat="44.13883480243385" lon="5.367914205417037"><ele></ele><time>2014-12-13T15:8:30Z</time></trkpt>
<trkpt lat="44.13895784877241" lon="5.367872714996338"><ele></ele><time>2014-12-13T15:8:33Z</time></trkpt>
<trkpt lat="44.139007553458214" lon="5.367860812693834"><ele></ele><time>2014-12-13T15:8:36Z</time></trkpt>
<trkpt lat="44.13909271359444" lon="5.367845557630062"><ele></ele><time>2014-12-13T15:8:39Z</time></trkpt>
<trkpt lat="44.13912112824619" lon="5.367839187383652"><ele></ele><time>2014-12-13T15:8:42Z</time></trkpt>
<trkpt lat="44.139213832095265" lon="5.367828207090497"><ele></ele><time>2014-12-13T15:8:45Z</time></trkpt>
<trkpt lat="44.139307206496596" lon="5.367846814915538"><ele></ele><time>2014-12-13T15:8:48Z</time></trkpt>
<trkpt lat="44.13935221731663" lon="5.367853604257107"><ele></ele><time>2014-12-13T15:8:51Z</time></trkpt>
<trkpt lat="44.139514742419124" lon="5.367874056100845"><ele></ele><time>2014-12-13T15:8:54Z</time></trkpt>
<trkpt lat="44.13964566774666" lon="5.367881683632731"><ele></ele><time>2014-12-13T15:8:57Z</time></trkpt>
<trkpt lat="44.13967919535935" lon="5.367885958403349"><ele></ele><time>2014-12-13T15:9:0Z</time></trkpt>
<trkpt lat="44.13978237658739" lon="5.367915965616703"><ele></ele><time>2014-12-13T15:9:3Z</time></trkpt>
<trkpt lat="44.13982923142612" lon="5.367920910939574"><ele></ele><time>2014-12-13T15:9:6Z</time></trkpt>
<trkpt lat="44.13988136686385" lon="5.367920491844416"><ele></ele><time>2014-12-13T15:9:9Z</time></trkpt>
<trkpt lat="44.14000256918371" lon="5.367952007800341"><ele></ele><time>2014-12-13T15:9:12Z</time></trkpt>
<trkpt lat="44.14007155224681" lon="5.367982350289822"><ele></ele><time>2014-12-13T15:9:15Z</time></trkpt>
<trkpt lat="44.14018009789288" lon="5.368017638102174"><ele></ele><time>2014-12-13T15:9:18Z</time></trkpt>
<trkpt lat="44.14024539291859" lon="5.368033060804009"><ele></ele><time>2014-12-13T15:9:21Z</time></trkpt>
<trkpt lat="44.140322506427765" lon="5.3680727910250425"><ele></ele><time>2014-12-13T15:9:24Z</time></trkpt>
<trkpt lat="44.140384029597044" lon="5.368114449083805"><ele></ele><time>2014-12-13T15:9:27Z</time></trkpt>
<trkpt lat="44.140453515574336" lon="5.368167087435722"><ele></ele><time>2014-12-13T15:9:30Z</time></trkpt>
<trkpt lat="44.1405382566154" lon="5.368199776858091"><ele></ele><time>2014-12-13T15:9:33Z</time></trkpt>
<trkpt lat="44.140578489750624" lon="5.368213942274451"><ele></ele><time>2014-12-13T15:9:36Z</time></trkpt>
<trkpt lat="44.14069600403309" lon="5.3682562708854675"><ele></ele><time>2014-12-13T15:9:39Z</time></trkpt>
<trkpt lat="44.14084327407181" lon="5.368382753804326"><ele></ele><time>2014-12-13T15:9:42Z</time></trkpt>
<trkpt lat="44.14088845252991" lon="5.3684167843312025"><ele></ele><time>2014-12-13T15:9:45Z</time></trkpt>
<trkpt lat="44.140954250469804" lon="5.36846405826509"><ele></ele><time>2014-12-13T15:9:48Z</time></trkpt>
<trkpt lat="44.141002194955945" lon="5.368477888405323"><ele></ele><time>2014-12-13T15:9:51Z</time></trkpt>
<trkpt lat="44.141036393120885" lon="5.368511583656073"><ele></ele><time>2014-12-13T15:9:54Z</time></trkpt>
<trkpt lat="44.14110202342272" lon="5.368583416566253"><ele></ele><time>2014-12-13T15:9:57Z</time></trkpt>
<trkpt lat="44.141132114455104" lon="5.368626331910491"><ele></ele><time>2014-12-13T15:10:0Z</time></trkpt>
<trkpt lat="44.14118181914091" lon="5.368682574480772"><ele></ele><time>2014-12-13T15:10:3Z</time></trkpt>
<trkpt lat="44.14121450856328" lon="5.368712581694126"><ele></ele><time>2014-12-13T15:10:6Z</time></trkpt>
<trkpt lat="44.14130721241236" lon="5.368863875046372"><ele></ele><time>2014-12-13T15:10:9Z</time></trkpt>
<trkpt lat="44.141338393092155" lon="5.368897570297122"><ele></ele><time>2014-12-13T15:10:12Z</time></trkpt>
<trkpt lat="44.14141047745943" lon="5.369005696848035"><ele></ele><time>2014-12-13T15:10:15Z</time></trkpt>
<trkpt lat="44.14142665453255" lon="5.36902598105371"><ele></ele><time>2014-12-13T15:10:18Z</time></trkpt>
<trkpt lat="44.14149563759565" lon="5.369189595803618"><ele></ele><time>2014-12-13T15:10:21Z</time></trkpt>
<trkpt lat="44.14161239750683" lon="5.369344912469387"><ele></ele><time>2014-12-13T15:10:24Z</time></trkpt>
<trkpt lat="44.14162999950349" lon="5.3693686332553625"><ele></ele><time>2014-12-13T15:10:27Z</time></trkpt>
<trkpt lat="44.141718093305826" lon="5.369547251611948"><ele></ele><time>2014-12-13T15:10:30Z</time></trkpt>
<trkpt lat="44.1417296603322" lon="5.369576420634985"><ele></ele><time>2014-12-13T15:10:33Z</time></trkpt>
<trkpt lat="44.14178363978863" lon="5.369763001799583"><ele></ele><time>2014-12-13T15:10:36Z</time></trkpt>
<trkpt lat="44.14178766310215" lon="5.369792506098747"><ele></ele><time>2014-12-13T15:10:39Z</time></trkpt>
<trkpt lat="44.1418263874948" lon="5.369993168860674"><ele></ele><time>2014-12-13T15:10:42Z</time></trkpt>
<trkpt lat="44.14183401502669" lon="5.370025942102075"><ele></ele><time>2014-12-13T15:10:45Z</time></trkpt>
<trkpt lat="44.14188816212118" lon="5.370248733088374"><ele></ele><time>2014-12-13T15:10:48Z</time></trkpt>
<trkpt lat="44.14189176633954" lon="5.370269101113081"><ele></ele><time>2014-12-13T15:10:51Z</time></trkpt>
<trkpt lat="44.141931077465415" lon="5.370432715862989"><ele></ele><time>2014-12-13T15:10:54Z</time></trkpt>
<trkpt lat="44.141980949789286" lon="5.3705669939517975"><ele></ele><time>2014-12-13T15:10:57Z</time></trkpt>
<trkpt lat="44.14206870831549" lon="5.370630780234933"><ele></ele><time>2014-12-13T15:11:0Z</time></trkpt>
<trkpt lat="44.14213299751282" lon="5.370668498799205"><ele></ele><time>2014-12-13T15:11:3Z</time></trkpt>
<trkpt lat="44.14221270941198" lon="5.370670510455966"><ele></ele><time>2014-12-13T15:11:6Z</time></trkpt>
<trkpt lat="44.14233399555087" lon="5.370604041963816"><ele></ele><time>2014-12-13T15:11:9Z</time></trkpt>
<trkpt lat="44.14239224977791" lon="5.370525922626257"><ele></ele><time>2014-12-13T15:11:12Z</time></trkpt>
<trkpt lat="44.14246249012649" lon="5.37042441777885"><ele></ele><time>2014-12-13T15:11:15Z</time></trkpt>
<trkpt lat="44.1425277851522" lon="5.370322912931442"><ele></ele><time>2014-12-13T15:11:18Z</time></trkpt>
<trkpt lat="44.1425846144557" lon="5.37021872587502"><ele></ele><time>2014-12-13T15:11:21Z</time></trkpt>
<trkpt lat="44.14259685203433" lon="5.370186287909746"><ele></ele><time>2014-12-13T15:11:24Z</time></trkpt>
<trkpt lat="44.142623422667384" lon="5.37000029347837"><ele></ele><time>2014-12-13T15:11:27Z</time></trkpt>
<trkpt lat="44.14263096638024" lon="5.36988596431911"><ele></ele><time>2014-12-13T15:11:30Z</time></trkpt>
<trkpt lat="44.142638593912125" lon="5.369634842500091"><ele></ele><time>2014-12-13T15:11:33Z</time></trkpt>
<trkpt lat="44.142639096826315" lon="5.369557561352849"><ele></ele><time>2014-12-13T15:11:36Z</time></trkpt>
<trkpt lat="44.142655776813626" lon="5.36936997435987"><ele></ele><time>2014-12-13T15:11:39Z</time></trkpt>
<trkpt lat="44.14265971630812" lon="5.36932940594852"><ele></ele><time>2014-12-13T15:11:42Z</time></trkpt>
<trkpt lat="44.14267455227673" lon="5.3690882585942745"><ele></ele><time>2014-12-13T15:11:45Z</time></trkpt>
<trkpt lat="44.14268192835152" lon="5.369012989103794"><ele></ele><time>2014-12-13T15:11:48Z</time></trkpt>
<trkpt lat="44.14269701577723" lon="5.368858091533184"><ele></ele><time>2014-12-13T15:11:51Z</time></trkpt>
<trkpt lat="44.142711432650685" lon="5.368665307760239"><ele></ele><time>2014-12-13T15:11:54Z</time></trkpt>
<trkpt lat="44.14271520450711" lon="5.368596240878105"><ele></ele><time>2014-12-13T15:11:57Z</time></trkpt>
<trkpt lat="44.142737332731485" lon="5.368446791544557"><ele></ele><time>2014-12-13T15:12:0Z</time></trkpt>
<trkpt lat="44.14275770075619" lon="5.368293570354581"><ele></ele><time>2014-12-13T15:12:3Z</time></trkpt>
<trkpt lat="44.14278745651245" lon="5.368135152384639"><ele></ele><time>2014-12-13T15:12:6Z</time></trkpt>
<trkpt lat="44.142843782901764" lon="5.367943374440074"><ele></ele><time>2014-12-13T15:12:9Z</time></trkpt>
<trkpt lat="44.14287722669542" lon="5.3678669314831495"><ele></ele><time>2014-12-13T15:12:12Z</time></trkpt>
<trkpt lat="44.142959201708436" lon="5.367708094418049"><ele></ele><time>2014-12-13T15:12:15Z</time></trkpt>
<trkpt lat="44.14302323944867" lon="5.36760114133358"><ele></ele><time>2014-12-13T15:12:18Z</time></trkpt>
<trkpt lat="44.14317109622061" lon="5.367391761392355"><ele></ele><time>2014-12-13T15:12:21Z</time></trkpt>
<trkpt lat="44.143191799521446" lon="5.367363514378667"><ele></ele><time>2014-12-13T15:12:24Z</time></trkpt>
<trkpt lat="44.14329883642495" lon="5.367222279310226"><ele></ele><time>2014-12-13T15:12:27Z</time></trkpt>
<trkpt lat="44.14332180283964" lon="5.36719461902976"><ele></ele><time>2014-12-13T15:12:30Z</time></trkpt>
<trkpt lat="44.14342448115349" lon="5.367094874382019"><ele></ele><time>2014-12-13T15:12:33Z</time></trkpt>
<trkpt lat="44.143499080091715" lon="5.367023628205061"><ele></ele><time>2014-12-13T15:12:36Z</time></trkpt>
<trkpt lat="44.14359404705465" lon="5.366947604343295"><ele></ele><time>2014-12-13T15:12:39Z</time></trkpt>
<trkpt lat="44.143796721473336" lon="5.366804860532284"><ele></ele><time>2014-12-13T15:12:42Z</time></trkpt>
<trkpt lat="44.14402646943927" lon="5.366671672090888"><ele></ele><time>2014-12-13T15:12:45Z</time></trkpt>
<trkpt lat="44.14421455934644" lon="5.3665973246097565"><ele></ele><time>2014-12-13T15:12:48Z</time></trkpt>
<trkpt lat="44.14429276250303" lon="5.366579806432128"><ele></ele><time>2014-12-13T15:12:51Z</time></trkpt>
<trkpt lat="44.14442393928766" lon="5.366551307961345"><ele></ele><time>2014-12-13T15:12:54Z</time></trkpt>
<trkpt lat="44.14445009082556" lon="5.366547033190727"><ele></ele><time>2014-12-13T15:12:57Z</time></trkpt>
<trkpt lat="44.14458654820919" lon="5.366527084261179"><ele></ele><time>2014-12-13T15:13:0Z</time></trkpt>
<trkpt lat="44.14476474747062" lon="5.366507386788726"><ele></ele><time>2014-12-13T15:13:3Z</time></trkpt>
<trkpt lat="44.144942527636886" lon="5.366507386788726"><ele></ele><time>2014-12-13T15:13:6Z</time></trkpt>
<trkpt lat="44.14496775716543" lon="5.366507722064853"><ele></ele><time>2014-12-13T15:13:9Z</time></trkpt>
<trkpt lat="44.14513464085758" lon="5.36651786416769"><ele></ele><time>2014-12-13T15:13:12Z</time></trkpt>
<trkpt lat="44.14515618234873" lon="5.366523060947657"><ele></ele><time>2014-12-13T15:13:15Z</time></trkpt>
<trkpt lat="44.14530873298645" lon="5.366537561640143"><ele></ele><time>2014-12-13T15:13:18Z</time></trkpt>
<trkpt lat="44.145329520106316" lon="5.366542926058173"><ele></ele><time>2014-12-13T15:13:21Z</time></trkpt>
<trkpt lat="44.14548257365823" lon="5.36655155941844"><ele></ele><time>2014-12-13T15:13:24Z</time></trkpt>
<trkpt lat="44.145507300272584" lon="5.36655155941844"><ele></ele><time>2014-12-13T15:13:27Z</time></trkpt>
<trkpt lat="44.145656330510974" lon="5.366549463942647"><ele></ele><time>2014-12-13T15:13:30Z</time></trkpt>
<trkpt lat="44.14568315260112" lon="5.36654376424849"><ele></ele><time>2014-12-13T15:13:33Z</time></trkpt>
<trkpt lat="44.14578365162015" lon="5.36650612950325"><ele></ele><time>2014-12-13T15:13:36Z</time></trkpt>
<trkpt lat="44.14583017118275" lon="5.366465141996741"><ele></ele><time>2014-12-13T15:13:39Z</time></trkpt>
<trkpt lat="44.145847437903285" lon="5.366444690153003"><ele></ele><time>2014-12-13T15:13:42Z</time></trkpt>
<trkpt lat="44.14587065577507" lon="5.36639180034399"><ele></ele><time>2014-12-13T15:13:45Z</time></trkpt>
<trkpt lat="44.145866045728326" lon="5.3663284331560135"><ele></ele><time>2014-12-13T15:13:48Z</time></trkpt>
<trkpt lat="44.14578868076205" lon="5.366183510050178"><ele></ele><time>2014-12-13T15:13:51Z</time></trkpt>
<trkpt lat="44.14572791196406" lon="5.366080245003104"><ele></ele><time>2014-12-13T15:13:54Z</time></trkpt>
<trkpt lat="44.145629005506635" lon="5.365886203944683"><ele></ele><time>2014-12-13T15:13:57Z</time></trkpt>
<trkpt lat="44.145559184253216" lon="5.365717560052872"><ele></ele><time>2014-12-13T15:14:0Z</time></trkpt>
<trkpt lat="44.14550889283419" lon="5.365592921152711"><ele></ele><time>2014-12-13T15:14:3Z</time></trkpt>
<trkpt lat="44.14545298554003" lon="5.365476915612817"><ele></ele><time>2014-12-13T15:14:6Z</time></trkpt>
<trkpt lat="44.14535064250231" lon="5.365286394953728"><ele></ele><time>2014-12-13T15:14:9Z</time></trkpt>
<trkpt lat="44.14533019065857" lon="5.365252196788788"><ele></ele><time>2014-12-13T15:14:12Z</time></trkpt>
<trkpt lat="44.14518468081951" lon="5.364968553185463"><ele></ele><time>2014-12-13T15:14:15Z</time></trkpt>
<trkpt lat="44.14516607299447" lon="5.364928068593144"><ele></ele><time>2014-12-13T15:14:18Z</time></trkpt>
<trkpt lat="44.145089043304324" lon="5.364730088040233"><ele></ele><time>2014-12-13T15:14:21Z</time></trkpt>
<trkpt lat="44.14505610242486" lon="5.364613914862275"><ele></ele><time>2014-12-13T15:14:24Z</time></trkpt>
<trkpt lat="44.14503891952336" lon="5.364392213523388"><ele></ele><time>2014-12-13T15:14:27Z</time></trkpt>
<trkpt lat="44.14504637941718" lon="5.364307472482324"><ele></ele><time>2014-12-13T15:14:30Z</time></trkpt>
<trkpt lat="44.145126761868596" lon="5.364059200510383"><ele></ele><time>2014-12-13T15:14:33Z</time></trkpt>
<trkpt lat="44.14529792033136" lon="5.363788716495037"><ele></ele><time>2014-12-13T15:14:36Z</time></trkpt>
<trkpt lat="44.145483411848545" lon="5.36357237957418"><ele></ele><time>2014-12-13T15:14:39Z</time></trkpt>
<trkpt lat="44.145577289164066" lon="5.363468611612916"><ele></ele><time>2014-12-13T15:14:42Z</time></trkpt>
<trkpt lat="44.145643254742026" lon="5.363399628549814"><ele></ele><time>2014-12-13T15:14:45Z</time></trkpt>
<trkpt lat="44.14577795192599" lon="5.3633070923388"><ele></ele><time>2014-12-13T15:14:48Z</time></trkpt>
<trkpt lat="44.14582271128893" lon="5.3632979560643435"><ele></ele><time>2014-12-13T15:14:51Z</time></trkpt>
<trkpt lat="44.14589856751263" lon="5.363268284127116"><ele></ele><time>2014-12-13T15:14:54Z</time></trkpt>
<trkpt lat="44.14590049535036" lon="5.363293178379536"><ele></ele><time>2014-12-13T15:14:57Z</time></trkpt>
<trkpt lat="44.14588440209627" lon="5.363334836438298"><ele></ele><time>2014-12-13T15:15:0Z</time></trkpt>
<trkpt lat="44.1458554007113" lon="5.363432401791215"><ele></ele><time>2014-12-13T15:15:3Z</time></trkpt>
<trkpt lat="44.14584232494235" lon="5.363497277721763"><ele></ele><time>2014-12-13T15:15:6Z</time></trkpt>
<trkpt lat="44.14578868076205" lon="5.363687966018915"><ele></ele><time>2014-12-13T15:15:9Z</time></trkpt>
<trkpt lat="44.14578038267791" lon="5.363869769498706"><ele></ele><time>2014-12-13T15:15:12Z</time></trkpt>
<trkpt lat="44.14578038267791" lon="5.363900950178504"><ele></ele><time>2014-12-13T15:15:15Z</time></trkpt>
<trkpt lat="44.14581399410963" lon="5.364081831648946"><ele></ele><time>2014-12-13T15:15:18Z</time></trkpt>
<trkpt lat="44.1458189394325" lon="5.364104462787509"><ele></ele><time>2014-12-13T15:15:21Z</time></trkpt>
<trkpt lat="44.145861184224486" lon="5.3642638027668"><ele></ele><time>2014-12-13T15:15:24Z</time></trkpt>
<trkpt lat="44.14586219005287" lon="5.36428140476346"><ele></ele><time>2014-12-13T15:15:27Z</time></trkpt>
<trkpt lat="44.145909044891596" lon="5.364336222410202"><ele></ele><time>2014-12-13T15:15:30Z</time></trkpt>
<trkpt lat="44.14593502879143" lon="5.364354662597179"><ele></ele><time>2014-12-13T15:15:33Z</time></trkpt>
<trkpt lat="44.14600241929293" lon="5.3644482884556055"><ele></ele><time>2014-12-13T15:15:36Z</time></trkpt>
<trkpt lat="44.146021110937" lon="5.364475026726723"><ele></ele><time>2014-12-13T15:15:39Z</time></trkpt>
<trkpt lat="44.14602748118341" lon="5.364491958171129"><ele></ele><time>2014-12-13T15:15:42Z</time></trkpt>
<trkpt lat="44.14607400074601" lon="5.3645642939955"><ele></ele><time>2014-12-13T15:15:45Z</time></trkpt>
<trkpt lat="44.14618690498173" lon="5.364699242636561"><ele></ele><time>2014-12-13T15:15:48Z</time></trkpt>
<trkpt lat="44.14619981311262" lon="5.364716090261936"><ele></ele><time>2014-12-13T15:15:51Z</time></trkpt>
<trkpt lat="44.14626904763281" lon="5.364805608987808"><ele></ele><time>2014-12-13T15:15:54Z</time></trkpt>
<trkpt lat="44.146309196949005" lon="5.364843495190144"><ele></ele><time>2014-12-13T15:15:57Z</time></trkpt>
<trkpt lat="44.14646392688155" lon="5.365002164617181"><ele></ele><time>2014-12-13T15:16:0Z</time></trkpt>
<trkpt lat="44.1464804392308" lon="5.365010965615511"><ele></ele><time>2014-12-13T15:16:3Z</time></trkpt>
<trkpt lat="44.146571047604084" lon="5.365059664472938"><ele></ele><time>2014-12-13T15:16:6Z</time></trkpt>
<trkpt lat="44.14658730849624" lon="5.365067459642887"><ele></ele><time>2014-12-13T15:16:9Z</time></trkpt>
<trkpt lat="44.146685460582376" lon="5.365087995305657"><ele></ele><time>2014-12-13T15:16:12Z</time></trkpt>
<trkpt lat="44.146732315421104" lon="5.365094030275941"><ele></ele><time>2014-12-13T15:16:15Z</time></trkpt>
<trkpt lat="44.14674689993262" lon="5.365098640322685"><ele></ele><time>2014-12-13T15:16:18Z</time></trkpt>
<trkpt lat="44.14677841588855" lon="5.365117834880948"><ele></ele><time>2014-12-13T15:16:21Z</time></trkpt>
<trkpt lat="44.146857876330614" lon="5.365118170157075"><ele></ele><time>2014-12-13T15:16:24Z</time></trkpt>
<trkpt lat="44.14687438867986" lon="5.365125210955739"><ele></ele><time>2014-12-13T15:16:27Z</time></trkpt>
<trkpt lat="44.146891152486205" lon="5.365133928135037"><ele></ele><time>2014-12-13T15:16:30Z</time></trkpt>
<trkpt lat="44.14695426821709" lon="5.365162258967757"><ele></ele><time>2014-12-13T15:16:33Z</time></trkpt>
<trkpt lat="44.14702082052827" lon="5.365181872621179"><ele></ele><time>2014-12-13T15:16:36Z</time></trkpt>
<trkpt lat="44.147092988714576" lon="5.365196457132697"><ele></ele><time>2014-12-13T15:16:39Z</time></trkpt>
<trkpt lat="44.14714252576232" lon="5.3652190044522285"><ele></ele><time>2014-12-13T15:16:42Z</time></trkpt>
<trkpt lat="44.14720522239804" lon="5.365256555378437"><ele></ele><time>2014-12-13T15:16:45Z</time></trkpt>
<trkpt lat="44.1472540050745" lon="5.365313803777099"><ele></ele><time>2014-12-13T15:16:48Z</time></trkpt>
<trkpt lat="44.14728661067784" lon="5.365359149873257"><ele></ele><time>2014-12-13T15:16:51Z</time></trkpt>
<trkpt lat="44.14732776582241" lon="5.365459732711315"><ele></ele><time>2014-12-13T15:16:54Z</time></trkpt>
<trkpt lat="44.14733589626849" lon="5.36547658033669"><ele></ele><time>2014-12-13T15:16:57Z</time></trkpt>
<trkpt lat="44.147362215444446" lon="5.365589065477252"><ele></ele><time>2014-12-13T15:17:0Z</time></trkpt>
<trkpt lat="44.14737369865179" lon="5.365650923922658"><ele></ele><time>2014-12-13T15:17:3Z</time></trkpt>
<trkpt lat="44.14737889543176" lon="5.36572577431798"><ele></ele><time>2014-12-13T15:17:6Z</time></trkpt>
<trkpt lat="44.14739331230521" lon="5.365802301093936"><ele></ele><time>2014-12-13T15:17:9Z</time></trkpt>
<trkpt lat="44.14739306084812" lon="5.365845300257206"><ele></ele><time>2014-12-13T15:17:12Z</time></trkpt>
<trkpt lat="44.14739700034261" lon="5.36590707488358"><ele></ele><time>2014-12-13T15:17:15Z</time></trkpt>
<trkpt lat="44.14741233922541" lon="5.365957366302609"><ele></ele><time>2014-12-13T15:17:18Z</time></trkpt>
<trkpt lat="44.147416530177" lon="5.365975722670555"><ele></ele><time>2014-12-13T15:17:21Z</time></trkpt>
<trkpt lat="44.147456008940935" lon="5.366175714880228"><ele></ele><time>2014-12-13T15:17:24Z</time></trkpt>
<trkpt lat="44.14746564812958" lon="5.366333043202758"><ele></ele><time>2014-12-13T15:17:27Z</time></trkpt>
<trkpt lat="44.147480903193355" lon="5.36646799184382"><ele></ele><time>2014-12-13T15:17:30Z</time></trkpt>
<trkpt lat="44.14751887321472" lon="5.366625571623445"><ele></ele><time>2014-12-13T15:17:33Z</time></trkpt>
<trkpt lat="44.147540498524904" lon="5.3666977398097515"><ele></ele><time>2014-12-13T15:17:36Z</time></trkpt>
<trkpt lat="44.14758048020303" lon="5.366808800026774"><ele></ele><time>2014-12-13T15:17:39Z</time></trkpt>
<trkpt lat="44.1475925501436" lon="5.366854062303901"><ele></ele><time>2014-12-13T15:17:42Z</time></trkpt>
<trkpt lat="44.147635381668806" lon="5.366970654577017"><ele></ele><time>2014-12-13T15:17:45Z</time></trkpt>
<trkpt lat="44.147665556520224" lon="5.367060005664825"><ele></ele><time>2014-12-13T15:17:48Z</time></trkpt>
<trkpt lat="44.147690031677485" lon="5.367095964029431"><ele></ele><time>2014-12-13T15:17:51Z</time></trkpt>
<trkpt lat="44.14773680269718" lon="5.367153128609061"><ele></ele><time>2014-12-13T15:17:54Z</time></trkpt>
<trkpt lat="44.14775289595127" lon="5.367184644564986"><ele></ele><time>2014-12-13T15:17:57Z</time></trkpt>
<trkpt lat="44.14776228368282" lon="5.367201743647456"><ele></ele><time>2014-12-13T15:18:0Z</time></trkpt>
<trkpt lat="44.14783537387848" lon="5.36735194735229"><ele></ele><time>2014-12-13T15:18:3Z</time></trkpt>
<trkpt lat="44.147861609235406" lon="5.367449009791017"><ele></ele><time>2014-12-13T15:18:6Z</time></trkpt>
<trkpt lat="44.147886000573635" lon="5.367537774145603"><ele></ele><time>2014-12-13T15:18:9Z</time></trkpt>
<trkpt lat="44.14792304858565" lon="5.367624526843429"><ele></ele><time>2014-12-13T15:18:12Z</time></trkpt>
<trkpt lat="44.147954899817705" lon="5.367706334218383"><ele></ele><time>2014-12-13T15:18:15Z</time></trkpt>
<trkpt lat="44.14797526784241" lon="5.367774898186326"><ele></ele><time>2014-12-13T15:18:18Z</time></trkpt>
<trkpt lat="44.14799379184842" lon="5.367898363620043"><ele></ele><time>2014-12-13T15:18:21Z</time></trkpt>
<trkpt lat="44.14799907244742" lon="5.3679552767425776"><ele></ele><time>2014-12-13T15:18:24Z</time></trkpt>
<trkpt lat="44.14801809936762" lon="5.368065079674125"><ele></ele><time>2014-12-13T15:18:27Z</time></trkpt>
<trkpt lat="44.148027235642076" lon="5.368120651692152"><ele></ele><time>2014-12-13T15:18:30Z</time></trkpt>
<trkpt lat="44.14805380627513" lon="5.368276387453079"><ele></ele><time>2014-12-13T15:18:33Z</time></trkpt>
<trkpt lat="44.148074174299836" lon="5.368332294747233"><ele></ele><time>2014-12-13T15:18:36Z</time></trkpt>
<trkpt lat="44.14808641187847" lon="5.368396332487464"><ele></ele><time>2014-12-13T15:18:39Z</time></trkpt>
<trkpt lat="44.14810946211219" lon="5.368480319157243"><ele></ele><time>2014-12-13T15:18:42Z</time></trkpt>
<trkpt lat="44.14812756702304" lon="5.368548044934869"><ele></ele><time>2014-12-13T15:18:45Z</time></trkpt>
<trkpt lat="44.148135697469115" lon="5.368647538125515"><ele></ele><time>2014-12-13T15:18:48Z</time></trkpt>
<trkpt lat="44.148109294474125" lon="5.368689363822341"><ele></ele><time>2014-12-13T15:18:51Z</time></trkpt>
<trkpt lat="44.148099990561604" lon="5.368711156770587"><ele></ele><time>2014-12-13T15:18:54Z</time></trkpt>
<trkpt lat="44.14808850735426" lon="5.368757760152221"><ele></ele><time>2014-12-13T15:18:57Z</time></trkpt>
<trkpt lat="44.14806202054024" lon="5.368840908631682"><ele></ele><time>2014-12-13T15:19:0Z</time></trkpt>
<trkpt lat="44.14802262559533" lon="5.368920536711812"><ele></ele><time>2014-12-13T15:19:3Z</time></trkpt>
<trkpt lat="44.14798867888749" lon="5.368987927213311"><ele></ele><time>2014-12-13T15:19:6Z</time></trkpt>
<trkpt lat="44.14794098585844" lon="5.369135364890099"><ele></ele><time>2014-12-13T15:19:9Z</time></trkpt>
<trkpt lat="44.14792179130018" lon="5.369180124253035"><ele></ele><time>2014-12-13T15:19:12Z</time></trkpt>
<trkpt lat="44.14789404720068" lon="5.369324963539839"><ele></ele><time>2014-12-13T15:19:15Z</time></trkpt>
<trkpt lat="44.14789597503841" lon="5.36942470818758"><ele></ele><time>2014-12-13T15:19:18Z</time></trkpt>
<trkpt lat="44.14788885042071" lon="5.369580276310444"><ele></ele><time>2014-12-13T15:19:21Z</time></trkpt>
<trkpt lat="44.147916845977306" lon="5.369682116433978"><ele></ele><time>2014-12-13T15:19:24Z</time></trkpt>
<trkpt lat="44.14792866446078" lon="5.369732826948166"><ele></ele><time>2014-12-13T15:19:27Z</time></trkpt>
<trkpt lat="44.147943668067455" lon="5.369808012619615"><ele></ele><time>2014-12-13T15:19:30Z</time></trkpt>
<trkpt lat="44.14796604774892" lon="5.369910104200244"><ele></ele><time>2014-12-13T15:19:33Z</time></trkpt>
<trkpt lat="44.148008627817035" lon="5.370025523006916"><ele></ele><time>2014-12-13T15:19:36Z</time></trkpt>
<trkpt lat="44.14804274216294" lon="5.370112946256995"><ele></ele><time>2014-12-13T15:19:39Z</time></trkpt>
<trkpt lat="44.148053135722876" lon="5.3701375890523195"><ele></ele><time>2014-12-13T15:19:42Z</time></trkpt>
<trkpt lat="44.14809186011553" lon="5.37024755962193"><ele></ele><time>2014-12-13T15:19:45Z</time></trkpt>
<trkpt lat="44.14809990674257" lon="5.370269855484366"><ele></ele><time>2014-12-13T15:19:48Z</time></trkpt>
<trkpt lat="44.1481277346611" lon="5.370359709486365"><ele></ele><time>2014-12-13T15:19:51Z</time></trkpt>
<trkpt lat="44.1481520421803" lon="5.370423160493374"><ele></ele><time>2014-12-13T15:19:54Z</time></trkpt>
<trkpt lat="44.148167883977294" lon="5.370466075837612"><ele></ele><time>2014-12-13T15:19:57Z</time></trkpt>
<trkpt lat="44.148172326385975" lon="5.370488874614239"><ele></ele><time>2014-12-13T15:20:0Z</time></trkpt>
<trkpt lat="44.1482038423419" lon="5.370608484372497"><ele></ele><time>2014-12-13T15:20:3Z</time></trkpt>
<trkpt lat="44.14821616373956" lon="5.37062868475914"><ele></ele><time>2014-12-13T15:20:6Z</time></trkpt>
<trkpt lat="44.148268550634384" lon="5.37076011300087"><ele></ele><time>2014-12-13T15:20:9Z</time></trkpt>
<trkpt lat="44.14829704910517" lon="5.370834041386843"><ele></ele><time>2014-12-13T15:20:12Z</time></trkpt>
<trkpt lat="44.14835278876126" lon="5.370963960886002"><ele></ele><time>2014-12-13T15:20:15Z</time></trkpt>
<trkpt lat="44.148362847045064" lon="5.370984999462962"><ele></ele><time>2014-12-13T15:20:18Z</time></trkpt>
<trkpt lat="44.14841674268246" lon="5.371102346107364"><ele></ele><time>2014-12-13T15:20:21Z</time></trkpt>
<trkpt lat="44.148441134020686" lon="5.371148027479649"><ele></ele><time>2014-12-13T15:20:24Z</time></trkpt>
<trkpt lat="44.14853719063103" lon="5.371291106566787"><ele></ele><time>2014-12-13T15:20:27Z</time></trkpt>
<trkpt lat="44.148637438192964" lon="5.371427899226546"><ele></ele><time>2014-12-13T15:20:30Z</time></trkpt>
<trkpt lat="44.14864791557193" lon="5.371444746851921"><ele></ele><time>2014-12-13T15:20:33Z</time></trkpt>
<trkpt lat="44.14874925278127" lon="5.371588412672281"><ele></ele><time>2014-12-13T15:20:36Z</time></trkpt>
<trkpt lat="44.14882988668978" lon="5.37172319367528"><ele></ele><time>2014-12-13T15:20:39Z</time></trkpt>
<trkpt lat="44.14894220419228" lon="5.371863339096308"><ele></ele><time>2014-12-13T15:20:42Z</time></trkpt>
<trkpt lat="44.14901797659695" lon="5.371971046552062"><ele></ele><time>2014-12-13T15:20:45Z</time></trkpt>
<trkpt lat="44.14903566241264" lon="5.372014380991459"><ele></ele><time>2014-12-13T15:20:48Z</time></trkpt>
<trkpt lat="44.14912576787174" lon="5.3721141256392"><ele></ele><time>2014-12-13T15:20:51Z</time></trkpt>
<trkpt lat="44.149147644639015" lon="5.372154610231519"><ele></ele><time>2014-12-13T15:20:54Z</time></trkpt>
<trkpt lat="44.14921344257891" lon="5.372245134785771"><ele></ele><time>2014-12-13T15:20:57Z</time></trkpt>
<trkpt lat="44.14926130324602" lon="5.372325936332345"><ele></ele><time>2014-12-13T15:21:0Z</time></trkpt>
<trkpt lat="44.14928426966071" lon="5.372388968244195"><ele></ele><time>2014-12-13T15:21:3Z</time></trkpt>
<trkpt lat="44.14929659105837" lon="5.3724088333547115"><ele></ele><time>2014-12-13T15:21:6Z</time></trkpt>
<trkpt lat="44.14936322718859" lon="5.37250891327858"><ele></ele><time>2014-12-13T15:21:9Z</time></trkpt>
<trkpt lat="44.149398850277066" lon="5.372588876634836"><ele></ele><time>2014-12-13T15:21:12Z</time></trkpt>
<trkpt lat="44.149427181109786" lon="5.372671606019139"><ele></ele><time>2014-12-13T15:21:15Z</time></trkpt>
<trkpt lat="44.14943371899426" lon="5.372715527191758"><ele></ele><time>2014-12-13T15:21:18Z</time></trkpt>
<trkpt lat="44.149470599368215" lon="5.372799094766378"><ele></ele><time>2014-12-13T15:21:21Z</time></trkpt>
<trkpt lat="44.14952206425369" lon="5.372897582128644"><ele></ele><time>2014-12-13T15:21:24Z</time></trkpt>
<trkpt lat="44.149537570774555" lon="5.3729327861219645"><ele></ele><time>2014-12-13T15:21:27Z</time></trkpt>
<trkpt lat="44.1495733615011" lon="5.373113416135311"><ele></ele><time>2014-12-13T15:21:30Z</time></trkpt>
<trkpt lat="44.14960755966604" lon="5.373288346454501"><ele></ele><time>2014-12-13T15:21:33Z</time></trkpt>
<trkpt lat="44.1496217250824" lon="5.373353390023112"><ele></ele><time>2014-12-13T15:21:36Z</time></trkpt>
<trkpt lat="44.14964913390577" lon="5.3734522964805365"><ele></ele><time>2014-12-13T15:21:39Z</time></trkpt>
<trkpt lat="44.14966623298824" lon="5.373503509908915"><ele></ele><time>2014-12-13T15:21:42Z</time></trkpt>
<trkpt lat="44.149695904925466" lon="5.3737143985927105"><ele></ele><time>2014-12-13T15:21:45Z</time></trkpt>
<trkpt lat="44.14970336481929" lon="5.373737616464496"><ele></ele><time>2014-12-13T15:21:48Z</time></trkpt>
<trkpt lat="44.1497303545475" lon="5.373839875683188"><ele></ele><time>2014-12-13T15:21:51Z</time></trkpt>
<trkpt lat="44.14975139312446" lon="5.373876756057143"><ele></ele><time>2014-12-13T15:21:54Z</time></trkpt>
<trkpt lat="44.14978366345167" lon="5.373982535675168"><ele></ele><time>2014-12-13T15:21:57Z</time></trkpt>
<trkpt lat="44.14979036897421" lon="5.374029725790024"><ele></ele><time>2014-12-13T15:22:0Z</time></trkpt>
<trkpt lat="44.14979715831578" lon="5.374079765751958"><ele></ele><time>2014-12-13T15:22:3Z</time></trkpt>
<trkpt lat="44.14981056936085" lon="5.374234830960631"><ele></ele><time>2014-12-13T15:22:6Z</time></trkpt>
<trkpt lat="44.1498445160687" lon="5.374350752681494"><ele></ele><time>2014-12-13T15:22:9Z</time></trkpt>
<trkpt lat="44.149856586009264" lon="5.374427447095513"><ele></ele><time>2014-12-13T15:22:12Z</time></trkpt>
<trkpt lat="44.149947026744485" lon="5.3745613899081945"><ele></ele><time>2014-12-13T15:22:15Z</time></trkpt>
<trkpt lat="44.14995599538088" lon="5.374621152877808"><ele></ele><time>2014-12-13T15:22:18Z</time></trkpt>
<trkpt lat="44.14994291961193" lon="5.374659122899175"><ele></ele><time>2014-12-13T15:22:21Z</time></trkpt>
<trkpt lat="44.149937303736806" lon="5.374846290796995"><ele></ele><time>2014-12-13T15:22:24Z</time></trkpt>
<trkpt lat="44.14995566010475" lon="5.375117361545563"><ele></ele><time>2014-12-13T15:22:27Z</time></trkpt>
<trkpt lat="44.149961611256" lon="5.3751966543495655"><ele></ele><time>2014-12-13T15:22:30Z</time></trkpt>
<trkpt lat="44.15000637061894" lon="5.375561099499464"><ele></ele><time>2014-12-13T15:22:33Z</time></trkpt>
<trkpt lat="44.1500221285969" lon="5.375655144453049"><ele></ele><time>2014-12-13T15:22:36Z</time></trkpt>
<trkpt lat="44.15013637393713" lon="5.37611304782331"><ele></ele><time>2014-12-13T15:22:39Z</time></trkpt>
<trkpt lat="44.1501743439585" lon="5.3762029856443405"><ele></ele><time>2014-12-13T15:22:42Z</time></trkpt>
<trkpt lat="44.15036402642727" lon="5.376562988385558"><ele></ele><time>2014-12-13T15:22:45Z</time></trkpt>
<trkpt lat="44.150472739711404" lon="5.376745630055666"><ele></ele><time>2014-12-13T15:22:48Z</time></trkpt>
<trkpt lat="44.150581704452634" lon="5.376928774639964"><ele></ele><time>2014-12-13T15:22:51Z</time></trkpt>
<trkpt lat="44.15066904388368" lon="5.37712013348937"><ele></ele><time>2014-12-13T15:22:54Z</time></trkpt>
<trkpt lat="44.15072863921523" lon="5.377323813736439"><ele></ele><time>2014-12-13T15:22:57Z</time></trkpt>
<trkpt lat="44.150809440761805" lon="5.377637799829245"><ele></ele><time>2014-12-13T15:23:0Z</time></trkpt>
<trkpt lat="44.15088479407132" lon="5.377979781478643"><ele></ele><time>2014-12-13T15:23:3Z</time></trkpt>
<trkpt lat="44.15091413073242" lon="5.378095367923379"><ele></ele><time>2014-12-13T15:23:6Z</time></trkpt>
<trkpt lat="44.15097833611071" lon="5.378327127546072"><ele></ele><time>2014-12-13T15:23:9Z</time></trkpt>
<trkpt lat="44.15103684179485" lon="5.378535920754075"><ele></ele><time>2014-12-13T15:23:12Z</time></trkpt>
<trkpt lat="44.151086546480656" lon="5.3787390142679214"><ele></ele><time>2014-12-13T15:23:15Z</time></trkpt>
<trkpt lat="44.15110473521054" lon="5.378836411982775"><ele></ele><time>2014-12-13T15:23:18Z</time></trkpt>
<trkpt lat="44.15111077018082" lon="5.3789283614605665"><ele></ele><time>2014-12-13T15:23:21Z</time></trkpt>
<trkpt lat="44.1511049028486" lon="5.379011845216155"><ele></ele><time>2014-12-13T15:23:24Z</time></trkpt>
<trkpt lat="44.151083528995514" lon="5.379074206575751"><ele></ele><time>2014-12-13T15:23:27Z</time></trkpt>
<trkpt lat="44.1510340757668" lon="5.379107231274247"><ele></ele><time>2014-12-13T15:23:30Z</time></trkpt>
<trkpt lat="44.15097649209201" lon="5.379116116091609"><ele></ele><time>2014-12-13T15:23:33Z</time></trkpt>
<trkpt lat="44.150914046913385" lon="5.379085689783096"><ele></ele><time>2014-12-13T15:23:36Z</time></trkpt>
<trkpt lat="44.150796700268984" lon="5.3789999429136515"><ele></ele><time>2014-12-13T15:23:39Z</time></trkpt>
<trkpt lat="44.15074506774545" lon="5.378947304561734"><ele></ele><time>2014-12-13T15:23:42Z</time></trkpt>
<trkpt lat="44.15069284848869" lon="5.378886871039867"><ele></ele><time>2014-12-13T15:23:45Z</time></trkpt>
<trkpt lat="44.150597378611565" lon="5.378747899085283"><ele></ele><time>2014-12-13T15:23:48Z</time></trkpt>
<trkpt lat="44.150442061945796" lon="5.378522342070937"><ele></ele><time>2014-12-13T15:23:51Z</time></trkpt>
<trkpt lat="44.15026486851275" lon="5.378302903845906"><ele></ele><time>2014-12-13T15:23:54Z</time></trkpt>
<trkpt lat="44.150197645649314" lon="5.378242554143071"><ele></ele><time>2014-12-13T15:23:57Z</time></trkpt>
<trkpt lat="44.15005682967603" lon="5.378123028203845"><ele></ele><time>2014-12-13T15:24:0Z</time></trkpt>
<trkpt lat="44.14991567842662" lon="5.377997467294335"><ele></ele><time>2014-12-13T15:24:3Z</time></trkpt>
<trkpt lat="44.149841498583555" lon="5.377935776486993"><ele></ele><time>2014-12-13T15:24:6Z</time></trkpt>
<trkpt lat="44.14968945086002" lon="5.377809209749103"><ele></ele><time>2014-12-13T15:24:9Z</time></trkpt>
<trkpt lat="44.149457355961204" lon="5.377610642462969"><ele></ele><time>2014-12-13T15:24:12Z</time></trkpt>
<trkpt lat="44.14937814697623" lon="5.37754425778985"><ele></ele><time>2014-12-13T15:24:15Z</time></trkpt>
<trkpt lat="44.14929776452482" lon="5.37747829221189"><ele></ele><time>2014-12-13T15:24:18Z</time></trkpt>
<trkpt lat="44.14913213811815" lon="5.377356335520744"><ele></ele><time>2014-12-13T15:24:21Z</time></trkpt>
<trkpt lat="44.148866180330515" lon="5.377210071310401"><ele></ele><time>2014-12-13T15:24:24Z</time></trkpt>
<trkpt lat="44.148772889748216" lon="5.377172855660319"><ele></ele><time>2014-12-13T15:24:27Z</time></trkpt>
<trkpt lat="44.14848430082202" lon="5.377054670825601"><ele></ele><time>2014-12-13T15:24:30Z</time></trkpt>
<trkpt lat="44.14828690700233" lon="5.376974958926439"><ele></ele><time>2014-12-13T15:24:33Z</time></trkpt>
<trkpt lat="44.148085322231054" lon="5.376901365816593"><ele></ele><time>2014-12-13T15:24:36Z</time></trkpt>
<trkpt lat="44.14788222871721" lon="5.376839339733124"><ele></ele><time>2014-12-13T15:24:39Z</time></trkpt>
<trkpt lat="44.14767452515662" lon="5.376794328913093"><ele></ele><time>2014-12-13T15:24:42Z</time></trkpt>
<trkpt lat="44.14745659567416" lon="5.376773709431291"><ele></ele><time>2014-12-13T15:24:45Z</time></trkpt>
<trkpt lat="44.14723581634462" lon="5.376755269244313"><ele></ele><time>2014-12-13T15:24:48Z</time></trkpt>
<trkpt lat="44.147133473306894" lon="5.376742947846651"><ele></ele><time>2014-12-13T15:24:51Z</time></trkpt>
<trkpt lat="44.14703196845949" lon="5.3767357394099236"><ele></ele><time>2014-12-13T15:24:54Z</time></trkpt>
<trkpt lat="44.146836921572685" lon="5.376731464639306"><ele></ele><time>2014-12-13T15:24:57Z</time></trkpt>
<trkpt lat="44.146665930747986" lon="5.3767357394099236"><ele></ele><time>2014-12-13T15:25:0Z</time></trkpt>
<trkpt lat="44.14658663794398" lon="5.376768428832293"><ele></ele><time>2014-12-13T15:25:3Z</time></trkpt>
<trkpt lat="44.14650877006352" lon="5.376807237043977"><ele></ele><time>2014-12-13T15:25:6Z</time></trkpt>
<trkpt lat="44.14644070900977" lon="5.376859875395894"><ele></ele><time>2014-12-13T15:25:9Z</time></trkpt>
<trkpt lat="44.14638522081077" lon="5.3769186325371265"><ele></ele><time>2014-12-13T15:25:12Z</time></trkpt>
<trkpt lat="44.14629930630326" lon="5.377066321671009"><ele></ele><time>2014-12-13T15:25:15Z</time></trkpt>
<trkpt lat="44.14626544341445" lon="5.377151062712073"><ele></ele><time>2014-12-13T15:25:18Z</time></trkpt>
<trkpt lat="44.146208111196756" lon="5.3774643782526255"><ele></ele><time>2014-12-13T15:25:21Z</time></trkpt>
<trkpt lat="44.14620333351195" lon="5.377574767917395"><ele></ele><time>2014-12-13T15:25:24Z</time></trkpt>
<trkpt lat="44.14621012285352" lon="5.37778414785862"><ele></ele><time>2014-12-13T15:25:27Z</time></trkpt>
<trkpt lat="44.14621355943382" lon="5.377888586372137"><ele></ele><time>2014-12-13T15:25:30Z</time></trkpt>
<trkpt lat="44.146216325461864" lon="5.37798791192472"><ele></ele><time>2014-12-13T15:25:33Z</time></trkpt>
<trkpt lat="44.14622152224183" lon="5.3781891614198685"><ele></ele><time>2014-12-13T15:25:36Z</time></trkpt>
<trkpt lat="44.146223198622465" lon="5.3784925024956465"><ele></ele><time>2014-12-13T15:25:39Z</time></trkpt>
<trkpt lat="44.146206518635154" lon="5.378669276833534"><ele></ele><time>2014-12-13T15:25:42Z</time></trkpt>
<trkpt lat="44.14618204347789" lon="5.3788441233336926"><ele></ele><time>2014-12-13T15:25:45Z</time></trkpt>
<trkpt lat="44.14614365436137" lon="5.379027854651213"><ele></ele><time>2014-12-13T15:25:48Z</time></trkpt>
<trkpt lat="44.14610677398741" lon="5.379212507978082"><ele></ele><time>2014-12-13T15:25:51Z</time></trkpt>
<trkpt lat="44.146062433719635" lon="5.379367573186755"><ele></ele><time>2014-12-13T15:25:54Z</time></trkpt>
<trkpt lat="44.146036533638835" lon="5.379584496840835"><ele></ele><time>2014-12-13T15:25:57Z</time></trkpt>
<trkpt lat="44.1460348572582" lon="5.379739394411445"><ele></ele><time>2014-12-13T15:26:0Z</time></trkpt>
<trkpt lat="44.14603100158274" lon="5.380015159025788"><ele></ele><time>2014-12-13T15:26:3Z</time></trkpt>
<trkpt lat="44.14602739736438" lon="5.380118591710925"><ele></ele><time>2014-12-13T15:26:6Z</time></trkpt>
<trkpt lat="44.14601733908057" lon="5.3805905766785145"><ele></ele><time>2014-12-13T15:26:9Z</time></trkpt>
<trkpt lat="44.146020356565714" lon="5.380709934979677"><ele></ele><time>2014-12-13T15:26:12Z</time></trkpt>
<trkpt lat="44.146031169220805" lon="5.380919314920902"><ele></ele><time>2014-12-13T15:26:15Z</time></trkpt>
<trkpt lat="44.14604784920812" lon="5.381107404828072"><ele></ele><time>2014-12-13T15:26:18Z</time></trkpt>
<trkpt lat="44.14603192359209" lon="5.381244700402021"><ele></ele><time>2014-12-13T15:26:21Z</time></trkpt>
<trkpt lat="44.14603284560144" lon="5.381316030398011"><ele></ele><time>2014-12-13T15:26:24Z</time></trkpt>
<trkpt lat="44.14601289667189" lon="5.381452487781644"><ele></ele><time>2014-12-13T15:26:27Z</time></trkpt>
<trkpt lat="44.14598775096238" lon="5.381472436711192"><ele></ele><time>2014-12-13T15:26:30Z</time></trkpt>
<trkpt lat="44.14592698216438" lon="5.381507808342576"><ele></ele><time>2014-12-13T15:26:33Z</time></trkpt>
<trkpt lat="44.145765379071236" lon="5.381430191919208"><ele></ele><time>2014-12-13T15:26:36Z</time></trkpt>
<trkpt lat="44.14563755504787" lon="5.381293063983321"><ele></ele><time>2014-12-13T15:26:39Z</time></trkpt>
<trkpt lat="44.14559505879879" lon="5.381234223023057"><ele></ele><time>2014-12-13T15:26:42Z</time></trkpt>
<trkpt lat="44.14554912596941" lon="5.381172867491841"><ele></ele><time>2014-12-13T15:26:45Z</time></trkpt>
<trkpt lat="44.1454600263387" lon="5.381043870002031"><ele></ele><time>2014-12-13T15:26:48Z</time></trkpt>
<trkpt lat="44.14529071189463" lon="5.380740948021412"><ele></ele><time>2014-12-13T15:26:51Z</time></trkpt>
<trkpt lat="44.14519339799881" lon="5.38046476431191"><ele></ele><time>2014-12-13T15:26:54Z</time></trkpt>
<trkpt lat="44.14510337635875" lon="5.3801885806024075"><ele></ele><time>2014-12-13T15:26:57Z</time></trkpt>
<trkpt lat="44.14506842382252" lon="5.3800975531339645"><ele></ele><time>2014-12-13T15:27:0Z</time></trkpt>
<trkpt lat="44.14495635777712" lon="5.379717517644167"><ele></ele><time>2014-12-13T15:27:3Z</time></trkpt>
<trkpt lat="44.144932301715016" lon="5.37961944937706"><ele></ele><time>2014-12-13T15:27:6Z</time></trkpt>
<trkpt lat="44.14490313269198" lon="5.379521632567048"><ele></ele><time>2014-12-13T15:27:9Z</time></trkpt>
<trkpt lat="44.14482383988798" lon="5.379330106079578"><ele></ele><time>2014-12-13T15:27:12Z</time></trkpt>
<trkpt lat="44.14476843550801" lon="5.379236983135343"><ele></ele><time>2014-12-13T15:27:15Z</time></trkpt>
<trkpt lat="44.14448546245694" lon="5.3788376692682505"><ele></ele><time>2014-12-13T15:27:18Z</time></trkpt>
<trkpt lat="44.14441639557481" lon="5.378737589344382"><ele></ele><time>2014-12-13T15:27:21Z</time></trkpt>
<trkpt lat="44.1442094463855" lon="5.3784294705837965"><ele></ele><time>2014-12-13T15:27:24Z</time></trkpt>
<trkpt lat="44.14413937367499" lon="5.378321260213852"><ele></ele><time>2014-12-13T15:27:27Z</time></trkpt>
<trkpt lat="44.14393577724695" lon="5.377992941066623"><ele></ele><time>2014-12-13T15:27:30Z</time></trkpt>
<trkpt lat="44.14386863820255" lon="5.377885652706027"><ele></ele><time>2014-12-13T15:27:33Z</time></trkpt>
<trkpt lat="44.14373251609504" lon="5.377675434574485"><ele></ele><time>2014-12-13T15:27:36Z</time></trkpt>
<trkpt lat="44.143595891073346" lon="5.377472257241607"><ele></ele><time>2014-12-13T15:27:39Z</time></trkpt>
<trkpt lat="44.14346211589873" lon="5.377262458205223"><ele></ele><time>2014-12-13T15:27:42Z</time></trkpt>
<trkpt lat="44.14338609203696" lon="5.377165479585528"><ele></ele><time>2014-12-13T15:27:45Z</time></trkpt>
<trkpt lat="44.14330671541393" lon="5.377069674432278"><ele></ele><time>2014-12-13T15:27:48Z</time></trkpt>
<trkpt lat="44.14314100518823" lon="5.376884015277028"><ele></ele><time>2014-12-13T15:27:51Z</time></trkpt>
<trkpt lat="44.14305743761361" lon="5.376786617562175"><ele></ele><time>2014-12-13T15:27:54Z</time></trkpt>
<trkpt lat="44.14297512732446" lon="5.376693997532129"><ele></ele><time>2014-12-13T15:27:57Z</time></trkpt>
<trkpt lat="44.14289281703532" lon="5.376609172672033"><ele></ele><time>2014-12-13T15:28:0Z</time></trkpt>
<trkpt lat="44.14281168021262" lon="5.376530550420284"><ele></ele><time>2014-12-13T15:28:3Z</time></trkpt>
<trkpt lat="44.142724592238665" lon="5.3764712903648615"><ele></ele><time>2014-12-13T15:28:6Z</time></trkpt>
<trkpt lat="44.14263490587473" lon="5.3764312248677015"><ele></ele><time>2014-12-13T15:28:9Z</time></trkpt>
<trkpt lat="44.142354698851705" lon="5.376429548487067"><ele></ele><time>2014-12-13T15:28:12Z</time></trkpt>
<trkpt lat="44.142262917011976" lon="5.376438517123461"><ele></ele><time>2014-12-13T15:28:15Z</time></trkpt>
<trkpt lat="44.14217331446707" lon="5.3764477372169495"><ele></ele><time>2014-12-13T15:28:18Z</time></trkpt>
<trkpt lat="44.14175832644105" lon="5.376513283699751"><ele></ele><time>2014-12-13T15:28:21Z</time></trkpt>
<trkpt lat="44.14161181077361" lon="5.376553768292069"><ele></ele><time>2014-12-13T15:28:24Z</time></trkpt>
<trkpt lat="44.141471749171615" lon="5.376607747748494"><ele></ele><time>2014-12-13T15:28:27Z</time></trkpt>
<trkpt lat="44.14140117354691" lon="5.376637168228626"><ele></ele><time>2014-12-13T15:28:30Z</time></trkpt>
<trkpt lat="44.14120017550886" lon="5.376751748844981"><ele></ele><time>2014-12-13T15:28:33Z</time></trkpt>
<trkpt lat="44.1410718485713" lon="5.376856354996562"><ele></ele><time>2014-12-13T15:28:36Z</time></trkpt>
<trkpt lat="44.14073464460671" lon="5.377226835116744"><ele></ele><time>2014-12-13T15:28:39Z</time></trkpt>
<trkpt lat="44.14034605957568" lon="5.377773838117719"><ele></ele><time>2014-12-13T15:28:42Z</time></trkpt>
<trkpt lat="44.140155371278524" lon="5.378274070098996"><ele></ele><time>2014-12-13T15:28:45Z</time></trkpt>
<trkpt lat="44.140077671036124" lon="5.378535920754075"><ele></ele><time>2014-12-13T15:28:48Z</time></trkpt>
<trkpt lat="44.139986308291554" lon="5.378883769735694"><ele></ele><time>2014-12-13T15:28:51Z</time></trkpt>
<trkpt lat="44.1399528644979" lon="5.379335805773735"><ele></ele><time>2014-12-13T15:28:54Z</time></trkpt>
<trkpt lat="44.13996493443847" lon="5.379682648926973"><ele></ele><time>2014-12-13T15:28:57Z</time></trkpt>
<trkpt lat="44.13997272960842" lon="5.3800206910818815"><ele></ele><time>2014-12-13T15:29:0Z</time></trkpt>
<trkpt lat="44.14001095108688" lon="5.380485383793712"><ele></ele><time>2014-12-13T15:29:3Z</time></trkpt>
<trkpt lat="44.14002327248454" lon="5.380534417927265"><ele></ele><time>2014-12-13T15:29:6Z</time></trkpt>
<trkpt lat="44.14008689112961" lon="5.380658386275172"><ele></ele><time>2014-12-13T15:29:9Z</time></trkpt>
<trkpt lat="44.14013374596834" lon="5.3807230945676565"><ele></ele><time>2014-12-13T15:29:12Z</time></trkpt>
<trkpt lat="44.14020348340273" lon="5.3807837795466185"><ele></ele><time>2014-12-13T15:29:15Z</time></trkpt>
<trkpt lat="44.140222761780024" lon="5.38079802878201"><ele></ele><time>2014-12-13T15:29:18Z</time></trkpt>
<trkpt lat="44.14029769599438" lon="5.380871370434761"><ele></ele><time>2014-12-13T15:29:21Z</time></trkpt>
<trkpt lat="44.14033122360706" lon="5.380915962159634"><ele></ele><time>2014-12-13T15:29:24Z</time></trkpt>
<trkpt lat="44.14038277231157" lon="5.380962146446109"><ele></ele><time>2014-12-13T15:29:27Z</time></trkpt>
<trkpt lat="44.140446139499545" lon="5.381022999063134"><ele></ele><time>2014-12-13T15:29:30Z</time></trkpt>
<trkpt lat="44.14048947393894" lon="5.381061555817723"><ele></ele><time>2014-12-13T15:29:33Z</time></trkpt>
<trkpt lat="44.140534065663815" lon="5.381125258281827"><ele></ele><time>2014-12-13T15:29:36Z</time></trkpt>
<trkpt lat="44.14055535569787" lon="5.381162306293845"><ele></ele><time>2014-12-13T15:29:39Z</time></trkpt>
<trkpt lat="44.14062333293259" lon="5.381246209144592"><ele></ele><time>2014-12-13T15:29:42Z</time></trkpt>
<trkpt lat="44.140636660158634" lon="5.381263140588999"><ele></ele><time>2014-12-13T15:29:45Z</time></trkpt>
<trkpt lat="44.140718299895525" lon="5.381354503333569"><ele></ele><time>2014-12-13T15:29:48Z</time></trkpt>
<trkpt lat="44.14083388634026" lon="5.381457265466452"><ele></ele><time>2014-12-13T15:29:51Z</time></trkpt>
<trkpt lat="44.140848722308874" lon="5.381471766158938"><ele></ele><time>2014-12-13T15:29:54Z</time></trkpt>
<trkpt lat="44.1409164480865" lon="5.3815521486103535"><ele></ele><time>2014-12-13T15:29:57Z</time></trkpt>
<trkpt lat="44.140928434208035" lon="5.3815659787505865"><ele></ele><time>2014-12-13T15:30:0Z</time></trkpt>
<trkpt lat="44.140981240198016" lon="5.381625574082136"><ele></ele><time>2014-12-13T15:30:3Z</time></trkpt>
<trkpt lat="44.141026167199016" lon="5.381667483597994"><ele></ele><time>2014-12-13T15:30:6Z</time></trkpt>
<trkpt lat="44.14107972756028" lon="5.381710147485137"><ele></ele><time>2014-12-13T15:30:9Z</time></trkpt>
<trkpt lat="44.14114695042372" lon="5.381795894354582"><ele></ele><time>2014-12-13T15:30:12Z</time></trkpt>
<trkpt lat="44.14115876890719" lon="5.381815675646067"><ele></ele><time>2014-12-13T15:30:15Z</time></trkpt>
<trkpt lat="44.141249461099505" lon="5.381970489397645"><ele></ele><time>2014-12-13T15:30:18Z</time></trkpt>
<trkpt lat="44.141316935420036" lon="5.382086494937539"><ele></ele><time>2014-12-13T15:30:21Z</time></trkpt>
<trkpt lat="44.14135239087045" lon="5.38214273750782"><ele></ele><time>2014-12-13T15:30:24Z</time></trkpt>
<trkpt lat="44.14139882661402" lon="5.382202081382275"><ele></ele><time>2014-12-13T15:30:27Z</time></trkpt>
<trkpt lat="44.141459008678794" lon="5.382267711684108"><ele></ele><time>2014-12-13T15:30:30Z</time></trkpt>
<trkpt lat="44.1414809692651" lon="5.382293192669749"><ele></ele><time>2014-12-13T15:30:33Z</time></trkpt>
<trkpt lat="44.14155657403171" lon="5.382340047508478"><ele></ele><time>2014-12-13T15:30:36Z</time></trkpt>
<trkpt lat="44.14157283492386" lon="5.382346585392952"><ele></ele><time>2014-12-13T15:30:39Z</time></trkpt>
<trkpt lat="44.14159798063338" lon="5.382364271208644"><ele></ele><time>2014-12-13T15:30:42Z</time></trkpt>
<trkpt lat="44.14164684712887" lon="5.382404588162899"><ele></ele><time>2014-12-13T15:30:45Z</time></trkpt>
<trkpt lat="44.141722954809666" lon="5.382465189322829"><ele></ele><time>2014-12-13T15:30:48Z</time></trkpt>
<trkpt lat="44.14174315519631" lon="5.382483545690775"><ele></ele><time>2014-12-13T15:30:51Z</time></trkpt>
<trkpt lat="44.1417954582721" lon="5.3825034108012915"><ele></ele><time>2014-12-13T15:30:54Z</time></trkpt>
<trkpt lat="44.14186829701066" lon="5.382529646158218"><ele></ele><time>2014-12-13T15:30:57Z</time></trkpt>
<trkpt lat="44.14189428091049" lon="5.382547751069069"><ele></ele><time>2014-12-13T15:31:0Z</time></trkpt>
<trkpt lat="44.141972651705146" lon="5.382543141022325"><ele></ele><time>2014-12-13T15:31:3Z</time></trkpt>
<trkpt lat="44.14198656566441" lon="5.3825413808226585"><ele></ele><time>2014-12-13T15:31:6Z</time></trkpt>
<trkpt lat="44.14207197725773" lon="5.382548673078418"><ele></ele><time>2014-12-13T15:31:9Z</time></trkpt>
<trkpt lat="44.142098212614655" lon="5.382555210962892"><ele></ele><time>2014-12-13T15:31:12Z</time></trkpt>
<trkpt lat="44.142154622823" lon="5.38254632614553"><ele></ele><time>2014-12-13T15:31:15Z</time></trkpt>
<trkpt lat="44.14222335442901" lon="5.382521180436015"><ele></ele><time>2014-12-13T15:31:18Z</time></trkpt>
<trkpt lat="44.142243303358555" lon="5.382517324760556"><ele></ele><time>2014-12-13T15:31:21Z</time></trkpt>
<trkpt lat="44.1423015575856" lon="5.3825154807418585"><ele></ele><time>2014-12-13T15:31:24Z</time></trkpt>
<trkpt lat="44.142355704680085" lon="5.382507350295782"><ele></ele><time>2014-12-13T15:31:27Z</time></trkpt>
<trkpt lat="44.14240188896656" lon="5.38248086348176"><ele></ele><time>2014-12-13T15:31:30Z</time></trkpt>
<trkpt lat="44.14241513237357" lon="5.382476756349206"><ele></ele><time>2014-12-13T15:31:33Z</time></trkpt>
<trkpt lat="44.14247992448509" lon="5.382483629509807"><ele></ele><time>2014-12-13T15:31:36Z</time></trkpt>
<trkpt lat="44.14250900968909" lon="5.382472816854715"><ele></ele><time>2014-12-13T15:31:39Z</time></trkpt>
<trkpt lat="44.14252208545804" lon="5.382465859875083"><ele></ele><time>2014-12-13T15:31:42Z</time></trkpt>
<trkpt lat="44.14259601384401" lon="5.382413724437356"><ele></ele><time>2014-12-13T15:31:45Z</time></trkpt>
<trkpt lat="44.14263876155019" lon="5.382389081642032"><ele></ele><time>2014-12-13T15:31:48Z</time></trkpt>
<trkpt lat="44.1427157074213" lon="5.382379945367575"><ele></ele><time>2014-12-13T15:31:51Z</time></trkpt>
<trkpt lat="44.14274445734918" lon="5.382371312007308"><ele></ele><time>2014-12-13T15:31:54Z</time></trkpt>
<trkpt lat="44.14282810874283" lon="5.382332755252719"><ele></ele><time>2014-12-13T15:31:57Z</time></trkpt>
<trkpt lat="44.14284763857722" lon="5.382337281480432"><ele></ele><time>2014-12-13T15:32:0Z</time></trkpt>
<trkpt lat="44.14292374625802" lon="5.382338957861066"><ele></ele><time>2014-12-13T15:32:3Z</time></trkpt>
<trkpt lat="44.14295945316553" lon="5.3823434840887785"><ele></ele><time>2014-12-13T15:32:6Z</time></trkpt>
<trkpt lat="44.143031034618616" lon="5.382341388612986"><ele></ele><time>2014-12-13T15:32:9Z</time></trkpt>
<trkpt lat="44.14309289306402" lon="5.382334012538195"><ele></ele><time>2014-12-13T15:32:12Z</time></trkpt>
<trkpt lat="44.14319699630141" lon="5.382354883477092"><ele></ele><time>2014-12-13T15:32:15Z</time></trkpt>
<trkpt lat="44.143308978527784" lon="5.382359744980931"><ele></ele><time>2014-12-13T15:32:18Z</time></trkpt>
<trkpt lat="44.14334988221526" lon="5.382372820749879"><ele></ele><time>2014-12-13T15:32:21Z</time></trkpt>
<trkpt lat="44.14342992939055" lon="5.382372234016657"><ele></ele><time>2014-12-13T15:32:24Z</time></trkpt>
<trkpt lat="44.14350218139589" lon="5.382387489080429"><ele></ele><time>2014-12-13T15:32:27Z</time></trkpt>
<trkpt lat="44.14359371177852" lon="5.382403498515487"><ele></ele><time>2014-12-13T15:32:30Z</time></trkpt>
<trkpt lat="44.143626652657986" lon="5.382401067763567"><ele></ele><time>2014-12-13T15:32:33Z</time></trkpt>
<trkpt lat="44.14376084692776" lon="5.382438283413649"><ele></ele><time>2014-12-13T15:32:36Z</time></trkpt>
<trkpt lat="44.14379579946399" lon="5.3824409656226635"><ele></ele><time>2014-12-13T15:32:39Z</time></trkpt>
<trkpt lat="44.14393426850438" lon="5.382513385266066"><ele></ele><time>2014-12-13T15:32:42Z</time></trkpt>
<trkpt lat="44.14397374726832" lon="5.382544565945864"><ele></ele><time>2014-12-13T15:32:45Z</time></trkpt>
<trkpt lat="44.144112300127745" lon="5.382634000852704"><ele></ele><time>2014-12-13T15:32:48Z</time></trkpt>
<trkpt lat="44.14425672031939" lon="5.382742797955871"><ele></ele><time>2014-12-13T15:32:51Z</time></trkpt>
<trkpt lat="44.144329810515046" lon="5.382797531783581"><ele></ele><time>2014-12-13T15:32:54Z</time></trkpt>
<trkpt lat="44.144452437758446" lon="5.3828853741288185"><ele></ele><time>2014-12-13T15:32:57Z</time></trkpt>
<trkpt lat="44.144614124670625" lon="5.383067931979895"><ele></ele><time>2014-12-13T15:33:0Z</time></trkpt>
<trkpt lat="44.144661063328385" lon="5.383116295561194"><ele></ele><time>2014-12-13T15:33:3Z</time></trkpt>
<trkpt lat="44.14477514103055" lon="5.383262559771538"><ele></ele><time>2014-12-13T15:33:6Z</time></trkpt>
<trkpt lat="44.14479316212237" lon="5.383288711309433"><ele></ele><time>2014-12-13T15:33:9Z</time></trkpt>
<trkpt lat="44.14495107717812" lon="5.383506054058671"><ele></ele><time>2014-12-13T15:33:12Z</time></trkpt>
<trkpt lat="44.145100275054574" lon="5.383732784539461"><ele></ele><time>2014-12-13T15:33:15Z</time></trkpt>
<trkpt lat="44.14522415958345" lon="5.383864548057318"><ele></ele><time>2014-12-13T15:33:18Z</time></trkpt>
<trkpt lat="44.14536572992802" lon="5.384017853066325"><ele></ele><time>2014-12-13T15:33:21Z</time></trkpt>
<trkpt lat="44.145390540361404" lon="5.384037215262651"><ele></ele><time>2014-12-13T15:33:24Z</time></trkpt>
<trkpt lat="44.145527416840196" lon="5.384088344871998"><ele></ele><time>2014-12-13T15:33:27Z</time></trkpt>
<trkpt lat="44.14558977819979" lon="5.384125225245953"><ele></ele><time>2014-12-13T15:33:30Z</time></trkpt>
<trkpt lat="44.14567510597408" lon="5.384169397875667"><ele></ele><time>2014-12-13T15:33:33Z</time></trkpt>
<trkpt lat="44.145715925842524" lon="5.384189849719405"><ele></ele><time>2014-12-13T15:33:36Z</time></trkpt>
<trkpt lat="44.145783483982086" lon="5.384251205250621"><ele></ele><time>2014-12-13T15:33:39Z</time></trkpt>
<trkpt lat="44.1458620224148" lon="5.384307196363807"><ele></ele><time>2014-12-13T15:33:42Z</time></trkpt>
<trkpt lat="44.1459468472749" lon="5.384383387863636"><ele></ele><time>2014-12-13T15:33:45Z</time></trkpt>
<trkpt lat="44.14606251753867" lon="5.384516911581159"><ele></ele><time>2014-12-13T15:33:48Z</time></trkpt>
<trkpt lat="44.146102080121636" lon="5.38457022048533"><ele></ele><time>2014-12-13T15:33:51Z</time></trkpt>
<trkpt lat="44.14621372707188" lon="5.384723022580147"><ele></ele><time>2014-12-13T15:33:54Z</time></trkpt>
<trkpt lat="44.146308191120625" lon="5.384857887402177"><ele></ele><time>2014-12-13T15:33:57Z</time></trkpt>
<trkpt lat="44.146324368193746" lon="5.384907592087984"><ele></ele><time>2014-12-13T15:34:0Z</time></trkpt>
<trkpt lat="44.14635647088289" lon="5.385034494102001"><ele></ele><time>2014-12-13T15:34:3Z</time></trkpt>
<trkpt lat="44.14636937901378" lon="5.385135747492313"><ele></ele><time>2014-12-13T15:34:6Z</time></trkpt>
<trkpt lat="44.146380526944995" lon="5.385239934548736"><ele></ele><time>2014-12-13T15:34:9Z</time></trkpt>
<trkpt lat="44.14639729075134" lon="5.385389383882284"><ele></ele><time>2014-12-13T15:34:12Z</time></trkpt>
<trkpt lat="44.14640181697905" lon="5.385476555675268"><ele></ele><time>2014-12-13T15:34:15Z</time></trkpt>
<trkpt lat="44.146414892748" lon="5.385575965046883"><ele></ele><time>2014-12-13T15:34:18Z</time></trkpt>
<trkpt lat="44.146452359855175" lon="5.385867236182094"><ele></ele><time>2014-12-13T15:34:21Z</time></trkpt>
<trkpt lat="44.146484630182385" lon="5.386204104870558"><ele></ele><time>2014-12-13T15:34:24Z</time></trkpt>
<trkpt lat="44.14653827436268" lon="5.3865172527730465"><ele></ele><time>2014-12-13T15:34:27Z</time></trkpt>
<trkpt lat="44.14654850028455" lon="5.38655748590827"><ele></ele><time>2014-12-13T15:34:30Z</time></trkpt>
<trkpt lat="44.14661421440542" lon="5.386790921911597"><ele></ele><time>2014-12-13T15:34:33Z</time></trkpt>
<trkpt lat="44.14677841588855" lon="5.387119660153985"><ele></ele><time>2014-12-13T15:34:36Z</time></trkpt>
<trkpt lat="44.14696189574897" lon="5.387296937406063"><ele></ele><time>2014-12-13T15:34:39Z</time></trkpt>
<trkpt lat="44.14710162207484" lon="5.387371201068163"><ele></ele><time>2014-12-13T15:34:42Z</time></trkpt>
<trkpt lat="44.14727445691824" lon="5.387427024543285"><ele></ele><time>2014-12-13T15:34:45Z</time></trkpt>
<trkpt lat="44.147430611774325" lon="5.387478405609727"><ele></ele><time>2014-12-13T15:34:48Z</time></trkpt>
<trkpt lat="44.147615265101194" lon="5.38754160515964"><ele></ele><time>2014-12-13T15:34:51Z</time></trkpt>
<trkpt lat="44.14771190844476" lon="5.387623915448785"><ele></ele><time>2014-12-13T15:34:54Z</time></trkpt>
<trkpt lat="44.14772590622306" lon="5.387693652883172"><ele></ele><time>2014-12-13T15:34:57Z</time></trkpt>
<trkpt lat="44.14771961979568" lon="5.387701615691185"><ele></ele><time>2014-12-13T15:35:0Z</time></trkpt>
<trkpt lat="44.14768491871655" lon="5.387752326205373"><ele></ele><time>2014-12-13T15:35:3Z</time></trkpt>
<trkpt lat="44.14765616878867" lon="5.387789374217391"><ele></ele><time>2014-12-13T15:35:6Z</time></trkpt>
<trkpt lat="44.147477550432086" lon="5.387985426932573"><ele></ele><time>2014-12-13T15:35:9Z</time></trkpt>
<trkpt lat="44.14726942777634" lon="5.388217605650425"><ele></ele><time>2014-12-13T15:35:12Z</time></trkpt>
<trkpt lat="44.14723698981106" lon="5.388262365013361"><ele></ele><time>2014-12-13T15:35:15Z</time></trkpt>
<trkpt lat="44.147107154130936" lon="5.388431176543236"><ele></ele><time>2014-12-13T15:35:18Z</time></trkpt>
<trkpt lat="44.147022748366" lon="5.388556737452745"><ele></ele><time>2014-12-13T15:35:21Z</time></trkpt>
<trkpt lat="44.14688930846751" lon="5.388806099072099"><ele></ele><time>2014-12-13T15:35:24Z</time></trkpt>
<trkpt lat="44.14686986245215" lon="5.388844655826688"><ele></ele><time>2014-12-13T15:35:27Z</time></trkpt>
<trkpt lat="44.14679258130491" lon="5.389092760160565"><ele></ele><time>2014-12-13T15:35:30Z</time></trkpt>
<trkpt lat="44.1467825230211" lon="5.389133747667074"><ele></ele><time>2014-12-13T15:35:33Z</time></trkpt>
<trkpt lat="44.14670675061643" lon="5.3893256932497025"><ele></ele><time>2014-12-13T15:35:36Z</time></trkpt>
<trkpt lat="44.146698620170355" lon="5.389361400157213"><ele></ele><time>2014-12-13T15:35:39Z</time></trkpt>
<trkpt lat="44.14663030765951" lon="5.389590561389923"><ele></ele><time>2014-12-13T15:35:42Z</time></trkpt>
<trkpt lat="44.14658705703914" lon="5.38995492272079"><ele></ele><time>2014-12-13T15:35:45Z</time></trkpt>
<trkpt lat="44.14659133180976" lon="5.390201434493065"><ele></ele><time>2014-12-13T15:35:48Z</time></trkpt>
<trkpt lat="44.14659535512328" lon="5.390233788639307"><ele></ele><time>2014-12-13T15:35:51Z</time></trkpt>
<trkpt lat="44.146622344851494" lon="5.3904559928923845"><ele></ele><time>2014-12-13T15:35:54Z</time></trkpt>
<trkpt lat="44.146628212183714" lon="5.39052858017385"><ele></ele><time>2014-12-13T15:35:57Z</time></trkpt>
<trkpt lat="44.14665771648288" lon="5.390728656202555"><ele></ele><time>2014-12-13T15:36:0Z</time></trkpt>
<trkpt lat="44.146680096164346" lon="5.390829909592867"><ele></ele><time>2014-12-13T15:36:3Z</time></trkpt>
<trkpt lat="44.14673223160207" lon="5.391004169359803"><ele></ele><time>2014-12-13T15:36:6Z</time></trkpt>
<trkpt lat="44.14677657186985" lon="5.391122857108712"><ele></ele><time>2014-12-13T15:36:9Z</time></trkpt>
<trkpt lat="44.14680691435933" lon="5.3911813627928495"><ele></ele><time>2014-12-13T15:36:12Z</time></trkpt>
<trkpt lat="44.1468327306211" lon="5.391244310885668"><ele></ele><time>2014-12-13T15:36:15Z</time></trkpt>
<trkpt lat="44.14686198346317" lon="5.391375320032239"><ele></ele><time>2014-12-13T15:36:18Z</time></trkpt>
<trkpt lat="44.14688830263913" lon="5.391449918970466"><ele></ele><time>2014-12-13T15:36:21Z</time></trkpt>
<trkpt lat="44.14691093377769" lon="5.391561565920711"><ele></ele><time>2014-12-13T15:36:24Z</time></trkpt>
<trkpt lat="44.146925350651145" lon="5.391638427972794"><ele></ele><time>2014-12-13T15:36:27Z</time></trkpt>
<trkpt lat="44.14696709252894" lon="5.391746303066611"><ele></ele><time>2014-12-13T15:36:30Z</time></trkpt>
<trkpt lat="44.14699978195131" lon="5.391836576163769"><ele></ele><time>2014-12-13T15:36:33Z</time></trkpt>
<trkpt lat="44.147032890468836" lon="5.391941433772445"><ele></ele><time>2014-12-13T15:36:36Z</time></trkpt>
<trkpt lat="44.147115452215075" lon="5.392081076279283"><ele></ele><time>2014-12-13T15:36:39Z</time></trkpt>
<trkpt lat="44.14716155268252" lon="5.392124243080616"><ele></ele><time>2014-12-13T15:36:42Z</time></trkpt>
<trkpt lat="44.1472143586725" lon="5.392180318012834"><ele></ele><time>2014-12-13T15:36:45Z</time></trkpt>
<trkpt lat="44.147297674790025" lon="5.392245529219508"><ele></ele><time>2014-12-13T15:36:48Z</time></trkpt>
<trkpt lat="44.147353917360306" lon="5.392294228076935"><ele></ele><time>2014-12-13T15:36:51Z</time></trkpt>
<trkpt lat="44.14744368754327" lon="5.392390452325344"><ele></ele><time>2014-12-13T15:36:54Z</time></trkpt>
<trkpt lat="44.14747830480337" lon="5.392424399033189"><ele></ele><time>2014-12-13T15:36:57Z</time></trkpt>
<trkpt lat="44.14759548380971" lon="5.392533699050546"><ele></ele><time>2014-12-13T15:37:0Z</time></trkpt>
<trkpt lat="44.14770939387381" lon="5.392628666013479"><ele></ele><time>2014-12-13T15:37:3Z</time></trkpt>
<trkpt lat="44.14780511520803" lon="5.392732936888933"><ele></ele><time>2014-12-13T15:37:6Z</time></trkpt>
<trkpt lat="44.147853227332234" lon="5.3928073681890965"><ele></ele><time>2014-12-13T15:37:9Z</time></trkpt>
<trkpt lat="44.14798381738365" lon="5.392928654327989"><ele></ele><time>2014-12-13T15:37:12Z</time></trkpt>
<trkpt lat="44.1480122320354" lon="5.392977772280574"><ele></ele><time>2014-12-13T15:37:15Z</time></trkpt>
<trkpt lat="44.148072581738234" lon="5.393124120309949"><ele></ele><time>2014-12-13T15:37:18Z</time></trkpt>
<trkpt lat="44.14808347821236" lon="5.393154378980398"><ele></ele><time>2014-12-13T15:37:21Z</time></trkpt>
<trkpt lat="44.148093620315194" lon="5.393370296806097"><ele></ele><time>2014-12-13T15:37:24Z</time></trkpt>
<trkpt lat="44.14801214821637" lon="5.393499964848161"><ele></ele><time>2014-12-13T15:37:27Z</time></trkpt>
<trkpt lat="44.14789941161871" lon="5.393563415855169"><ele></ele><time>2014-12-13T15:37:30Z</time></trkpt>
<trkpt lat="44.14784610271454" lon="5.3935827780514956"><ele></ele><time>2014-12-13T15:37:33Z</time></trkpt>
<trkpt lat="44.147773599252105" lon="5.393629549071193"><ele></ele><time>2014-12-13T15:37:36Z</time></trkpt>
<trkpt lat="44.147618701681495" lon="5.393744967877865"><ele></ele><time>2014-12-13T15:37:39Z</time></trkpt>
<trkpt lat="44.14741577580571" lon="5.393895506858826"><ele></ele><time>2014-12-13T15:37:42Z</time></trkpt>
<trkpt lat="44.14723531343043" lon="5.394098097458482"><ele></ele><time>2014-12-13T15:37:45Z</time></trkpt>
<trkpt lat="44.14714545942843" lon="5.394224999472499"><ele></ele><time>2014-12-13T15:37:48Z</time></trkpt>
<trkpt lat="44.14709567092359" lon="5.394321558997035"><ele></ele><time>2014-12-13T15:37:51Z</time></trkpt>
<trkpt lat="44.147077817469835" lon="5.394372018054128"><ele></ele><time>2014-12-13T15:37:54Z</time></trkpt>
<trkpt lat="44.14705074392259" lon="5.394547786563635"><ele></ele><time>2014-12-13T15:37:57Z</time></trkpt>
<trkpt lat="44.14704688824713" lon="5.394670749083161"><ele></ele><time>2014-12-13T15:38:0Z</time></trkpt>
<trkpt lat="44.14710648357868" lon="5.395050784572959"><ele></ele><time>2014-12-13T15:38:3Z</time></trkpt>
<trkpt lat="44.1471263486892" lon="5.395116498693824"><ele></ele><time>2014-12-13T15:38:6Z</time></trkpt>
<trkpt lat="44.147224919870496" lon="5.395363345742226"><ele></ele><time>2014-12-13T15:38:9Z</time></trkpt>
<trkpt lat="44.14728342555463" lon="5.39546275511384"><ele></ele><time>2014-12-13T15:38:12Z</time></trkpt>
<trkpt lat="44.14744259789586" lon="5.395683031529188"><ele></ele><time>2014-12-13T15:38:15Z</time></trkpt>
<trkpt lat="44.14758324623108" lon="5.3958098497241735"><ele></ele><time>2014-12-13T15:38:18Z</time></trkpt>
<trkpt lat="44.14766052737832" lon="5.395889729261398"><ele></ele><time>2014-12-13T15:38:21Z</time></trkpt>
<trkpt lat="44.14770796895027" lon="5.395949492231011"><ele></ele><time>2014-12-13T15:38:24Z</time></trkpt>
<trkpt lat="44.1477410774678" lon="5.395984360948205"><ele></ele><time>2014-12-13T15:38:27Z</time></trkpt>
<trkpt lat="44.147827327251434" lon="5.396047728136182"><ele></ele><time>2014-12-13T15:38:30Z</time></trkpt>
<trkpt lat="44.14786194451153" lon="5.396070946007967"><ele></ele><time>2014-12-13T15:38:33Z</time></trkpt>
<trkpt lat="44.14794844575226" lon="5.3961670864373446"><ele></ele><time>2014-12-13T15:38:36Z</time></trkpt>
<trkpt lat="44.14797652512789" lon="5.396190555766225"><ele></ele><time>2014-12-13T15:38:39Z</time></trkpt>
<trkpt lat="44.14802631363273" lon="5.396226430311799"><ele></ele><time>2014-12-13T15:38:42Z</time></trkpt>
<trkpt lat="44.14803930558264" lon="5.396244199946523"><ele></ele><time>2014-12-13T15:38:45Z</time></trkpt>
<trkpt lat="44.14808180183172" lon="5.396269429475069"><ele></ele><time>2014-12-13T15:38:48Z</time></trkpt>
<trkpt lat="44.148108372464776" lon="5.396278398111463"><ele></ele><time>2014-12-13T15:38:51Z</time></trkpt>
<trkpt lat="44.148119520395994" lon="5.396284097805619"><ele></ele><time>2014-12-13T15:38:54Z</time></trkpt>
<trkpt lat="44.148196717724204" lon="5.39631737396121"><ele></ele><time>2014-12-13T15:38:57Z</time></trkpt>
<trkpt lat="44.148217756301165" lon="5.396323157474399"><ele></ele><time>2014-12-13T15:39:0Z</time></trkpt>
<trkpt lat="44.14830258116126" lon="5.396358864381909"><ele></ele><time>2014-12-13T15:39:3Z</time></trkpt>
<trkpt lat="44.148319931700826" lon="5.396365653723478"><ele></ele><time>2014-12-13T15:39:6Z</time></trkpt>
<trkpt lat="44.14840517565608" lon="5.396439582109451"><ele></ele><time>2014-12-13T15:39:9Z</time></trkpt>
<trkpt lat="44.1485336702317" lon="5.396527843549848"><ele></ele><time>2014-12-13T15:39:12Z</time></trkpt>
<trkpt lat="44.148683873936534" lon="5.396637311205268"><ele></ele><time>2014-12-13T15:39:15Z</time></trkpt>
<trkpt lat="44.14870181120932" lon="5.396654577925801"><ele></ele><time>2014-12-13T15:39:18Z</time></trkpt>
<trkpt lat="44.1487977001816" lon="5.3967357985675335"><ele></ele><time>2014-12-13T15:39:21Z</time></trkpt>
<trkpt lat="44.14887682534754" lon="5.396798495203257"><ele></ele><time>2014-12-13T15:39:24Z</time></trkpt>
<trkpt lat="44.148937594145536" lon="5.396857587620616"><ele></ele><time>2014-12-13T15:39:27Z</time></trkpt>
<trkpt lat="44.149035746231675" lon="5.396945681422949"><ele></ele><time>2014-12-13T15:39:30Z</time></trkpt>
<trkpt lat="44.14915661327541" lon="5.39701416157186"><ele></ele><time>2014-12-13T15:39:33Z</time></trkpt>
<trkpt lat="44.14925191551447" lon="5.397058334201574"><ele></ele><time>2014-12-13T15:39:36Z</time></trkpt>
<trkpt lat="44.149325508624315" lon="5.3971056919544935"><ele></ele><time>2014-12-13T15:39:39Z</time></trkpt>
<trkpt lat="44.14942332543433" lon="5.397164952009916"><ele></ele><time>2014-12-13T15:39:42Z</time></trkpt>
<trkpt lat="44.14947428740561" lon="5.397203089669347"><ele></ele><time>2014-12-13T15:39:45Z</time></trkpt>
<trkpt lat="44.14969481527805" lon="5.397323118522763"><ele></ele><time>2014-12-13T15:39:48Z</time></trkpt>
<trkpt lat="44.14986530318856" lon="5.397456726059318"><ele></ele><time>2014-12-13T15:39:51Z</time></trkpt>
<trkpt lat="44.14994107559323" lon="5.397511795163155"><ele></ele><time>2014-12-13T15:39:54Z</time></trkpt>
<trkpt lat="44.15016780607402" lon="5.397706003859639"><ele></ele><time>2014-12-13T15:39:57Z</time></trkpt>
<trkpt lat="44.15043929591775" lon="5.397901302203536"><ele></ele><time>2014-12-13T15:40:0Z</time></trkpt>
<trkpt lat="44.15054842829704" lon="5.3979921620339155"><ele></ele><time>2014-12-13T15:40:3Z</time></trkpt>
<trkpt lat="44.150603329762816" lon="5.398041782900691"><ele></ele><time>2014-12-13T15:40:6Z</time></trkpt>
<trkpt lat="44.15079158730805" lon="5.398188214749098"><ele></ele><time>2014-12-13T15:40:9Z</time></trkpt>
<trkpt lat="44.150924272835255" lon="5.398289803415537"><ele></ele><time>2014-12-13T15:40:12Z</time></trkpt>
<trkpt lat="44.15112845599651" lon="5.398459704592824"><ele></ele><time>2014-12-13T15:40:15Z</time></trkpt>
<trkpt lat="44.151355773210526" lon="5.398626923561096"><ele></ele><time>2014-12-13T15:40:18Z</time></trkpt>
<trkpt lat="44.15150153450668" lon="5.398734882473946"><ele></ele><time>2014-12-13T15:40:21Z</time></trkpt>
<trkpt lat="44.15163698606193" lon="5.398839991539717"><ele></ele><time>2014-12-13T15:40:24Z</time></trkpt>
<trkpt lat="44.15176732465625" lon="5.398935964331031"><ele></ele><time>2014-12-13T15:40:27Z</time></trkpt>
<trkpt lat="44.15183178149164" lon="5.398983573541045"><ele></ele><time>2014-12-13T15:40:30Z</time></trkpt>
<trkpt lat="44.151998246088624" lon="5.3991206176579"><ele></ele><time>2014-12-13T15:40:33Z</time></trkpt>
<trkpt lat="44.152089189738035" lon="5.399200664833188"><ele></ele><time>2014-12-13T15:40:36Z</time></trkpt>
<trkpt lat="44.152132607996464" lon="5.39924181997776"><ele></ele><time>2014-12-13T15:40:39Z</time></trkpt>
<trkpt lat="44.152276776731014" lon="5.399421276524663"><ele></ele><time>2014-12-13T15:40:42Z</time></trkpt>
<trkpt lat="44.152308460325" lon="5.3994708973914385"><ele></ele><time>2014-12-13T15:40:45Z</time></trkpt>
<trkpt lat="44.15236151777208" lon="5.399565948173404"><ele></ele><time>2014-12-13T15:40:48Z</time></trkpt>
<trkpt lat="44.152440475299954" lon="5.399718917906284"><ele></ele><time>2014-12-13T15:40:51Z</time></trkpt>
<trkpt lat="44.152478110045195" lon="5.3997942712157965"><ele></ele><time>2014-12-13T15:40:54Z</time></trkpt>
<trkpt lat="44.15249411948025" lon="5.399812459945679"><ele></ele><time>2014-12-13T15:40:57Z</time></trkpt>
<trkpt lat="44.15249705314636" lon="5.399852525442839"><ele></ele><time>2014-12-13T15:41:0Z</time></trkpt>
<trkpt lat="44.15254784747958" lon="5.399931985884905"><ele></ele><time>2014-12-13T15:41:3Z</time></trkpt>
<trkpt lat="44.15263728238642" lon="5.400154190137982"><ele></ele><time>2014-12-13T15:41:6Z</time></trkpt>
<trkpt lat="44.15265806950629" lon="5.400220490992069"><ele></ele><time>2014-12-13T15:41:9Z</time></trkpt>
<trkpt lat="44.15272110141814" lon="5.400428865104914"><ele></ele><time>2014-12-13T15:41:12Z</time></trkpt>
<trkpt lat="44.152745828032494" lon="5.400488460436463"><ele></ele><time>2014-12-13T15:41:15Z</time></trkpt>
<trkpt lat="44.1527646034956" lon="5.400545625016093"><ele></ele><time>2014-12-13T15:41:18Z</time></trkpt>
<trkpt lat="44.15284490212798" lon="5.4007788095623255"><ele></ele><time>2014-12-13T15:41:21Z</time></trkpt>
<trkpt lat="44.1528578940779" lon="5.400879476219416"><ele></ele><time>2014-12-13T15:41:24Z</time></trkpt>
<trkpt lat="44.15288991294801" lon="5.401073265820742"><ele></ele><time>2014-12-13T15:41:27Z</time></trkpt>
<trkpt lat="44.152906676754355" lon="5.401197485625744"><ele></ele><time>2014-12-13T15:41:30Z</time></trkpt>
<trkpt lat="44.15291992016137" lon="5.401275772601366"><ele></ele><time>2014-12-13T15:41:33Z</time></trkpt>
<trkpt lat="44.152961829677224" lon="5.4014738369733095"><ele></ele><time>2014-12-13T15:41:36Z</time></trkpt>
<trkpt lat="44.15297733619809" lon="5.4015512857586145"><ele></ele><time>2014-12-13T15:41:39Z</time></trkpt>
<trkpt lat="44.152981946244836" lon="5.401728814467788"><ele></ele><time>2014-12-13T15:41:42Z</time></trkpt>
<trkpt lat="44.152981946244836" lon="5.401796204969287"><ele></ele><time>2014-12-13T15:41:45Z</time></trkpt>
<trkpt lat="44.152978509664536" lon="5.401895698159933"><ele></ele><time>2014-12-13T15:41:48Z</time></trkpt>
<trkpt lat="44.15296744555235" lon="5.402038190513849"><ele></ele><time>2014-12-13T15:41:51Z</time></trkpt>
<trkpt lat="44.15295420214534" lon="5.402202308177948"><ele></ele><time>2014-12-13T15:41:54Z</time></trkpt>
<trkpt lat="44.1529839579016" lon="5.402209432795644"><ele></ele><time>2014-12-13T15:41:57Z</time></trkpt>
<trkpt lat="44.152994183823466" lon="5.402202056720853"><ele></ele><time>2014-12-13T15:42:0Z</time></trkpt>
<trkpt lat="44.15300281718373" lon="5.4021768271923065"><ele></ele><time>2014-12-13T15:42:3Z</time></trkpt>
<trkpt lat="44.15300072170794" lon="5.402126954868436"><ele></ele><time>2014-12-13T15:42:6Z</time></trkpt>
<trkpt lat="44.15296350605786" lon="5.40194246917963"><ele></ele><time>2014-12-13T15:42:9Z</time></trkpt>
<trkpt lat="44.15295428596437" lon="5.4017191752791405"><ele></ele><time>2014-12-13T15:42:12Z</time></trkpt>
<trkpt lat="44.152957051992416" lon="5.401587411761284"><ele></ele><time>2014-12-13T15:42:15Z</time></trkpt>
<trkpt lat="44.15292017161846" lon="5.4013745952397585"><ele></ele><time>2014-12-13T15:42:18Z</time></trkpt>
<trkpt lat="44.15290147997439" lon="5.401303851976991"><ele></ele><time>2014-12-13T15:42:21Z</time></trkpt>
<trkpt lat="44.15288153104484" lon="5.401233863085508"><ele></ele><time>2014-12-13T15:42:24Z</time></trkpt>
<trkpt lat="44.15286325849593" lon="5.401162868365645"><ele></ele><time>2014-12-13T15:42:27Z</time></trkpt>
<trkpt lat="44.152777176350355" lon="5.400843098759651"><ele></ele><time>2014-12-13T15:42:30Z</time></trkpt>
<trkpt lat="44.15275923907757" lon="5.400753580033779"><ele></ele><time>2014-12-13T15:42:33Z</time></trkpt>
<trkpt lat="44.15272411890328" lon="5.400564651936293"><ele></ele><time>2014-12-13T15:42:36Z</time></trkpt>
<trkpt lat="44.152661338448524" lon="5.400257203727961"><ele></ele><time>2014-12-13T15:42:39Z</time></trkpt>
<trkpt lat="44.15260593406856" lon="5.400068610906601"><ele></ele><time>2014-12-13T15:42:42Z</time></trkpt>
<trkpt lat="44.15254399180412" lon="5.399945480749011"><ele></ele><time>2014-12-13T15:42:45Z</time></trkpt>
<trkpt lat="44.152516666799784" lon="5.399902733042836"><ele></ele><time>2014-12-13T15:42:48Z</time></trkpt>
<trkpt lat="44.15248674340546" lon="5.399829726666212"><ele></ele><time>2014-12-13T15:42:51Z</time></trkpt>
<trkpt lat="44.15248825214803" lon="5.399772142991424"><ele></ele><time>2014-12-13T15:42:54Z</time></trkpt>
<trkpt lat="44.15251012891531" lon="5.399705255404115"><ele></ele><time>2014-12-13T15:42:57Z</time></trkpt>
<trkpt lat="44.152520606294274" lon="5.399689497426152"><ele></ele><time>2014-12-13T15:43:0Z</time></trkpt>
<trkpt lat="44.15254382416606" lon="5.3996542096138"><ele></ele><time>2014-12-13T15:43:3Z</time></trkpt>
<trkpt lat="44.15258330293" lon="5.399600816890597"><ele></ele><time>2014-12-13T15:43:6Z</time></trkpt>
<trkpt lat="44.15261657908559" lon="5.399545580148697"><ele></ele><time>2014-12-13T15:43:9Z</time></trkpt>
<trkpt lat="44.1526435688138" lon="5.399493528530002"><ele></ele><time>2014-12-13T15:43:12Z</time></trkpt>
<trkpt lat="44.152768878266215" lon="5.399366710335016"><ele></ele><time>2014-12-13T15:43:15Z</time></trkpt>
<trkpt lat="44.152787486091256" lon="5.3993545565754175"><ele></ele><time>2014-12-13T15:43:18Z</time></trkpt>
<trkpt lat="44.15285697206855" lon="5.399288088083267"><ele></ele><time>2014-12-13T15:43:21Z</time></trkpt>
<trkpt lat="44.152925200760365" lon="5.399156911298633"><ele></ele><time>2014-12-13T15:43:24Z</time></trkpt>
<trkpt lat="44.15295269340277" lon="5.399009892717004"><ele></ele><time>2014-12-13T15:43:27Z</time></trkpt>
<trkpt lat="44.15296266786754" lon="5.398820294067264"><ele></ele><time>2014-12-13T15:43:30Z</time></trkpt>
<trkpt lat="44.15298311971128" lon="5.398501614108682"><ele></ele><time>2014-12-13T15:43:33Z</time></trkpt>
<trkpt lat="44.15300055406988" lon="5.398396505042911"><ele></ele><time>2014-12-13T15:43:36Z</time></trkpt>
<trkpt lat="44.15301622822881" lon="5.398323414847255"><ele></ele><time>2014-12-13T15:43:39Z</time></trkpt>
<trkpt lat="44.15305872447789" lon="5.398042118176818"><ele></ele><time>2014-12-13T15:43:42Z</time></trkpt>
<trkpt lat="44.15308780968189" lon="5.397778758779168"><ele></ele><time>2014-12-13T15:43:45Z</time></trkpt>
<trkpt lat="44.153105495497584" lon="5.397558566182852"><ele></ele><time>2014-12-13T15:43:48Z</time></trkpt>
<trkpt lat="44.15313122794032" lon="5.397416828200221"><ele></ele><time>2014-12-13T15:43:51Z</time></trkpt>
<trkpt lat="44.15317548438907" lon="5.397213650867343"><ele></ele><time>2014-12-13T15:43:54Z</time></trkpt>
<trkpt lat="44.15318780578673" lon="5.397016340866685"><ele></ele><time>2014-12-13T15:43:57Z</time></trkpt>
<trkpt lat="44.1531945951283" lon="5.396981472149491"><ele></ele><time>2014-12-13T15:44:0Z</time></trkpt>
<trkpt lat="44.153257459402084" lon="5.396695481613278"><ele></ele><time>2014-12-13T15:44:3Z</time></trkpt>
<trkpt lat="44.15330456569791" lon="5.396587522700429"><ele></ele><time>2014-12-13T15:44:6Z</time></trkpt>
<trkpt lat="44.153410512954" lon="5.396421393379569"><ele></ele><time>2014-12-13T15:44:9Z</time></trkpt>
<trkpt lat="44.153644954785705" lon="5.396127691492438"><ele></ele><time>2014-12-13T15:44:12Z</time></trkpt>
<trkpt lat="44.1537160333246" lon="5.396060217171907"><ele></ele><time>2014-12-13T15:44:15Z</time></trkpt>
<trkpt lat="44.15388157591224" lon="5.395901380106807"><ele></ele><time>2014-12-13T15:44:18Z</time></trkpt>
<trkpt lat="44.153997832909226" lon="5.395775651559234"><ele></ele><time>2014-12-13T15:44:21Z</time></trkpt>
<trkpt lat="44.15410973131657" lon="5.3956590592861176"><ele></ele><time>2014-12-13T15:44:24Z</time></trkpt>
<trkpt lat="44.15426873601973" lon="5.39546325802803"><ele></ele><time>2014-12-13T15:44:27Z</time></trkpt>
<trkpt lat="44.154454646632075" lon="5.395212722942233"><ele></ele><time>2014-12-13T15:44:30Z</time></trkpt>
<trkpt lat="44.15456369519234" lon="5.394987501204014"><ele></ele><time>2014-12-13T15:44:33Z</time></trkpt>
<trkpt lat="44.154663775116205" lon="5.394753310829401"><ele></ele><time>2014-12-13T15:44:36Z</time></trkpt>
<trkpt lat="44.154671067371964" lon="5.394693799316883"><ele></ele><time>2014-12-13T15:44:39Z</time></trkpt>
<trkpt lat="44.15466260164976" lon="5.394500344991684"><ele></ele><time>2014-12-13T15:44:42Z</time></trkpt>
<trkpt lat="44.15462873876095" lon="5.394301023334265"><ele></ele><time>2014-12-13T15:44:45Z</time></trkpt>
<trkpt lat="44.15457199327648" lon="5.394062306731939"><ele></ele><time>2014-12-13T15:44:48Z</time></trkpt>
<trkpt lat="44.1545448359102" lon="5.393932051956654"><ele></ele><time>2014-12-13T15:44:51Z</time></trkpt>
<trkpt lat="44.15443419478834" lon="5.393399549648166"><ele></ele><time>2014-12-13T15:44:54Z</time></trkpt>
<trkpt lat="44.154419442638755" lon="5.393337942659855"><ele></ele><time>2014-12-13T15:44:57Z</time></trkpt>
<trkpt lat="44.154366720467806" lon="5.393078103661537"><ele></ele><time>2014-12-13T15:45:0Z</time></trkpt>
<trkpt lat="44.15438172407448" lon="5.392890935763717"><ele></ele><time>2014-12-13T15:45:3Z</time></trkpt>
<trkpt lat="44.15446696802974" lon="5.392557168379426"><ele></ele><time>2014-12-13T15:45:6Z</time></trkpt>
<trkpt lat="44.1546037606895" lon="5.3921285178512335"><ele></ele><time>2014-12-13T15:45:9Z</time></trkpt>
<trkpt lat="44.15469135157764" lon="5.391799611970782"><ele></ele><time>2014-12-13T15:45:12Z</time></trkpt>
<trkpt lat="44.15480241179466" lon="5.391497611999512"><ele></ele><time>2014-12-13T15:45:15Z</time></trkpt>
<trkpt lat="44.1549420543015" lon="5.391238275915384"><ele></ele><time>2014-12-13T15:45:18Z</time></trkpt>
<trkpt lat="44.15508328936994" lon="5.390993859618902"><ele></ele><time>2014-12-13T15:45:21Z</time></trkpt>
<trkpt lat="44.15517942979932" lon="5.390712562948465"><ele></ele><time>2014-12-13T15:45:24Z</time></trkpt>
<trkpt lat="44.15522787719965" lon="5.390566466376185"><ele></ele><time>2014-12-13T15:45:27Z</time></trkpt>
<trkpt lat="44.155283868312836" lon="5.3904026839882135"><ele></ele><time>2014-12-13T15:45:30Z</time></trkpt>
<trkpt lat="44.15536902844906" lon="5.390007393434644"><ele></ele><time>2014-12-13T15:45:33Z</time></trkpt>
<trkpt lat="44.15541931986809" lon="5.389820644631982"><ele></ele><time>2014-12-13T15:45:36Z</time></trkpt>
<trkpt lat="44.15542979724705" lon="5.389776723459363"><ele></ele><time>2014-12-13T15:45:39Z</time></trkpt>
<trkpt lat="44.15549861267209" lon="5.389577066525817"><ele></ele><time>2014-12-13T15:45:42Z</time></trkpt>
<trkpt lat="44.155538929626346" lon="5.389499366283417"><ele></ele><time>2014-12-13T15:45:45Z</time></trkpt>
<trkpt lat="44.15563783608377" lon="5.389232067391276"><ele></ele><time>2014-12-13T15:45:48Z</time></trkpt>
<trkpt lat="44.155803797766566" lon="5.388924032449722"><ele></ele><time>2014-12-13T15:45:51Z</time></trkpt>
<trkpt lat="44.15585006587207" lon="5.388827556744218"><ele></ele><time>2014-12-13T15:45:54Z</time></trkpt>
<trkpt lat="44.15595090016723" lon="5.388626307249069"><ele></ele><time>2014-12-13T15:45:57Z</time></trkpt>
<trkpt lat="44.15604813024402" lon="5.388464871793985"><ele></ele><time>2014-12-13T15:46:0Z</time></trkpt>
<trkpt lat="44.15610303170979" lon="5.388388093560934"><ele></ele><time>2014-12-13T15:46:3Z</time></trkpt>
<trkpt lat="44.156286930665374" lon="5.388181479647756"><ele></ele><time>2014-12-13T15:46:6Z</time></trkpt>
<trkpt lat="44.15634887292981" lon="5.388116184622049"><ele></ele><time>2014-12-13T15:46:9Z</time></trkpt>
<trkpt lat="44.15652128867805" lon="5.387914935126901"><ele></ele><time>2014-12-13T15:46:12Z</time></trkpt>
<trkpt lat="44.15681356564164" lon="5.38759583607316"><ele></ele><time>2014-12-13T15:46:15Z</time></trkpt>
<trkpt lat="44.15700408630073" lon="5.387438088655472"><ele></ele><time>2014-12-13T15:46:18Z</time></trkpt>
<trkpt lat="44.15702881291509" lon="5.387414367869496"><ele></ele><time>2014-12-13T15:46:21Z</time></trkpt>
<trkpt lat="44.1571488417685" lon="5.387298362329602"><ele></ele><time>2014-12-13T15:46:24Z</time></trkpt>
<trkpt lat="44.15718781761825" lon="5.3872529324144125"><ele></ele><time>2014-12-13T15:46:27Z</time></trkpt>
<trkpt lat="44.157210951671004" lon="5.387214291840792"><ele></ele><time>2014-12-13T15:46:30Z</time></trkpt>
<trkpt lat="44.15739946067333" lon="5.386970294639468"><ele></ele><time>2014-12-13T15:46:33Z</time></trkpt>
<trkpt lat="44.15766332298517" lon="5.38666058331728"><ele></ele><time>2014-12-13T15:46:36Z</time></trkpt>
<trkpt lat="44.15769249200821" lon="5.386608280241489"><ele></ele><time>2014-12-13T15:46:39Z</time></trkpt>
<trkpt lat="44.157818807289004" lon="5.386334527283907"><ele></ele><time>2014-12-13T15:46:42Z</time></trkpt>
<trkpt lat="44.15791712701321" lon="5.3859352972358465"><ele></ele><time>2014-12-13T15:46:45Z</time></trkpt>
<trkpt lat="44.15792165324092" lon="5.38587880320847"><ele></ele><time>2014-12-13T15:46:48Z</time></trkpt>
<trkpt lat="44.157905308529735" lon="5.385595662519336"><ele></ele><time>2014-12-13T15:46:51Z</time></trkpt>
<trkpt lat="44.15769735351205" lon="5.385287627577782"><ele></ele><time>2014-12-13T15:46:54Z</time></trkpt>
<trkpt lat="44.15762275457382" lon="5.3852178901433945"><ele></ele><time>2014-12-13T15:46:57Z</time></trkpt>
<trkpt lat="44.157569697126746" lon="5.38517220877111"><ele></ele><time>2014-12-13T15:47:0Z</time></trkpt>
<trkpt lat="44.157450422644615" lon="5.385025776922703"><ele></ele><time>2014-12-13T15:47:3Z</time></trkpt>
<trkpt lat="44.15731103159487" lon="5.384754287078977"><ele></ele><time>2014-12-13T15:47:6Z</time></trkpt>
<trkpt lat="44.15728940628469" lon="5.38471631705761"><ele></ele><time>2014-12-13T15:47:9Z</time></trkpt>
<trkpt lat="44.157149428501725" lon="5.384498052299023"><ele></ele><time>2014-12-13T15:47:12Z</time></trkpt>
<trkpt lat="44.15699964389205" lon="5.384271405637264"><ele></ele><time>2014-12-13T15:47:15Z</time></trkpt>
<trkpt lat="44.15680778212845" lon="5.384005028754473"><ele></ele><time>2014-12-13T15:47:18Z</time></trkpt>
<trkpt lat="44.15673779323697" lon="5.383911235257983"><ele></ele><time>2014-12-13T15:47:21Z</time></trkpt>
<trkpt lat="44.15670552290976" lon="5.383831271901727"><ele></ele><time>2014-12-13T15:47:24Z</time></trkpt>
<trkpt lat="44.156689178198576" lon="5.383634129539132"><ele></ele><time>2014-12-13T15:47:27Z</time></trkpt>
<trkpt lat="44.15670208632946" lon="5.383391892537475"><ele></ele><time>2014-12-13T15:47:30Z</time></trkpt>
<trkpt lat="44.15672538802028" lon="5.383271276950836"><ele></ele><time>2014-12-13T15:47:33Z</time></trkpt>
<trkpt lat="44.156747264787555" lon="5.383177399635315"><ele></ele><time>2014-12-13T15:47:36Z</time></trkpt>
<trkpt lat="44.15673092007637" lon="5.383171616122127"><ele></ele><time>2014-12-13T15:47:39Z</time></trkpt>
<trkpt lat="44.156737541779876" lon="5.383192654699087"><ele></ele><time>2014-12-13T15:47:42Z</time></trkpt>
<trkpt lat="44.15674785152078" lon="5.383240096271038"><ele></ele><time>2014-12-13T15:47:45Z</time></trkpt>
<trkpt lat="44.156744834035635" lon="5.383279826492071"><ele></ele><time>2014-12-13T15:47:48Z</time></trkpt>
<trkpt lat="44.15673837997019" lon="5.383487027138472"><ele></ele><time>2014-12-13T15:47:51Z</time></trkpt>
<trkpt lat="44.156739469617605" lon="5.383532540872693"><ele></ele><time>2014-12-13T15:47:54Z</time></trkpt>
<trkpt lat="44.156743828207254" lon="5.38365407846868"><ele></ele><time>2014-12-13T15:47:57Z</time></trkpt>
<trkpt lat="44.15674701333046" lon="5.383715685456991"><ele></ele><time>2014-12-13T15:48:0Z</time></trkpt>
<trkpt lat="44.156785821542144" lon="5.383769916370511"><ele></ele><time>2014-12-13T15:48:3Z</time></trkpt>
<trkpt lat="44.15681364946067" lon="5.383822889998555"><ele></ele><time>2014-12-13T15:48:6Z</time></trkpt>
<trkpt lat="44.15682320483029" lon="5.383849376812577"><ele></ele><time>2014-12-13T15:48:9Z</time></trkpt>
<trkpt lat="44.156889924779534" lon="5.383965717628598"><ele></ele><time>2014-12-13T15:48:12Z</time></trkpt>
<trkpt lat="44.156899731606245" lon="5.383994383737445"><ele></ele><time>2014-12-13T15:48:15Z</time></trkpt>
<trkpt lat="44.156901240348816" lon="5.384018691256642"><ele></ele><time>2014-12-13T15:48:18Z</time></trkpt>
<trkpt lat="44.15693258866668" lon="5.384152801707387"><ele></ele><time>2014-12-13T15:48:21Z</time></trkpt>
<trkpt lat="44.15691984817386" lon="5.384230250492692"><ele></ele><time>2014-12-13T15:48:24Z</time></trkpt>
<trkpt lat="44.156905598938465" lon="5.384253636002541"><ele></ele><time>2014-12-13T15:48:27Z</time></trkpt>
<trkpt lat="44.15686804801226" lon="5.38430199958384"><ele></ele><time>2014-12-13T15:48:30Z</time></trkpt>
<trkpt lat="44.1567605920136" lon="5.384351871907711"><ele></ele><time>2014-12-13T15:48:33Z</time></trkpt>
<trkpt lat="44.156660260632634" lon="5.3843904286623"><ele></ele><time>2014-12-13T15:48:36Z</time></trkpt>
<trkpt lat="44.15658717043698" lon="5.384456645697355"><ele></ele><time>2014-12-13T15:48:39Z</time></trkpt>
<trkpt lat="44.15663477964699" lon="5.3844871558249"><ele></ele><time>2014-12-13T15:48:42Z</time></trkpt>
<trkpt lat="44.15672270581126" lon="5.384520348161459"><ele></ele><time>2014-12-13T15:48:45Z</time></trkpt>
<trkpt lat="44.15677945129573" lon="5.384539542719722"><ele></ele><time>2014-12-13T15:48:48Z</time></trkpt>
<trkpt lat="44.156847009435296" lon="5.384564101696014"><ele></ele><time>2014-12-13T15:48:51Z</time></trkpt>
<trkpt lat="44.1569107118994" lon="5.384593773633242"><ele></ele><time>2014-12-13T15:48:54Z</time></trkpt>
<trkpt lat="44.15699880570173" lon="5.384662756696343"><ele></ele><time>2014-12-13T15:48:57Z</time></trkpt>
<trkpt lat="44.15707583539188" lon="5.3847516886889935"><ele></ele><time>2014-12-13T15:49:0Z</time></trkpt>
<trkpt lat="44.15711347013712" lon="5.384802483022213"><ele></ele><time>2014-12-13T15:49:3Z</time></trkpt>
<trkpt lat="44.15724607184529" lon="5.384957883507013"><ele></ele><time>2014-12-13T15:49:6Z</time></trkpt>
<trkpt lat="44.15737783536315" lon="5.385047402232885"><ele></ele><time>2014-12-13T15:49:9Z</time></trkpt>
<trkpt lat="44.15749819949269" lon="5.385132730007172"><ele></ele><time>2014-12-13T15:49:12Z</time></trkpt>
<trkpt lat="44.15754731744528" lon="5.385182183235884"><ele></ele><time>2014-12-13T15:49:15Z</time></trkpt>
<trkpt lat="44.15776424109936" lon="5.385273126885295"><ele></ele><time>2014-12-13T15:49:18Z</time></trkpt>
<trkpt lat="44.15786063298583" lon="5.38533397950232"><ele></ele><time>2014-12-13T15:49:21Z</time></trkpt>
<trkpt lat="44.15794872678816" lon="5.385375469923019"><ele></ele><time>2014-12-13T15:49:24Z</time></trkpt>
<trkpt lat="44.15807068347931" lon="5.385456690564752"><ele></ele><time>2014-12-13T15:49:27Z</time></trkpt>
<trkpt lat="44.15814603678882" lon="5.385548891499639"><ele></ele><time>2014-12-13T15:49:30Z</time></trkpt>
<trkpt lat="44.158195154741406" lon="5.385656598955393"><ele></ele><time>2014-12-13T15:49:33Z</time></trkpt>
<trkpt lat="44.15822122246027" lon="5.385785512626171"><ele></ele><time>2014-12-13T15:49:36Z</time></trkpt>
<trkpt lat="44.158251229673624" lon="5.386048033833504"><ele></ele><time>2014-12-13T15:49:39Z</time></trkpt>
<trkpt lat="44.158250810578465" lon="5.386110059916973"><ele></ele><time>2014-12-13T15:49:42Z</time></trkpt>
<trkpt lat="44.15824972093105" lon="5.386171583086252"><ele></ele><time>2014-12-13T15:49:45Z</time></trkpt>
<trkpt lat="44.15826028212905" lon="5.386349782347679"><ele></ele><time>2014-12-13T15:49:48Z</time></trkpt>
<trkpt lat="44.15827511809766" lon="5.386473583057523"><ele></ele><time>2014-12-13T15:49:51Z</time></trkpt>
<trkpt lat="44.15829012170434" lon="5.386536195874214"><ele></ele><time>2014-12-13T15:49:54Z</time></trkpt>
<trkpt lat="44.15835843421519" lon="5.386702325195074"><ele></ele><time>2014-12-13T15:49:57Z</time></trkpt>
<trkpt lat="44.158395482227206" lon="5.3867569752037525"><ele></ele><time>2014-12-13T15:50:0Z</time></trkpt>
<trkpt lat="44.1584612801671" lon="5.386879267171025"><ele></ele><time>2014-12-13T15:50:3Z</time></trkpt>
<trkpt lat="44.15852238424122" lon="5.387005750089884"><ele></ele><time>2014-12-13T15:50:6Z</time></trkpt>
<trkpt lat="44.15857845917344" lon="5.3871159721165895"><ele></ele><time>2014-12-13T15:50:9Z</time></trkpt>
<trkpt lat="44.158652974292636" lon="5.387265337631106"><ele></ele><time>2014-12-13T15:50:12Z</time></trkpt>
<trkpt lat="44.15868993848562" lon="5.387360556051135"><ele></ele><time>2014-12-13T15:50:15Z</time></trkpt>
<trkpt lat="44.15869086049497" lon="5.3873819299042225"><ele></ele><time>2014-12-13T15:50:18Z</time></trkpt>
<trkpt lat="44.15865020826459" lon="5.387474549934268"><ele></ele><time>2014-12-13T15:50:21Z</time></trkpt>
<trkpt lat="44.158636797219515" lon="5.387490224093199"><ele></ele><time>2014-12-13T15:50:24Z</time></trkpt>
<trkpt lat="44.158555744215846" lon="5.387544119730592"><ele></ele><time>2014-12-13T15:50:27Z</time></trkpt>
<trkpt lat="44.158496148884296" lon="5.387555770576"><ele></ele><time>2014-12-13T15:50:30Z</time></trkpt>
<trkpt lat="44.15846446529031" lon="5.3875586204230785"><ele></ele><time>2014-12-13T15:50:33Z</time></trkpt>
<trkpt lat="44.158327002078295" lon="5.387572031468153"><ele></ele><time>2014-12-13T15:50:36Z</time></trkpt>
<trkpt lat="44.158229269087315" lon="5.387606984004378"><ele></ele><time>2014-12-13T15:50:39Z</time></trkpt>
<trkpt lat="44.15807822719216" lon="5.387709578499198"><ele></ele><time>2014-12-13T15:50:42Z</time></trkpt>
<trkpt lat="44.158027013763785" lon="5.387751320376992"><ele></ele><time>2014-12-13T15:50:45Z</time></trkpt>
<trkpt lat="44.15797588415444" lon="5.3878004383295774"><ele></ele><time>2014-12-13T15:50:48Z</time></trkpt>
<trkpt lat="44.157927352935076" lon="5.387848885729909"><ele></ele><time>2014-12-13T15:50:51Z</time></trkpt>
<trkpt lat="44.157829619944096" lon="5.387955754995346"><ele></ele><time>2014-12-13T15:50:54Z</time></trkpt>
<trkpt lat="44.15778016671538" lon="5.38801115937531"><ele></ele><time>2014-12-13T15:50:57Z</time></trkpt>
<trkpt lat="44.15773146785796" lon="5.388068659231067"><ele></ele><time>2014-12-13T15:51:0Z</time></trkpt>
<trkpt lat="44.15758511982858" lon="5.388260604813695"><ele></ele><time>2014-12-13T15:51:3Z</time></trkpt>
<trkpt lat="44.157546646893024" lon="5.388322463259101"><ele></ele><time>2014-12-13T15:51:6Z</time></trkpt>
<trkpt lat="44.15751555003226" lon="5.3883808851242065"><ele></ele><time>2014-12-13T15:51:9Z</time></trkpt>
<trkpt lat="44.15748436935246" lon="5.388437630608678"><ele></ele><time>2014-12-13T15:51:12Z</time></trkpt>
<trkpt lat="44.15742385201156" lon="5.388554809615016"><ele></ele><time>2014-12-13T15:51:15Z</time></trkpt>
<trkpt lat="44.157310109585524" lon="5.3887092880904675"><ele></ele><time>2014-12-13T15:51:18Z</time></trkpt>
<trkpt lat="44.15727389976382" lon="5.3887563943862915"><ele></ele><time>2014-12-13T15:51:21Z</time></trkpt>
<trkpt lat="44.157209023833275" lon="5.388835268095136"><ele></ele><time>2014-12-13T15:51:24Z</time></trkpt>
<trkpt lat="44.15715890005231" lon="5.38889167830348"><ele></ele><time>2014-12-13T15:51:27Z</time></trkpt>
<trkpt lat="44.15710475295782" lon="5.388929145410657"><ele></ele><time>2014-12-13T15:51:30Z</time></trkpt>
<trkpt lat="44.15705110877752" lon="5.38894004188478"><ele></ele><time>2014-12-13T15:51:33Z</time></trkpt>
<trkpt lat="44.157016072422266" lon="5.388992680236697"><ele></ele><time>2014-12-13T15:51:36Z</time></trkpt>
<trkpt lat="44.1569952853024" lon="5.389019586145878"><ele></ele><time>2014-12-13T15:51:39Z</time></trkpt>
<trkpt lat="44.156975420191884" lon="5.389046911150217"><ele></ele><time>2014-12-13T15:51:42Z</time></trkpt>
<trkpt lat="44.156891936436296" lon="5.3891687002032995"><ele></ele><time>2014-12-13T15:51:45Z</time></trkpt>
<trkpt lat="44.156871400773525" lon="5.3892081789672375"><ele></ele><time>2014-12-13T15:51:48Z</time></trkpt>
<trkpt lat="44.156806357204914" lon="5.389356622472405"><ele></ele><time>2014-12-13T15:51:51Z</time></trkpt>
<trkpt lat="44.15675095282495" lon="5.3894738014787436"><ele></ele><time>2014-12-13T15:51:54Z</time></trkpt>
<trkpt lat="44.1567206941545" lon="5.389544628560543"><ele></ele><time>2014-12-13T15:51:57Z</time></trkpt>
<trkpt lat="44.156661769375205" lon="5.389706986024976"><ele></ele><time>2014-12-13T15:52:0Z</time></trkpt>
<trkpt lat="44.1566342767328" lon="5.389794576913118"><ele></ele><time>2014-12-13T15:52:3Z</time></trkpt>
<trkpt lat="44.15658817626536" lon="5.389963556081057"><ele></ele><time>2014-12-13T15:52:6Z</time></trkpt>
<trkpt lat="44.156554229557514" lon="5.390124069526792"><ele></ele><time>2014-12-13T15:52:9Z</time></trkpt>
<trkpt lat="44.156520534306765" lon="5.390266729518771"><ele></ele><time>2014-12-13T15:52:12Z</time></trkpt>
<trkpt lat="44.156498070806265" lon="5.390391955152154"><ele></ele><time>2014-12-13T15:52:15Z</time></trkpt>
<trkpt lat="44.15649144910276" lon="5.390457920730114"><ele></ele><time>2014-12-13T15:52:18Z</time></trkpt>
<trkpt lat="44.15648700669408" lon="5.3905269876122475"><ele></ele><time>2014-12-13T15:52:21Z</time></trkpt>
<trkpt lat="44.156489772722125" lon="5.390591360628605"><ele></ele><time>2014-12-13T15:52:24Z</time></trkpt>
<trkpt lat="44.15649295784533" lon="5.390719687566161"><ele></ele><time>2014-12-13T15:52:27Z</time></trkpt>
<trkpt lat="44.156491700559855" lon="5.390896378085017"><ele></ele><time>2014-12-13T15:52:30Z</time></trkpt>
<trkpt lat="44.15649245493114" lon="5.390997212380171"><ele></ele><time>2014-12-13T15:52:33Z</time></trkpt>
<trkpt lat="44.15649455040693" lon="5.391067620366812"><ele></ele><time>2014-12-13T15:52:36Z</time></trkpt>
<trkpt lat="44.156508799642324" lon="5.391136184334755"><ele></ele><time>2014-12-13T15:52:39Z</time></trkpt>
<trkpt lat="44.156554732471704" lon="5.391069212928414"><ele></ele><time>2014-12-13T15:52:42Z</time></trkpt>
<trkpt lat="44.15656613186002" lon="5.391006767749786"><ele></ele><time>2014-12-13T15:52:45Z</time></trkpt>
<trkpt lat="44.15655850432813" lon="5.390888163819909"><ele></ele><time>2014-12-13T15:52:48Z</time></trkpt>
<trkpt lat="44.15655439719558" lon="5.390781965106726"><ele></ele><time>2014-12-13T15:52:51Z</time></trkpt>
<trkpt lat="44.156565964221954" lon="5.390663361176848"><ele></ele><time>2014-12-13T15:52:54Z</time></trkpt>
<trkpt lat="44.15659127756953" lon="5.390551462769508"><ele></ele><time>2014-12-13T15:52:57Z</time></trkpt>
<trkpt lat="44.156636372208595" lon="5.3904430847615"><ele></ele><time>2014-12-13T15:53:0Z</time></trkpt>
<trkpt lat="44.15666922926903" lon="5.390386674553156"><ele></ele><time>2014-12-13T15:53:3Z</time></trkpt>
<trkpt lat="44.15677576325834" lon="5.390208223834634"><ele></ele><time>2014-12-13T15:53:6Z</time></trkpt>
<trkpt lat="44.15684524923563" lon="5.390103701502085"><ele></ele><time>2014-12-13T15:53:9Z</time></trkpt>
<trkpt lat="44.15691565722227" lon="5.390012674033642"><ele></ele><time>2014-12-13T15:53:12Z</time></trkpt>
<trkpt lat="44.15698640048504" lon="5.389933381229639"><ele></ele><time>2014-12-13T15:53:15Z</time></trkpt>
<trkpt lat="44.15715982206166" lon="5.3897799924016"><ele></ele><time>2014-12-13T15:53:18Z</time></trkpt>
<trkpt lat="44.15720642544329" lon="5.389744034036994"><ele></ele><time>2014-12-13T15:53:21Z</time></trkpt>
<trkpt lat="44.157293513417244" lon="5.389663400128484"><ele></ele><time>2014-12-13T15:53:24Z</time></trkpt>
<trkpt lat="44.15746182203293" lon="5.3895212430506945"><ele></ele><time>2014-12-13T15:53:27Z</time></trkpt>
<trkpt lat="44.15758855640888" lon="5.389434909448028"><ele></ele><time>2014-12-13T15:53:30Z</time></trkpt>
<trkpt lat="44.157701628282666" lon="5.389364333823323"><ele></ele><time>2014-12-13T15:53:33Z</time></trkpt>
<trkpt lat="44.157748986035585" lon="5.389337679371238"><ele></ele><time>2014-12-13T15:53:36Z</time></trkpt>
<trkpt lat="44.157798355445266" lon="5.389307672157884"><ele></ele><time>2014-12-13T15:53:39Z</time></trkpt>
<trkpt lat="44.157893154770136" lon="5.389255788177252"><ele></ele><time>2014-12-13T15:53:42Z</time></trkpt>
<trkpt lat="44.15802525356412" lon="5.3891807701438665"><ele></ele><time>2014-12-13T15:53:45Z</time></trkpt>
<trkpt lat="44.15806925855577" lon="5.389153193682432"><ele></ele><time>2014-12-13T15:53:48Z</time></trkpt>
<trkpt lat="44.158150563016534" lon="5.389093682169914"><ele></ele><time>2014-12-13T15:53:51Z</time></trkpt>
<trkpt lat="44.15822449140251" lon="5.389041882008314"><ele></ele><time>2014-12-13T15:53:54Z</time></trkpt>
<trkpt lat="44.158288445323706" lon="5.389003744348884"><ele></ele><time>2014-12-13T15:53:57Z</time></trkpt>
<trkpt lat="44.15831786580384" lon="5.3890070132911205"><ele></ele><time>2014-12-13T15:54:0Z</time></trkpt>
<trkpt lat="44.15837905369699" lon="5.389050934463739"><ele></ele><time>2014-12-13T15:54:3Z</time></trkpt>
<trkpt lat="44.158409060910344" lon="5.38908563554287"><ele></ele><time>2014-12-13T15:54:6Z</time></trkpt>
<trkpt lat="44.15847435593605" lon="5.389168364927173"><ele></ele><time>2014-12-13T15:54:9Z</time></trkpt>
<trkpt lat="44.158622631803155" lon="5.389326950535178"><ele></ele><time>2014-12-13T15:54:12Z</time></trkpt>
<trkpt lat="44.15865967981517" lon="5.389362741261721"><ele></ele><time>2014-12-13T15:54:15Z</time></trkpt>
<trkpt lat="44.158798567950726" lon="5.389474723488092"><ele></ele><time>2014-12-13T15:54:18Z</time></trkpt>
<trkpt lat="44.15888381190598" lon="5.389539012685418"><ele></ele><time>2014-12-13T15:54:21Z</time></trkpt>
<trkpt lat="44.158972073346376" lon="5.389605732634664"><ele></ele><time>2014-12-13T15:54:24Z</time></trkpt>
<trkpt lat="44.15908363647759" lon="5.389666249975562"><ele></ele><time>2014-12-13T15:54:27Z</time></trkpt>
<trkpt lat="44.159141555428505" lon="5.389690976589918"><ele></ele><time>2014-12-13T15:54:30Z</time></trkpt>
<trkpt lat="44.15919695980847" lon="5.389713775366545"><ele></ele><time>2014-12-13T15:54:33Z</time></trkpt>
<trkpt lat="44.15929821319878" lon="5.389758953824639"><ele></ele><time>2014-12-13T15:54:36Z</time></trkpt>
<trkpt lat="44.159405836835504" lon="5.389803629368544"><ele></ele><time>2014-12-13T15:54:39Z</time></trkpt>
<trkpt lat="44.15946342051029" lon="5.389824416488409"><ele></ele><time>2014-12-13T15:54:42Z</time></trkpt>
<trkpt lat="44.15951664559543" lon="5.389844700694084"><ele></ele><time>2014-12-13T15:54:45Z</time></trkpt>
<trkpt lat="44.15956609882414" lon="5.389864314347506"><ele></ele><time>2014-12-13T15:54:48Z</time></trkpt>
<trkpt lat="44.159651678055525" lon="5.389888873323798"><ele></ele><time>2014-12-13T15:54:51Z</time></trkpt>
<trkpt lat="44.159678500145674" lon="5.389899015426636"><ele></ele><time>2014-12-13T15:54:54Z</time></trkpt>
<trkpt lat="44.1597134526819" lon="5.389905385673046"><ele></ele><time>2014-12-13T15:54:57Z</time></trkpt>
<trkpt lat="44.159725941717625" lon="5.389900440350175"><ele></ele><time>2014-12-13T15:55:0Z</time></trkpt>
<trkpt lat="44.15974664501846" lon="5.389874121174216"><ele></ele><time>2014-12-13T15:55:3Z</time></trkpt>
<trkpt lat="44.15975536219776" lon="5.3898584470152855"><ele></ele><time>2014-12-13T15:55:6Z</time></trkpt>
<trkpt lat="44.15983289480209" lon="5.38976876065135"><ele></ele><time>2014-12-13T15:55:9Z</time></trkpt>
<trkpt lat="44.15989676490426" lon="5.389700951054692"><ele></ele><time>2014-12-13T15:55:12Z</time></trkpt>
<trkpt lat="44.159957114607096" lon="5.389639846980572"><ele></ele><time>2014-12-13T15:55:15Z</time></trkpt>
<trkpt lat="44.160015285015106" lon="5.389575641602278"><ele></ele><time>2014-12-13T15:55:18Z</time></trkpt>
<trkpt lat="44.160045040771365" lon="5.389537084847689"><ele></ele><time>2014-12-13T15:55:21Z</time></trkpt>
<trkpt lat="44.16018007323146" lon="5.389365339651704"><ele></ele><time>2014-12-13T15:55:24Z</time></trkpt>
<trkpt lat="44.16021334938705" lon="5.38932166993618"><ele></ele><time>2014-12-13T15:55:27Z</time></trkpt>
<trkpt lat="44.16030513122678" lon="5.389194767922163"><ele></ele><time>2014-12-13T15:55:30Z</time></trkpt>
<trkpt lat="44.160417867824435" lon="5.3890459053218365"><ele></ele><time>2014-12-13T15:55:33Z</time></trkpt>
<trkpt lat="44.160569999367" lon="5.388801321387291"><ele></ele><time>2014-12-13T15:55:36Z</time></trkpt>
<trkpt lat="44.160571256652474" lon="5.388731332495809"><ele></ele><time>2014-12-13T15:55:39Z</time></trkpt>
<trkpt lat="44.16056036017835" lon="5.388668803498149"><ele></ele><time>2014-12-13T15:55:42Z</time></trkpt>
<trkpt lat="44.16056404821575" lon="5.388652291148901"><ele></ele><time>2014-12-13T15:55:45Z</time></trkpt>
<trkpt lat="44.160573268309236" lon="5.3886412270367146"><ele></ele><time>2014-12-13T15:55:48Z</time></trkpt>
<trkpt lat="44.160583075135946" lon="5.388646675273776"><ele></ele><time>2014-12-13T15:55:51Z</time></trkpt>
<trkpt lat="44.160588858649135" lon="5.388660924509168"><ele></ele><time>2014-12-13T15:55:54Z</time></trkpt>
<trkpt lat="44.16059539653361" lon="5.388760333880782"><ele></ele><time>2014-12-13T15:55:57Z</time></trkpt>
<trkpt lat="44.160596653819084" lon="5.388801237568259"><ele></ele><time>2014-12-13T15:56:0Z</time></trkpt>
<trkpt lat="44.16059489361942" lon="5.388845661655068"><ele></ele><time>2014-12-13T15:56:3Z</time></trkpt>
<trkpt lat="44.16057880036533" lon="5.389010282233357"><ele></ele><time>2014-12-13T15:56:6Z</time></trkpt>
<trkpt lat="44.160571759566665" lon="5.389074822887778"><ele></ele><time>2014-12-13T15:56:9Z</time></trkpt>
<trkpt lat="44.16056220419705" lon="5.3891439735889435"><ele></ele><time>2014-12-13T15:56:12Z</time></trkpt>
<trkpt lat="44.160535549744964" lon="5.389286549761891"><ele></ele><time>2014-12-13T15:56:15Z</time></trkpt>
<trkpt lat="44.16046648286283" lon="5.389504982158542"><ele></ele><time>2014-12-13T15:56:18Z</time></trkpt>
<trkpt lat="44.16040680371225" lon="5.38964613340795"><ele></ele><time>2014-12-13T15:56:21Z</time></trkpt>
<trkpt lat="44.16033999994397" lon="5.389789799228311"><ele></ele><time>2014-12-13T15:56:24Z</time></trkpt>
<trkpt lat="44.16030286811292" lon="5.389858698472381"><ele></ele><time>2014-12-13T15:56:27Z</time></trkpt>
<trkpt lat="44.16026305407286" lon="5.389927513897419"><ele></ele><time>2014-12-13T15:56:30Z</time></trkpt>
<trkpt lat="44.160223826766014" lon="5.389993730932474"><ele></ele><time>2014-12-13T15:56:33Z</time></trkpt>
<trkpt lat="44.16009524837136" lon="5.39019338786602"><ele></ele><time>2014-12-13T15:56:36Z</time></trkpt>
<trkpt lat="44.16001008823514" lon="5.390322469174862"><ele></ele><time>2014-12-13T15:56:39Z</time></trkpt>
<trkpt lat="44.159966921433806" lon="5.390378711745143"><ele></ele><time>2014-12-13T15:56:42Z</time></trkpt>
<trkpt lat="44.15992886759341" lon="5.390426740050316"><ele></ele><time>2014-12-13T15:56:45Z</time></trkpt>
<trkpt lat="44.15985678322613" lon="5.390495555475354"><ele></ele><time>2014-12-13T15:56:48Z</time></trkpt>
<trkpt lat="44.1598239261657" lon="5.390519527718425"><ele></ele><time>2014-12-13T15:56:51Z</time></trkpt>
<trkpt lat="44.15978352539241" lon="5.390528831630945"><ele></ele><time>2014-12-13T15:56:54Z</time></trkpt>
<trkpt lat="44.15963105857372" lon="5.390526317059994"><ele></ele><time>2014-12-13T15:56:57Z</time></trkpt>
<trkpt lat="44.15957808494568" lon="5.390535537153482"><ele></ele><time>2014-12-13T15:57:0Z</time></trkpt>
<trkpt lat="44.159522261470556" lon="5.390543080866337"><ele></ele><time>2014-12-13T15:57:3Z</time></trkpt>
<trkpt lat="44.15939879603684" lon="5.3905688133090734"><ele></ele><time>2014-12-13T15:57:6Z</time></trkpt>
<trkpt lat="44.159328723326325" lon="5.390578033402562"><ele></ele><time>2014-12-13T15:57:9Z</time></trkpt>
<trkpt lat="44.15920525789261" lon="5.390599491074681"><ele></ele><time>2014-12-13T15:57:12Z</time></trkpt>
<trkpt lat="44.15907005779445" lon="5.390621032565832"><ele></ele><time>2014-12-13T15:57:15Z</time></trkpt>
<trkpt lat="44.15886126458645" lon="5.390647267922759"><ele></ele><time>2014-12-13T15:57:18Z</time></trkpt>
<trkpt lat="44.15879236534238" lon="5.390652967616916"><ele></ele><time>2014-12-13T15:57:21Z</time></trkpt>
<trkpt lat="44.158663619309664" lon="5.390646513551474"><ele></ele><time>2014-12-13T15:57:24Z</time></trkpt>
<trkpt lat="44.15860444307327" lon="5.390633940696716"><ele></ele><time>2014-12-13T15:57:27Z</time></trkpt>
<trkpt lat="44.158552810549736" lon="5.390614410862327"><ele></ele><time>2014-12-13T15:57:30Z</time></trkpt>
<trkpt lat="44.15845910087228" lon="5.390585828572512"><ele></ele><time>2014-12-13T15:57:33Z</time></trkpt>
<trkpt lat="44.158392967656255" lon="5.390576859936118"><ele></ele><time>2014-12-13T15:57:36Z</time></trkpt>
<trkpt lat="44.15837218053639" lon="5.390588007867336"><ele></ele><time>2014-12-13T15:57:39Z</time></trkpt>
<trkpt lat="44.15835809893906" lon="5.390605693683028"><ele></ele><time>2014-12-13T15:57:42Z</time></trkpt>
<trkpt lat="44.15833915583789" lon="5.390636958181858"><ele></ele><time>2014-12-13T15:57:45Z</time></trkpt>
<trkpt lat="44.158321218565106" lon="5.390685154125094"><ele></ele><time>2014-12-13T15:57:48Z</time></trkpt>
<trkpt lat="44.15826522745192" lon="5.390858575701714"><ele></ele><time>2014-12-13T15:57:51Z</time></trkpt>
<trkpt lat="44.15821962989867" lon="5.390980700030923"><ele></ele><time>2014-12-13T15:57:54Z</time></trkpt>
<trkpt lat="44.15820118971169" lon="5.391051694750786"><ele></ele><time>2014-12-13T15:57:57Z</time></trkpt>
<trkpt lat="44.15818618610501" lon="5.391126545146108"><ele></ele><time>2014-12-13T15:58:0Z</time></trkpt>
<trkpt lat="44.15818308480084" lon="5.391192007809877"><ele></ele><time>2014-12-13T15:58:3Z</time></trkpt>
<trkpt lat="44.15818995796144" lon="5.391261409968138"><ele></ele><time>2014-12-13T15:58:6Z</time></trkpt>
<trkpt lat="44.15821451693773" lon="5.391404824331403"><ele></ele><time>2014-12-13T15:58:9Z</time></trkpt>
<trkpt lat="44.15822692215443" lon="5.3914805967360735"><ele></ele><time>2014-12-13T15:58:12Z</time></trkpt>
<trkpt lat="44.15823882445693" lon="5.391555363312364"><ele></ele><time>2014-12-13T15:58:15Z</time></trkpt>
<trkpt lat="44.15825944393873" lon="5.3917082492262125"><ele></ele><time>2014-12-13T15:58:18Z</time></trkpt>
<trkpt lat="44.15827729739249" lon="5.391866164281964"><ele></ele><time>2014-12-13T15:58:21Z</time></trkpt>
<trkpt lat="44.15828819386661" lon="5.39201301522553"><ele></ele><time>2014-12-13T15:58:24Z</time></trkpt>
<trkpt lat="44.15829992853105" lon="5.392126003280282"><ele></ele><time>2014-12-13T15:58:27Z</time></trkpt>
<trkpt lat="44.15830562822521" lon="5.392180234193802"><ele></ele><time>2014-12-13T15:58:30Z</time></trkpt>
<trkpt lat="44.15831258520484" lon="5.39228324778378"><ele></ele><time>2014-12-13T15:58:33Z</time></trkpt>
<trkpt lat="44.1583127528429" lon="5.3923591040074825"><ele></ele><time>2014-12-13T15:58:36Z</time></trkpt>
<trkpt lat="44.15825491771102" lon="5.392520120367408"><ele></ele><time>2014-12-13T15:58:39Z</time></trkpt>
<trkpt lat="44.158216025680304" lon="5.3926153387874365"><ele></ele><time>2014-12-13T15:58:42Z</time></trkpt>
<trkpt lat="44.158082753419876" lon="5.392819689586759"><ele></ele><time>2014-12-13T15:58:45Z</time></trkpt>
<trkpt lat="44.15804126299918" lon="5.392862940207124"><ele></ele><time>2014-12-13T15:58:48Z</time></trkpt>
<trkpt lat="44.15799885056913" lon="5.3929009940475225"><ele></ele><time>2014-12-13T15:58:51Z</time></trkpt>
<trkpt lat="44.15795995853841" lon="5.392937874421477"><ele></ele><time>2014-12-13T15:58:54Z</time></trkpt>
<trkpt lat="44.15792223997414" lon="5.392973581328988"><ele></ele><time>2014-12-13T15:58:57Z</time></trkpt>
<trkpt lat="44.157844204455614" lon="5.393034936860204"><ele></ele><time>2014-12-13T15:59:0Z</time></trkpt>
<trkpt lat="44.157740604132414" lon="5.393134681507945"><ele></ele><time>2014-12-13T15:59:3Z</time></trkpt>
<trkpt lat="44.15771051310003" lon="5.3931881580501795"><ele></ele><time>2014-12-13T15:59:6Z</time></trkpt>
<trkpt lat="44.157711770385504" lon="5.3932214342057705"><ele></ele><time>2014-12-13T15:59:9Z</time></trkpt>
<trkpt lat="44.15772090665996" lon="5.393251860514283"><ele></ele><time>2014-12-13T15:59:12Z</time></trkpt>
<trkpt lat="44.15774194523692" lon="5.39327222853899"><ele></ele><time>2014-12-13T15:59:15Z</time></trkpt>
<trkpt lat="44.15780816227198" lon="5.393278347328305"><ele></ele><time>2014-12-13T15:59:18Z</time></trkpt>
<trkpt lat="44.15782299824059" lon="5.3932765033096075"><ele></ele><time>2014-12-13T15:59:21Z</time></trkpt>
<trkpt lat="44.157837415114045" lon="5.3932747431099415"><ele></ele><time>2014-12-13T15:59:24Z</time></trkpt>
<trkpt lat="44.15800329297781" lon="5.393124287948012"><ele></ele><time>2014-12-13T15:59:27Z</time></trkpt>
<trkpt lat="44.15803221054375" lon="5.393069637939334"><ele></ele><time>2014-12-13T15:59:30Z</time></trkpt>
<trkpt lat="44.158135978505015" lon="5.392976179718971"><ele></ele><time>2014-12-13T15:59:33Z</time></trkpt>
<trkpt lat="44.15819783695042" lon="5.392938796430826"><ele></ele><time>2014-12-13T15:59:36Z</time></trkpt>
<trkpt lat="44.15829800069332" lon="5.392892276868224"><ele></ele><time>2014-12-13T15:59:39Z</time></trkpt>
<trkpt lat="44.15838919579983" lon="5.392856318503618"><ele></ele><time>2014-12-13T15:59:42Z</time></trkpt>
<trkpt lat="44.15843487717211" lon="5.392840309068561"><ele></ele><time>2014-12-13T15:59:45Z</time></trkpt>
<trkpt lat="44.15857066400349" lon="5.392756657674909"><ele></ele><time>2014-12-13T15:59:48Z</time></trkpt>
<trkpt lat="44.158616345375776" lon="5.392611483111978"><ele></ele><time>2014-12-13T15:59:51Z</time></trkpt>
<trkpt lat="44.15862925350666" lon="5.392561191692948"><ele></ele><time>2014-12-13T15:59:54Z</time></trkpt>
<trkpt lat="44.1587583348155" lon="5.392390787601471"><ele></ele><time>2014-12-13T15:59:57Z</time></trkpt>
<trkpt lat="44.15875095874071" lon="5.392350135371089"><ele></ele><time>2014-12-13T16:0:0Z</time></trkpt>
<trkpt lat="44.15874685160816" lon="5.392195405438542"><ele></ele><time>2014-12-13T16:0:3Z</time></trkpt>
<trkpt lat="44.15875095874071" lon="5.392050817608833"><ele></ele><time>2014-12-13T16:0:6Z</time></trkpt>
<trkpt lat="44.15881399065256" lon="5.391899943351746"><ele></ele><time>2014-12-13T16:0:9Z</time></trkpt>
<trkpt lat="44.15884374640882" lon="5.391776477918029"><ele></ele><time>2014-12-13T16:0:12Z</time></trkpt>
<trkpt lat="44.158885991200805" lon="5.3916617296636105"><ele></ele><time>2014-12-13T16:0:15Z</time></trkpt>
<trkpt lat="44.15890191681683" lon="5.39161286316812"><ele></ele><time>2014-12-13T16:0:18Z</time></trkpt>
<trkpt lat="44.15895086713135" lon="5.391533486545086"><ele></ele><time>2014-12-13T16:0:21Z</time></trkpt>
<trkpt lat="44.15898120962083" lon="5.391556536778808"><ele></ele><time>2014-12-13T16:0:24Z</time></trkpt>
<trkpt lat="44.15900710970163" lon="5.3915878012776375"><ele></ele><time>2014-12-13T16:0:27Z</time></trkpt>
<trkpt lat="44.15906444191933" lon="5.391641361638904"><ele></ele><time>2014-12-13T16:0:30Z</time></trkpt>
<trkpt lat="44.15918279439211" lon="5.391713446006179"><ele></ele><time>2014-12-13T16:0:33Z</time></trkpt>
<trkpt lat="44.15926242247224" lon="5.391752757132053"><ele></ele><time>2014-12-13T16:0:36Z</time></trkpt>
<trkpt lat="44.15934506803751" lon="5.391789637506008"><ele></ele><time>2014-12-13T16:0:39Z</time></trkpt>
<trkpt lat="44.159423438832164" lon="5.391812101006508"><ele></ele><time>2014-12-13T16:0:42Z</time></trkpt>
<trkpt lat="44.15949619375169" lon="5.391824254766107"><ele></ele><time>2014-12-13T16:0:45Z</time></trkpt>
<trkpt lat="44.159608678892255" lon="5.391825512051582"><ele></ele><time>2014-12-13T16:0:48Z</time></trkpt>
<trkpt lat="44.159686882048845" lon="5.391833139583468"><ele></ele><time>2014-12-13T16:0:51Z</time></trkpt>
<trkpt lat="44.15977858006954" lon="5.391839509829879"><ele></ele><time>2014-12-13T16:0:54Z</time></trkpt>
<trkpt lat="44.159833481535316" lon="5.391840012744069"><ele></ele><time>2014-12-13T16:0:57Z</time></trkpt>
<trkpt lat="44.15988880209625" lon="5.391832301393151"><ele></ele><time>2014-12-13T16:1:0Z</time></trkpt>
<trkpt lat="44.15995351038873" lon="5.391822326928377"><ele></ele><time>2014-12-13T16:1:3Z</time></trkpt>
<trkpt lat="44.16012894362211" lon="5.391737585887313"><ele></ele><time>2014-12-13T16:1:6Z</time></trkpt>
<trkpt lat="44.160181917250156" lon="5.391702717170119"><ele></ele><time>2014-12-13T16:1:9Z</time></trkpt>
<trkpt lat="44.16022935882211" lon="5.391673548147082"><ele></ele><time>2014-12-13T16:1:12Z</time></trkpt>
<trkpt lat="44.160385010764" lon="5.391555028036237"><ele></ele><time>2014-12-13T16:1:15Z</time></trkpt>
<trkpt lat="44.16049238294363" lon="5.391463246196508"><ele></ele><time>2014-12-13T16:1:18Z</time></trkpt>
<trkpt lat="44.1605993360281" lon="5.391363836824894"><ele></ele><time>2014-12-13T16:1:21Z</time></trkpt>
<trkpt lat="44.16070628911257" lon="5.391247915104032"><ele></ele><time>2014-12-13T16:1:24Z</time></trkpt>
<trkpt lat="44.16076303459704" lon="5.391184547916055"><ele></ele><time>2014-12-13T16:1:27Z</time></trkpt>
<trkpt lat="44.16082422249019" lon="5.391119755804539"><ele></ele><time>2014-12-13T16:1:30Z</time></trkpt>
<trkpt lat="44.16095372289419" lon="5.390977263450623"><ele></ele><time>2014-12-13T16:1:33Z</time></trkpt>
<trkpt lat="44.16108942590654" lon="5.3908247128129005"><ele></ele><time>2014-12-13T16:1:36Z</time></trkpt>
<trkpt lat="44.16115966625512" lon="5.390742318704724"><ele></ele><time>2014-12-13T16:1:39Z</time></trkpt>
<trkpt lat="44.16122722439468" lon="5.390665456652641"><ele></ele><time>2014-12-13T16:1:42Z</time></trkpt>
<trkpt lat="44.16135781444609" lon="5.390521790832281"><ele></ele><time>2014-12-13T16:1:45Z</time></trkpt>
<trkpt lat="44.16147205978632" lon="5.390375275164843"><ele></ele><time>2014-12-13T16:1:48Z</time></trkpt>
<trkpt lat="44.16150726377964" lon="5.390300257131457"><ele></ele><time>2014-12-13T16:1:51Z</time></trkpt>
<trkpt lat="44.1615457367152" lon="5.390224903821945"><ele></ele><time>2014-12-13T16:1:54Z</time></trkpt>
<trkpt lat="44.16165428236127" lon="5.389977050945163"><ele></ele><time>2014-12-13T16:1:57Z</time></trkpt>
<trkpt lat="44.16172167286277" lon="5.389807065948844"><ele></ele><time>2014-12-13T16:2:0Z</time></trkpt>
<trkpt lat="44.16175939142704" lon="5.389718133956194"><ele></ele><time>2014-12-13T16:2:3Z</time></trkpt>
<trkpt lat="44.16182619519532" lon="5.389539934694767"><ele></ele><time>2014-12-13T16:2:6Z</time></trkpt>
<trkpt lat="44.16187975555658" lon="5.389369614422321"><ele></ele><time>2014-12-13T16:2:9Z</time></trkpt>
<trkpt lat="44.16191294789314" lon="5.38928646594286"><ele></ele><time>2014-12-13T16:2:12Z</time></trkpt>
<trkpt lat="44.16194597259164" lon="5.389202898368239"><ele></ele><time>2014-12-13T16:2:15Z</time></trkpt>
<trkpt lat="44.162019146606326" lon="5.389029728248715"><ele></ele><time>2014-12-13T16:2:18Z</time></trkpt>
<trkpt lat="44.16205443441868" lon="5.388945071026683"><ele></ele><time>2014-12-13T16:2:21Z</time></trkpt>
<trkpt lat="44.16211662814021" lon="5.388798471540213"><ele></ele><time>2014-12-13T16:2:24Z</time></trkpt>
<trkpt lat="44.16214345023036" lon="5.388727309182286"><ele></ele><time>2014-12-13T16:2:27Z</time></trkpt>
<trkpt lat="44.16217136196792" lon="5.388648770749569"><ele></ele><time>2014-12-13T16:2:30Z</time></trkpt>
<trkpt lat="44.162250654771924" lon="5.3883950505405664"><ele></ele><time>2014-12-13T16:2:33Z</time></trkpt>
<trkpt lat="44.16227504611015" lon="5.388312488794327"><ele></ele><time>2014-12-13T16:2:36Z</time></trkpt>
<trkpt lat="44.1622952464968" lon="5.388225819915533"><ele></ele><time>2014-12-13T16:2:39Z</time></trkpt>
<trkpt lat="44.1623158659786" lon="5.388058349490166"><ele></ele><time>2014-12-13T16:2:42Z</time></trkpt>
<trkpt lat="44.16232424788177" lon="5.387884257361293"><ele></ele><time>2014-12-13T16:2:45Z</time></trkpt>
<trkpt lat="44.16231393814087" lon="5.387804880738258"><ele></ele><time>2014-12-13T16:2:48Z</time></trkpt>
<trkpt lat="44.162304969504476" lon="5.387734053656459"><ele></ele><time>2014-12-13T16:2:51Z</time></trkpt>
<trkpt lat="44.162270771339536" lon="5.387590974569321"><ele></ele><time>2014-12-13T16:2:54Z</time></trkpt>
<trkpt lat="44.16225325316191" lon="5.387530038133264"><ele></ele><time>2014-12-13T16:2:57Z</time></trkpt>
<trkpt lat="44.162235064432025" lon="5.38748444058001"><ele></ele><time>2014-12-13T16:3:0Z</time></trkpt>
<trkpt lat="44.16220614686608" lon="5.3874228335917"><ele></ele><time>2014-12-13T16:3:3Z</time></trkpt>
<trkpt lat="44.16220488958061" lon="5.387382684275508"><ele></ele><time>2014-12-13T16:3:6Z</time></trkpt>
<trkpt lat="44.16221478022635" lon="5.387391988188028"><ele></ele><time>2014-12-13T16:3:9Z</time></trkpt>
<trkpt lat="44.16218334808946" lon="5.387467090040445"><ele></ele><time>2014-12-13T16:3:12Z</time></trkpt>
<trkpt lat="44.16219969280064" lon="5.387555016204715"><ele></ele><time>2014-12-13T16:3:15Z</time></trkpt>
<trkpt lat="44.16222458705306" lon="5.387642355635762"><ele></ele><time>2014-12-13T16:3:18Z</time></trkpt>
<trkpt lat="44.16227295063436" lon="5.387830277904868"><ele></ele><time>2014-12-13T16:3:21Z</time></trkpt>
<trkpt lat="44.16233254596591" lon="5.3880922961980104"><ele></ele><time>2014-12-13T16:3:24Z</time></trkpt>
<trkpt lat="44.16235794313252" lon="5.388284157961607"><ele></ele><time>2014-12-13T16:3:27Z</time></trkpt>
<trkpt lat="44.16235785931349" lon="5.388476271182299"><ele></ele><time>2014-12-13T16:3:30Z</time></trkpt>
<trkpt lat="44.162347465753555" lon="5.388665031641722"><ele></ele><time>2014-12-13T16:3:33Z</time></trkpt>
<trkpt lat="44.1623243317008" lon="5.3888291493058205"><ele></ele><time>2014-12-13T16:3:36Z</time></trkpt>
<trkpt lat="44.16230916045606" lon="5.3889112919569016"><ele></ele><time>2014-12-13T16:3:39Z</time></trkpt>
<trkpt lat="44.162300610914826" lon="5.388998966664076"><ele></ele><time>2014-12-13T16:3:42Z</time></trkpt>
<trkpt lat="44.1622725315392" lon="5.389199545606971"><ele></ele><time>2014-12-13T16:3:45Z</time></trkpt>
<trkpt lat="44.16225383989513" lon="5.389304738491774"><ele></ele><time>2014-12-13T16:3:48Z</time></trkpt>
<trkpt lat="44.16220304556191" lon="5.389612438157201"><ele></ele><time>2014-12-13T16:3:51Z</time></trkpt>
<trkpt lat="44.16217722930014" lon="5.389804383739829"><ele></ele><time>2014-12-13T16:3:54Z</time></trkpt>
<trkpt lat="44.16216851212084" lon="5.389903290197253"><ele></ele><time>2014-12-13T16:3:57Z</time></trkpt>
<trkpt lat="44.16215761564672" lon="5.3900068905204535"><ele></ele><time>2014-12-13T16:4:0Z</time></trkpt>
<trkpt lat="44.1621276922524" lon="5.390204703435302"><ele></ele><time>2014-12-13T16:4:3Z</time></trkpt>
<trkpt lat="44.16211495175958" lon="5.3903108183294535"><ele></ele><time>2014-12-13T16:4:6Z</time></trkpt>
<trkpt lat="44.16208821348846" lon="5.39052220992744"><ele></ele><time>2014-12-13T16:4:9Z</time></trkpt>
<trkpt lat="44.16206834837794" lon="5.390723794698715"><ele></ele><time>2014-12-13T16:4:12Z</time></trkpt>
<trkpt lat="44.1620497405529" lon="5.3909325040876865"><ele></ele><time>2014-12-13T16:4:15Z</time></trkpt>
<trkpt lat="44.16201487183571" lon="5.391153451055288"><ele></ele><time>2014-12-13T16:4:18Z</time></trkpt>
<trkpt lat="44.16199441999197" lon="5.3912638407200575"><ele></ele><time>2014-12-13T16:4:21Z</time></trkpt>
<trkpt lat="44.16197304613888" lon="5.391375571489334"><ele></ele><time>2014-12-13T16:4:24Z</time></trkpt>
<trkpt lat="44.1619479842484" lon="5.3914897330105305"><ele></ele><time>2014-12-13T16:4:27Z</time></trkpt>
<trkpt lat="44.161880342289805" lon="5.391709925606847"><ele></ele><time>2014-12-13T16:4:30Z</time></trkpt>
<trkpt lat="44.16184195317328" lon="5.3918154537677765"><ele></ele><time>2014-12-13T16:4:33Z</time></trkpt>
<trkpt lat="44.16180054657161" lon="5.391920981928706"><ele></ele><time>2014-12-13T16:4:36Z</time></trkpt>
<trkpt lat="44.16170951910317" lon="5.392136061564088"><ele></ele><time>2014-12-13T16:4:39Z</time></trkpt>
<trkpt lat="44.16161807253957" lon="5.39236044511199"><ele></ele><time>2014-12-13T16:4:42Z</time></trkpt>
<trkpt lat="44.16149460710585" lon="5.392567813396454"><ele></ele><time>2014-12-13T16:4:45Z</time></trkpt>
<trkpt lat="44.161358904093504" lon="5.392775181680918"><ele></ele><time>2014-12-13T16:4:48Z</time></trkpt>
<trkpt lat="44.161213310435414" lon="5.392972491681576"><ele></ele><time>2014-12-13T16:4:51Z</time></trkpt>
<trkpt lat="44.16107350029051" lon="5.393172986805439"><ele></ele><time>2014-12-13T16:4:54Z</time></trkpt>
<trkpt lat="44.16094249114394" lon="5.393378175795078"><ele></ele><time>2014-12-13T16:4:57Z</time></trkpt>
<trkpt lat="44.16081299073994" lon="5.3935816045850515"><ele></ele><time>2014-12-13T16:5:0Z</time></trkpt>
<trkpt lat="44.1607565805316" lon="5.393666932359338"><ele></ele><time>2014-12-13T16:5:3Z</time></trkpt>
<trkpt lat="44.160706205293536" lon="5.393745554611087"><ele></ele><time>2014-12-13T16:5:6Z</time></trkpt>
<trkpt lat="44.160659266635776" lon="5.39382048882544"><ele></ele><time>2014-12-13T16:5:9Z</time></trkpt>
<trkpt lat="44.16062079370022" lon="5.393862314522266"><ele></ele><time>2014-12-13T16:5:12Z</time></trkpt>
<trkpt lat="44.160540495067835" lon="5.393937835469842"><ele></ele><time>2014-12-13T16:5:15Z</time></trkpt>
<trkpt lat="44.16050110012293" lon="5.393971279263496"><ele></ele><time>2014-12-13T16:5:18Z</time></trkpt>
<trkpt lat="44.16039708070457" lon="5.394016792997718"><ele></ele><time>2014-12-13T16:5:21Z</time></trkpt>
<trkpt lat="44.16034620255232" lon="5.394029533490539"><ele></ele><time>2014-12-13T16:5:24Z</time></trkpt>
<trkpt lat="44.16030144318938" lon="5.394049566239119"><ele></ele><time>2014-12-13T16:5:27Z</time></trkpt>
<trkpt lat="44.16023287922144" lon="5.394091391935945"><ele></ele><time>2014-12-13T16:5:30Z</time></trkpt>
<trkpt lat="44.16021293029189" lon="5.394109832122922"><ele></ele><time>2014-12-13T16:5:33Z</time></trkpt>
<trkpt lat="44.1601934004575" lon="5.394144952297211"><ele></ele><time>2014-12-13T16:5:36Z</time></trkpt>
<trkpt lat="44.16019189171493" lon="5.39418937638402"><ele></ele><time>2014-12-13T16:5:39Z</time></trkpt>
<trkpt lat="44.16024821810424" lon="5.39431937970221"><ele></ele><time>2014-12-13T16:5:42Z</time></trkpt>
<trkpt lat="44.16026850230992" lon="5.394369503483176"><ele></ele><time>2014-12-13T16:5:45Z</time></trkpt>
<trkpt lat="44.16029389947653" lon="5.394424740225077"><ele></ele><time>2014-12-13T16:5:48Z</time></trkpt>
<trkpt lat="44.16036590002477" lon="5.394594641402364"><ele></ele><time>2014-12-13T16:5:51Z</time></trkpt>
<trkpt lat="44.160390291363" lon="5.394656918942928"><ele></ele><time>2014-12-13T16:5:54Z</time></trkpt>
<trkpt lat="44.16041325777769" lon="5.394718861207366"><ele></ele><time>2014-12-13T16:5:57Z</time></trkpt>
<trkpt lat="44.16043479926884" lon="5.3947891015559435"><ele></ele><time>2014-12-13T16:6:0Z</time></trkpt>
<trkpt lat="44.16046539321542" lon="5.394944082945585"><ele></ele><time>2014-12-13T16:6:3Z</time></trkpt>
<trkpt lat="44.16046648286283" lon="5.395150613039732"><ele></ele><time>2014-12-13T16:6:6Z</time></trkpt>
<trkpt lat="44.160441840067506" lon="5.395268630236387"><ele></ele><time>2014-12-13T16:6:9Z</time></trkpt>
<trkpt lat="44.16038886643946" lon="5.395497288554907"><ele></ele><time>2014-12-13T16:6:12Z</time></trkpt>
<trkpt lat="44.16034821420908" lon="5.395710356533527"><ele></ele><time>2014-12-13T16:6:15Z</time></trkpt>
<trkpt lat="44.16031938046217" lon="5.395925100892782"><ele></ele><time>2014-12-13T16:6:18Z</time></trkpt>
<trkpt lat="44.16029892861843" lon="5.396115705370903"><ele></ele><time>2014-12-13T16:6:21Z</time></trkpt>
<trkpt lat="44.16028870269656" lon="5.396214695647359"><ele></ele><time>2014-12-13T16:6:24Z</time></trkpt>
<trkpt lat="44.160278057679534" lon="5.396313015371561"><ele></ele><time>2014-12-13T16:6:27Z</time></trkpt>
<trkpt lat="44.16025383397937" lon="5.396509738638997"><ele></ele><time>2014-12-13T16:6:30Z</time></trkpt>
<trkpt lat="44.16022416204214" lon="5.396718950942159"><ele></ele><time>2014-12-13T16:6:33Z</time></trkpt>
<trkpt lat="44.16019474156201" lon="5.396927911788225"><ele></ele><time>2014-12-13T16:6:36Z</time></trkpt>
<trkpt lat="44.160177893936634" lon="5.397032098844647"><ele></ele><time>2014-12-13T16:6:39Z</time></trkpt>
<trkpt lat="44.160161800682545" lon="5.397139806300402"><ele></ele><time>2014-12-13T16:6:42Z</time></trkpt>
<trkpt lat="44.16014109738171" lon="5.397240808233619"><ele></ele><time>2014-12-13T16:6:45Z</time></trkpt>
<trkpt lat="44.16009751148522" lon="5.397435016930103"><ele></ele><time>2014-12-13T16:6:48Z</time></trkpt>
<trkpt lat="44.16004914790392" lon="5.397620843723416"><ele></ele><time>2014-12-13T16:6:51Z</time></trkpt>
<trkpt lat="44.16002676822245" lon="5.397709105163813"><ele></ele><time>2014-12-13T16:6:54Z</time></trkpt>
<trkpt lat="44.1600086633116" lon="5.397766521200538"><ele></ele><time>2014-12-13T16:6:57Z</time></trkpt>
<trkpt lat="44.159966418519616" lon="5.397882107645273"><ele></ele><time>2014-12-13T16:7:0Z</time></trkpt>
<trkpt lat="44.15993926115334" lon="5.397941702976823"><ele></ele><time>2014-12-13T16:7:3Z</time></trkpt>
<trkpt lat="44.159896429628134" lon="5.398000376299024"><ele></ele><time>2014-12-13T16:7:6Z</time></trkpt>
<trkpt lat="44.159851586446166" lon="5.398051925003529"><ele></ele><time>2014-12-13T16:7:9Z</time></trkpt>
<trkpt lat="44.15981059893966" lon="5.398104395717382"><ele></ele><time>2014-12-13T16:7:12Z</time></trkpt>
<trkpt lat="44.15976726450026" lon="5.398153513669968"><ele></ele><time>2014-12-13T16:7:15Z</time></trkpt>
<trkpt lat="44.159689312800765" lon="5.398222161456943"><ele></ele><time>2014-12-13T16:7:18Z</time></trkpt>
<trkpt lat="44.1596632450819" lon="5.398236829787493"><ele></ele><time>2014-12-13T16:7:21Z</time></trkpt>
<trkpt lat="44.15955872274935" lon="5.398298017680645"><ele></ele><time>2014-12-13T16:7:24Z</time></trkpt>
<trkpt lat="44.15945738554001" lon="5.398335987702012"><ele></ele><time>2014-12-13T16:7:27Z</time></trkpt>
<trkpt lat="44.15935965254903" lon="5.398383513092995"><ele></ele><time>2014-12-13T16:7:30Z</time></trkpt>
<trkpt lat="44.159268625080585" lon="5.398421064019203"><ele></ele><time>2014-12-13T16:7:33Z</time></trkpt>
<trkpt lat="44.15912948548794" lon="5.398495327681303"><ele></ele><time>2014-12-13T16:7:36Z</time></trkpt>
<trkpt lat="44.15909260511398" lon="5.39852106012404"><ele></ele><time>2014-12-13T16:7:39Z</time></trkpt>
<trkpt lat="44.159055138006806" lon="5.398552492260933"><ele></ele><time>2014-12-13T16:7:42Z</time></trkpt>
<trkpt lat="44.15897827595472" lon="5.398639915511012"><ele></ele><time>2014-12-13T16:7:45Z</time></trkpt>
<trkpt lat="44.15890141390264" lon="5.398708814755082"><ele></ele><time>2014-12-13T16:7:48Z</time></trkpt>
<trkpt lat="44.15886713191867" lon="5.398736307397485"><ele></ele><time>2014-12-13T16:7:51Z</time></trkpt>
<trkpt lat="44.158808290958405" lon="5.398778552189469"><ele></ele><time>2014-12-13T16:7:54Z</time></trkpt>
<trkpt lat="44.15877149440348" lon="5.398803194984794"><ele></ele><time>2014-12-13T16:7:57Z</time></trkpt>
<trkpt lat="44.158759927377105" lon="5.398797076195478"><ele></ele><time>2014-12-13T16:8:0Z</time></trkpt>
<trkpt lat="44.15875087492168" lon="5.398789448663592"><ele></ele><time>2014-12-13T16:8:3Z</time></trkpt>
<trkpt lat="44.158728662878275" lon="5.398774947971106"><ele></ele><time>2014-12-13T16:8:6Z</time></trkpt>
<trkpt lat="44.158638725057244" lon="5.398775953799486"><ele></ele><time>2014-12-13T16:8:9Z</time></trkpt>
<trkpt lat="44.15862791240215" lon="5.398933282122016"><ele></ele><time>2014-12-13T16:8:12Z</time></trkpt>
<trkpt lat="44.1586100589484" lon="5.399067392572761"><ele></ele><time>2014-12-13T16:8:15Z</time></trkpt>
<trkpt lat="44.158606957644224" lon="5.399156408384442"><ele></ele><time>2014-12-13T16:8:18Z</time></trkpt>
<trkpt lat="44.15861215442419" lon="5.399245508015156"><ele></ele><time>2014-12-13T16:8:21Z</time></trkpt>
<trkpt lat="44.15862439200282" lon="5.399292446672916"><ele></ele><time>2014-12-13T16:8:24Z</time></trkpt>
<trkpt lat="44.15869915857911" lon="5.399465532973409"><ele></ele><time>2014-12-13T16:8:27Z</time></trkpt>
<trkpt lat="44.158720867708325" lon="5.399532504379749"><ele></ele><time>2014-12-13T16:8:30Z</time></trkpt>
<trkpt lat="44.1587583348155" lon="5.399671979248524"><ele></ele><time>2014-12-13T16:8:33Z</time></trkpt>
<trkpt lat="44.158821953460574" lon="5.399878676980734"><ele></ele><time>2014-12-13T16:8:36Z</time></trkpt>
<trkpt lat="44.15889202617109" lon="5.400025947019458"><ele></ele><time>2014-12-13T16:8:39Z</time></trkpt>
<trkpt lat="44.158940305933356" lon="5.400108173489571"><ele></ele><time>2014-12-13T16:8:42Z</time></trkpt>
<trkpt lat="44.15902739390731" lon="5.4002536833286285"><ele></ele><time>2014-12-13T16:8:45Z</time></trkpt>
<trkpt lat="44.159104842692614" lon="5.400383519008756"><ele></ele><time>2014-12-13T16:8:48Z</time></trkpt>
<trkpt lat="44.159143986180425" lon="5.400458788499236"><ele></ele><time>2014-12-13T16:8:51Z</time></trkpt>
<trkpt lat="44.15918229147792" lon="5.400545122101903"><ele></ele><time>2014-12-13T16:8:54Z</time></trkpt>
<trkpt lat="44.15920835919678" lon="5.4006412625312805"><ele></ele><time>2014-12-13T16:8:57Z</time></trkpt>
<trkpt lat="44.15922193787992" lon="5.400753580033779"><ele></ele><time>2014-12-13T16:9:0Z</time></trkpt>
<trkpt lat="44.15923015214503" lon="5.400872686877847"><ele></ele><time>2014-12-13T16:9:3Z</time></trkpt>
<trkpt lat="44.15923568420112" lon="5.400991123169661"><ele></ele><time>2014-12-13T16:9:6Z</time></trkpt>
<trkpt lat="44.15924398228526" lon="5.401336876675487"><ele></ele><time>2014-12-13T16:9:9Z</time></trkpt>
<trkpt lat="44.1592438146472" lon="5.401455732062459"><ele></ele><time>2014-12-13T16:9:12Z</time></trkpt>
<trkpt lat="44.15923995897174" lon="5.4017040040344"><ele></ele><time>2014-12-13T16:9:15Z</time></trkpt>
<trkpt lat="44.1592435631901" lon="5.401954874396324"><ele></ele><time>2014-12-13T16:9:18Z</time></trkpt>
<trkpt lat="44.15924976579845" lon="5.402086973190308"><ele></ele><time>2014-12-13T16:9:21Z</time></trkpt>
<trkpt lat="44.159261249005795" lon="5.402347315102816"><ele></ele><time>2014-12-13T16:9:24Z</time></trkpt>
<trkpt lat="44.15927700698376" lon="5.402599275112152"><ele></ele><time>2014-12-13T16:9:27Z</time></trkpt>
<trkpt lat="44.159295028075576" lon="5.402982076629996"><ele></ele><time>2014-12-13T16:9:30Z</time></trkpt>
<trkpt lat="44.15931086987257" lon="5.403231689706445"><ele></ele><time>2014-12-13T16:9:33Z</time></trkpt>
<trkpt lat="44.159369794651866" lon="5.403586747124791"><ele></ele><time>2014-12-13T16:9:36Z</time></trkpt>
<trkpt lat="44.159436263144016" lon="5.403817920014262"><ele></ele><time>2014-12-13T16:9:39Z</time></trkpt>
<trkpt lat="44.1594734787941" lon="5.403927806764841"><ele></ele><time>2014-12-13T16:9:42Z</time></trkpt>
<trkpt lat="44.159564757719636" lon="5.404142048209906"><ele></ele><time>2014-12-13T16:9:45Z</time></trkpt>
<trkpt lat="44.15966064669192" lon="5.404357798397541"><ele></ele><time>2014-12-13T16:9:48Z</time></trkpt>
<trkpt lat="44.1597478184849" lon="5.404581259936094"><ele></ele><time>2014-12-13T16:9:51Z</time></trkpt>
<trkpt lat="44.159844210371375" lon="5.4049325454980135"><ele></ele><time>2014-12-13T16:9:54Z</time></trkpt>
<trkpt lat="44.15988595224917" lon="5.40517914108932"><ele></ele><time>2014-12-13T16:9:57Z</time></trkpt>
<trkpt lat="44.15993473492563" lon="5.405680127441883"><ele></ele><time>2014-12-13T16:10:0Z</time></trkpt>
<trkpt lat="44.159927694126964" lon="5.405954467132688"><ele></ele><time>2014-12-13T16:10:3Z</time></trkpt>
<trkpt lat="44.15992492809892" lon="5.40635135024786"><ele></ele><time>2014-12-13T16:10:6Z</time></trkpt>
<trkpt lat="44.159925766289234" lon="5.406478336080909"><ele></ele><time>2014-12-13T16:10:9Z</time></trkpt>
<trkpt lat="44.15992157533765" lon="5.406590066850185"><ele></ele><time>2014-12-13T16:10:12Z</time></trkpt>
<trkpt lat="44.15991688147187" lon="5.406688889488578"><ele></ele><time>2014-12-13T16:10:15Z</time></trkpt>
<trkpt lat="44.159899866208434" lon="5.406870357692242"><ele></ele><time>2014-12-13T16:10:18Z</time></trkpt>
<trkpt lat="44.15988486260176" lon="5.406947638839483"><ele></ele><time>2014-12-13T16:10:21Z</time></trkpt>
<trkpt lat="44.159860387444496" lon="5.407024081796408"><ele></ele><time>2014-12-13T16:10:24Z</time></trkpt>
<trkpt lat="44.159811018034816" lon="5.407187277451158"><ele></ele><time>2014-12-13T16:10:27Z</time></trkpt>
<trkpt lat="44.15976273827255" lon="5.407379809767008"><ele></ele><time>2014-12-13T16:10:30Z</time></trkpt>
<trkpt lat="44.15972426533699" lon="5.407576952129602"><ele></ele><time>2014-12-13T16:10:33Z</time></trkpt>
<trkpt lat="44.159702053293586" lon="5.407726066187024"><ele></ele><time>2014-12-13T16:10:36Z</time></trkpt>
<trkpt lat="44.159689312800765" lon="5.407801251858473"><ele></ele><time>2014-12-13T16:10:39Z</time></trkpt>
<trkpt lat="44.15967489592731" lon="5.4078764375299215"><ele></ele><time>2014-12-13T16:10:42Z</time></trkpt>
<trkpt lat="44.159675650298595" lon="5.4079636093229055"><ele></ele><time>2014-12-13T16:10:45Z</time></trkpt>
<trkpt lat="44.15967531502247" lon="5.408051535487175"><ele></ele><time>2014-12-13T16:10:48Z</time></trkpt>
<trkpt lat="44.15968285873532" lon="5.408192854374647"><ele></ele><time>2014-12-13T16:10:51Z</time></trkpt>
<trkpt lat="44.159687384963036" lon="5.408253204077482"><ele></ele><time>2014-12-13T16:10:54Z</time></trkpt>
<trkpt lat="44.15970481932163" lon="5.408290503546596"><ele></ele><time>2014-12-13T16:10:57Z</time></trkpt>
<trkpt lat="44.159681433811784" lon="5.408419333398342"><ele></ele><time>2014-12-13T16:11:0Z</time></trkpt>
<trkpt lat="44.15974639356136" lon="5.408573308959603"><ele></ele><time>2014-12-13T16:11:3Z</time></trkpt>
<trkpt lat="44.15978863835335" lon="5.408631479367614"><ele></ele><time>2014-12-13T16:11:6Z</time></trkpt>
<trkpt lat="44.1599861998111" lon="5.408930545672774"><ele></ele><time>2014-12-13T16:11:9Z</time></trkpt>
<trkpt lat="44.15998041629791" lon="5.409126849845052"><ele></ele><time>2014-12-13T16:11:12Z</time></trkpt>
<trkpt lat="44.159993240609765" lon="5.409165238961577"><ele></ele><time>2014-12-13T16:11:15Z</time></trkpt>
<trkpt lat="44.16015727445483" lon="5.409153671935201"><ele></ele><time>2014-12-13T16:11:18Z</time></trkpt>
<trkpt lat="44.160228269174695" lon="5.409098854288459"><ele></ele><time>2014-12-13T16:11:21Z</time></trkpt>
<trkpt lat="44.16024553589523" lon="5.409087790176272"><ele></ele><time>2014-12-13T16:11:24Z</time></trkpt>
<trkpt lat="44.16024109348655" lon="5.409086616709828"><ele></ele><time>2014-12-13T16:11:27Z</time></trkpt>
<trkpt lat="44.160198010504246" lon="5.409084353595972"><ele></ele><time>2014-12-13T16:11:30Z</time></trkpt>
<trkpt lat="44.1601521614939" lon="5.40908376686275"><ele></ele><time>2014-12-13T16:11:33Z</time></trkpt>
<trkpt lat="44.16011804714799" lon="5.409115701913834"><ele></ele><time>2014-12-13T16:11:36Z</time></trkpt>
<trkpt lat="44.160089464858174" lon="5.409164652228355"><ele></ele><time>2014-12-13T16:11:39Z</time></trkpt>
<trkpt lat="44.160017212852836" lon="5.409224582836032"><ele></ele><time>2014-12-13T16:11:42Z</time></trkpt>
<trkpt lat="44.15993238799274" lon="5.409299181774259"><ele></ele><time>2014-12-13T16:11:45Z</time></trkpt>
<trkpt lat="44.159913612529635" lon="5.409330865368247"><ele></ele><time>2014-12-13T16:11:48Z</time></trkpt>
<trkpt lat="44.1598619800061" lon="5.4094458650797606"><ele></ele><time>2014-12-13T16:11:51Z</time></trkpt>
<trkpt lat="44.15983842685819" lon="5.409525912255049"><ele></ele><time>2014-12-13T16:11:54Z</time></trkpt>
<trkpt lat="44.15985091589391" lon="5.409571174532175"><ele></ele><time>2014-12-13T16:11:57Z</time></trkpt>
<trkpt lat="44.15987078100443" lon="5.409608893096447"><ele></ele><time>2014-12-13T16:12:0Z</time></trkpt>
<trkpt lat="44.15987220592797" lon="5.409622639417648"><ele></ele><time>2014-12-13T16:12:3Z</time></trkpt>
<trkpt lat="44.15988218039274" lon="5.410005273297429"><ele></ele><time>2014-12-13T16:12:6Z</time></trkpt>
<trkpt lat="44.159884694963694" lon="5.410091858357191"><ele></ele><time>2014-12-13T16:12:9Z</time></trkpt>
<trkpt lat="44.15989282540977" lon="5.410430571064353"><ele></ele><time>2014-12-13T16:12:12Z</time></trkpt>
<trkpt lat="44.159902296960354" lon="5.410700049251318"><ele></ele><time>2014-12-13T16:12:15Z</time></trkpt>
<trkpt lat="44.159942362457514" lon="5.410836338996887"><ele></ele><time>2014-12-13T16:12:18Z</time></trkpt>
<trkpt lat="44.15998770855367" lon="5.411111516878009"><ele></ele><time>2014-12-13T16:12:21Z</time></trkpt>
<trkpt lat="44.15999357588589" lon="5.4112226609140635"><ele></ele><time>2014-12-13T16:12:24Z</time></trkpt>
<trkpt lat="44.1600001975894" lon="5.4116676561534405"><ele></ele><time>2014-12-13T16:12:27Z</time></trkpt>
<trkpt lat="44.160013776272535" lon="5.412003351375461"><ele></ele><time>2014-12-13T16:12:30Z</time></trkpt>
<trkpt lat="44.16002911515534" lon="5.412151040509343"><ele></ele><time>2014-12-13T16:12:33Z</time></trkpt>
<trkpt lat="44.160048477351665" lon="5.412427140399814"><ele></ele><time>2014-12-13T16:12:36Z</time></trkpt>
<trkpt lat="44.16005250066519" lon="5.412667030468583"><ele></ele><time>2014-12-13T16:12:39Z</time></trkpt>
<trkpt lat="44.160055266693234" lon="5.412880517542362"><ele></ele><time>2014-12-13T16:12:42Z</time></trkpt>
<trkpt lat="44.160059625282884" lon="5.412978669628501"><ele></ele><time>2014-12-13T16:12:45Z</time></trkpt>
<trkpt lat="44.1600776463747" lon="5.413135578855872"><ele></ele><time>2014-12-13T16:12:48Z</time></trkpt>
<trkpt lat="44.1601244173944" lon="5.413193078711629"><ele></ele><time>2014-12-13T16:12:51Z</time></trkpt>
<trkpt lat="44.160190131515265" lon="5.413238424807787"><ele></ele><time>2014-12-13T16:12:54Z</time></trkpt>
<trkpt lat="44.16031887754798" lon="5.413300199434161"><ele></ele><time>2014-12-13T16:12:57Z</time></trkpt>
<trkpt lat="44.16039624251425" lon="5.413325596600771"><ele></ele><time>2014-12-13T16:13:0Z</time></trkpt>
<trkpt lat="44.160481402650476" lon="5.413356525823474"><ele></ele><time>2014-12-13T16:13:3Z</time></trkpt>
<trkpt lat="44.16053798049688" lon="5.413400195538998"><ele></ele><time>2014-12-13T16:13:6Z</time></trkpt>
<trkpt lat="44.16057980619371" lon="5.413453672081232"><ele></ele><time>2014-12-13T16:13:9Z</time></trkpt>
<trkpt lat="44.16061249561608" lon="5.413522236049175"><ele></ele><time>2014-12-13T16:13:12Z</time></trkpt>
<trkpt lat="44.16063663549721" lon="5.413683671504259"><ele></ele><time>2014-12-13T16:13:15Z</time></trkpt>
<trkpt lat="44.1606371384114" lon="5.413771094754338"><ele></ele><time>2014-12-13T16:13:18Z</time></trkpt>
<trkpt lat="44.16062783449888" lon="5.4139147605746984"><ele></ele><time>2014-12-13T16:13:21Z</time></trkpt>
<trkpt lat="44.16060377843678" lon="5.414028251543641"><ele></ele><time>2014-12-13T16:13:24Z</time></trkpt>
<trkpt lat="44.16058483533561" lon="5.414083153009415"><ele></ele><time>2014-12-13T16:13:27Z</time></trkpt>
<trkpt lat="44.160546865314245" lon="5.414168648421764"><ele></ele><time>2014-12-13T16:13:30Z</time></trkpt>
<trkpt lat="44.16053781285882" lon="5.414191782474518"><ele></ele><time>2014-12-13T16:13:33Z</time></trkpt>
<trkpt lat="44.16052071377635" lon="5.414225226268172"><ele></ele><time>2014-12-13T16:13:36Z</time></trkpt>
<trkpt lat="44.16048659943044" lon="5.4142749309539795"><ele></ele><time>2014-12-13T16:13:39Z</time></trkpt>
<trkpt lat="44.160418370738626" lon="5.414436282590032"><ele></ele><time>2014-12-13T16:13:42Z</time></trkpt>
<trkpt lat="44.160402193665504" lon="5.41459403000772"><ele></ele><time>2014-12-13T16:13:45Z</time></trkpt>
<trkpt lat="44.160388531163335" lon="5.414824867621064"><ele></ele><time>2014-12-13T16:13:48Z</time></trkpt>
<trkpt lat="44.1604058817029" lon="5.414888905361295"><ele></ele><time>2014-12-13T16:13:51Z</time></trkpt>
<trkpt lat="44.160496490076184" lon="5.415168022736907"><ele></ele><time>2014-12-13T16:13:54Z</time></trkpt>
<trkpt lat="44.16048877872527" lon="5.415587956085801"><ele></ele><time>2014-12-13T16:13:57Z</time></trkpt>
<trkpt lat="44.16048911400139" lon="5.415644785389304"><ele></ele><time>2014-12-13T16:14:0Z</time></trkpt>
<trkpt lat="44.16049238294363" lon="5.415761629119515"><ele></ele><time>2014-12-13T16:14:3Z</time></trkpt>
<trkpt lat="44.16051241569221" lon="5.415925746783614"><ele></ele><time>2014-12-13T16:14:6Z</time></trkpt>
<trkpt lat="44.16053202934563" lon="5.415977044031024"><ele></ele><time>2014-12-13T16:14:9Z</time></trkpt>
<trkpt lat="44.16060470044613" lon="5.416106712073088"><ele></ele><time>2014-12-13T16:14:12Z</time></trkpt>
<trkpt lat="44.16061542928219" lon="5.416134959086776"><ele></ele><time>2014-12-13T16:14:15Z</time></trkpt>
<trkpt lat="44.160596653819084" lon="5.41628616861999"><ele></ele><time>2014-12-13T16:14:18Z</time></trkpt>
<trkpt lat="44.16048986837268" lon="5.416496973484755"><ele></ele><time>2014-12-13T16:14:21Z</time></trkpt>
<trkpt lat="44.1602779738605" lon="5.416685817763209"><ele></ele><time>2014-12-13T16:14:24Z</time></trkpt>
<trkpt lat="44.160243356600404" lon="5.416714986786246"><ele></ele><time>2014-12-13T16:14:27Z</time></trkpt>
<trkpt lat="44.16012198664248" lon="5.416814144700766"><ele></ele><time>2014-12-13T16:14:30Z</time></trkpt>
<trkpt lat="44.159934567287564" lon="5.417032660916448"><ele></ele><time>2014-12-13T16:14:33Z</time></trkpt>
<trkpt lat="44.15990548208356" lon="5.417079431936145"><ele></ele><time>2014-12-13T16:14:36Z</time></trkpt>
<trkpt lat="44.15985921397805" lon="5.417181942611933"><ele></ele><time>2014-12-13T16:14:39Z</time></trkpt>
<trkpt lat="44.159804144874215" lon="5.417350418865681"><ele></ele><time>2014-12-13T16:14:42Z</time></trkpt>
<trkpt lat="44.15979031473398" lon="5.417412864044309"><ele></ele><time>2014-12-13T16:14:45Z</time></trkpt>
<trkpt lat="44.15971303358674" lon="5.417775129899383"><ele></ele><time>2014-12-13T16:14:48Z</time></trkpt>
<trkpt lat="44.159671710804105" lon="5.4181768745183945"><ele></ele><time>2014-12-13T16:14:51Z</time></trkpt>
<trkpt lat="44.15967782959342" lon="5.4182446002960205"><ele></ele><time>2014-12-13T16:14:54Z</time></trkpt>
<trkpt lat="44.15968964807689" lon="5.418309140950441"><ele></ele><time>2014-12-13T16:14:57Z</time></trkpt>
<trkpt lat="44.159720158204436" lon="5.418449118733406"><ele></ele><time>2014-12-13T16:15:0Z</time></trkpt>
<trkpt lat="44.15975251235068" lon="5.418589347973466"><ele></ele><time>2014-12-13T16:15:3Z</time></trkpt>
<trkpt lat="44.15980473160744" lon="5.418875589966774"><ele></ele><time>2014-12-13T16:15:6Z</time></trkpt>
<trkpt lat="44.15982786566019" lon="5.4191396199166775"><ele></ele><time>2014-12-13T16:15:9Z</time></trkpt>
<trkpt lat="44.15981805883348" lon="5.419254200533032"><ele></ele><time>2014-12-13T16:15:12Z</time></trkpt>
<trkpt lat="44.159767432138324" lon="5.419404236599803"><ele></ele><time>2014-12-13T16:15:15Z</time></trkpt>
<trkpt lat="44.159619491547346" lon="5.419581346213818"><ele></ele><time>2014-12-13T16:15:18Z</time></trkpt>
<trkpt lat="44.15958638302982" lon="5.4196093417704105"><ele></ele><time>2014-12-13T16:15:21Z</time></trkpt>
<trkpt lat="44.159434670582414" lon="5.419801790267229"><ele></ele><time>2014-12-13T16:15:24Z</time></trkpt>
<trkpt lat="44.15933953598142" lon="5.420013684779406"><ele></ele><time>2014-12-13T16:15:27Z</time></trkpt>
<trkpt lat="44.159323275089264" lon="5.420054169371724"><ele></ele><time>2014-12-13T16:15:30Z</time></trkpt>
<trkpt lat="44.15922210551798" lon="5.420298418030143"><ele></ele><time>2014-12-13T16:15:33Z</time></trkpt>
<trkpt lat="44.15918472222984" lon="5.420292634516954"><ele></ele><time>2014-12-13T16:15:36Z</time></trkpt>
<trkpt lat="44.15918002836406" lon="5.4203208815306425"><ele></ele><time>2014-12-13T16:15:39Z</time></trkpt>
<trkpt lat="44.159111296758056" lon="5.420533362776041"><ele></ele><time>2014-12-13T16:15:42Z</time></trkpt>
<trkpt lat="44.15908162482083" lon="5.420573931187391"><ele></ele><time>2014-12-13T16:15:45Z</time></trkpt>
<trkpt lat="44.15900099091232" lon="5.4206837341189384"><ele></ele><time>2014-12-13T16:15:48Z</time></trkpt>
<trkpt lat="44.1589433234185" lon="5.420761685818434"><ele></ele><time>2014-12-13T16:15:51Z</time></trkpt>
<trkpt lat="44.1588809620589" lon="5.420783227309585"><ele></ele><time>2014-12-13T16:15:54Z</time></trkpt>
<trkpt lat="44.15880812332034" lon="5.420788927003741"><ele></ele><time>2014-12-13T16:15:57Z</time></trkpt>
<trkpt lat="44.15869371034205" lon="5.420862687751651"><ele></ele><time>2014-12-13T16:16:0Z</time></trkpt>
<trkpt lat="44.158646604046226" lon="5.420904429629445"><ele></ele><time>2014-12-13T16:16:3Z</time></trkpt>
<trkpt lat="44.15860377252102" lon="5.420942986384034"><ele></ele><time>2014-12-13T16:16:6Z</time></trkpt>
<trkpt lat="44.15849036537111" lon="5.421095117926598"><ele></ele><time>2014-12-13T16:16:9Z</time></trkpt>
<trkpt lat="44.15838056243956" lon="5.421285135671496"><ele></ele><time>2014-12-13T16:16:12Z</time></trkpt>
<trkpt lat="44.15836396627128" lon="5.421311790123582"><ele></ele><time>2014-12-13T16:16:15Z</time></trkpt>
<trkpt lat="44.15834812447429" lon="5.4213369358330965"><ele></ele><time>2014-12-13T16:16:18Z</time></trkpt>
<trkpt lat="44.15830822661519" lon="5.421450007706881"><ele></ele><time>2014-12-13T16:16:21Z</time></trkpt>
<trkpt lat="44.15828584693372" lon="5.421491749584675"><ele></ele><time>2014-12-13T16:16:24Z</time></trkpt>
<trkpt lat="44.158239495009184" lon="5.421576406806707"><ele></ele><time>2014-12-13T16:16:27Z</time></trkpt>
<trkpt lat="44.158202446997166" lon="5.421659387648106"><ele></ele><time>2014-12-13T16:16:30Z</time></trkpt>
<trkpt lat="44.158181408420205" lon="5.421703141182661"><ele></ele><time>2014-12-13T16:16:33Z</time></trkpt>
<trkpt lat="44.15812659077346" lon="5.421801125630736"><ele></ele><time>2014-12-13T16:16:36Z</time></trkpt>
<trkpt lat="44.158104714006186" lon="5.421837167814374"><ele></ele><time>2014-12-13T16:16:39Z</time></trkpt>
<trkpt lat="44.158068504184484" lon="5.421908497810364"><ele></ele><time>2014-12-13T16:16:42Z</time></trkpt>
<trkpt lat="44.15802584029734" lon="5.421984437853098"><ele></ele><time>2014-12-13T16:16:45Z</time></trkpt>
<trkpt lat="44.15798678062856" lon="5.422036489471793"><ele></ele><time>2014-12-13T16:16:48Z</time></trkpt>
<trkpt lat="44.15792031213641" lon="5.422115949913859"><ele></ele><time>2014-12-13T16:16:51Z</time></trkpt>
<trkpt lat="44.1578933224082" lon="5.422157188877463"><ele></ele><time>2014-12-13T16:16:54Z</time></trkpt>
<trkpt lat="44.15783531963825" lon="5.422238660976291"><ele></ele><time>2014-12-13T16:16:57Z</time></trkpt>
<trkpt lat="44.157807659357786" lon="5.422276547178626"><ele></ele><time>2014-12-13T16:17:0Z</time></trkpt>
<trkpt lat="44.157703975215554" lon="5.4223901219666"><ele></ele><time>2014-12-13T16:17:3Z</time></trkpt>
<trkpt lat="44.15768469683826" lon="5.4224080592393875"><ele></ele><time>2014-12-13T16:17:6Z</time></trkpt>
<trkpt lat="44.15759174153209" lon="5.422519035637379"><ele></ele><time>2014-12-13T16:17:9Z</time></trkpt>
<trkpt lat="44.157569697126746" lon="5.422538900747895"><ele></ele><time>2014-12-13T16:17:12Z</time></trkpt>
<trkpt lat="44.15749652311206" lon="5.422618864104152"><ele></ele><time>2014-12-13T16:17:15Z</time></trkpt>
<trkpt lat="44.157433323562145" lon="5.42268474586308"><ele></ele><time>2014-12-13T16:17:18Z</time></trkpt>
<trkpt lat="44.157336596399546" lon="5.422786753624678"><ele></ele><time>2014-12-13T16:17:21Z</time></trkpt>
<trkpt lat="44.15732100605965" lon="5.422798823565245"><ele></ele><time>2014-12-13T16:17:24Z</time></trkpt>
<trkpt lat="44.157184129580855" lon="5.422907369211316"><ele></ele><time>2014-12-13T16:17:27Z</time></trkpt>
<trkpt lat="44.157005762681365" lon="5.423039048910141"><ele></ele><time>2014-12-13T16:17:30Z</time></trkpt>
<trkpt lat="44.15693728253245" lon="5.423095291480422"><ele></ele><time>2014-12-13T16:17:33Z</time></trkpt>
<trkpt lat="44.15691423229873" lon="5.423117419704795"><ele></ele><time>2014-12-13T16:17:36Z</time></trkpt>
<trkpt lat="44.1568020824343" lon="5.42322370223701"><ele></ele><time>2014-12-13T16:17:39Z</time></trkpt>
<trkpt lat="44.156729243695736" lon="5.423256559297442"><ele></ele><time>2014-12-13T16:17:42Z</time></trkpt>
<trkpt lat="44.15663234889507" lon="5.423286985605955"><ele></ele><time>2014-12-13T16:17:45Z</time></trkpt>
<trkpt lat="44.15653553791344" lon="5.423301821574569"><ele></ele><time>2014-12-13T16:17:48Z</time></trkpt>
<trkpt lat="44.156512236222625" lon="5.423305006697774"><ele></ele><time>2014-12-13T16:17:51Z</time></trkpt>
<trkpt lat="44.15641374886036" lon="5.423319423571229"><ele></ele><time>2014-12-13T16:17:54Z</time></trkpt>
<trkpt lat="44.15631760843098" lon="5.4233169090002775"><ele></ele><time>2014-12-13T16:17:57Z</time></trkpt>
<trkpt lat="44.156269915401936" lon="5.423312466591597"><ele></ele><time>2014-12-13T16:18:0Z</time></trkpt>
<trkpt lat="44.156144857406616" lon="5.423309952020645"><ele></ele><time>2014-12-13T16:18:3Z</time></trkpt>
<trkpt lat="44.15606573224068" lon="5.423320094123483"><ele></ele><time>2014-12-13T16:18:6Z</time></trkpt>
<trkpt lat="44.15592357516289" lon="5.423343563452363"><ele></ele><time>2014-12-13T16:18:9Z</time></trkpt>
<trkpt lat="44.15567505173385" lon="5.423344234004617"><ele></ele><time>2014-12-13T16:18:12Z</time></trkpt>
<trkpt lat="44.15558838285506" lon="5.423366948962212"><ele></ele><time>2014-12-13T16:18:15Z</time></trkpt>
<trkpt lat="44.15555929765105" lon="5.423413384705782"><ele></ele><time>2014-12-13T16:18:18Z</time></trkpt>
<trkpt lat="44.15553725324571" lon="5.423419503495097"><ele></ele><time>2014-12-13T16:18:21Z</time></trkpt>
<trkpt lat="44.15553197264671" lon="5.4234091099351645"><ele></ele><time>2014-12-13T16:18:24Z</time></trkpt>
<trkpt lat="44.1554928291589" lon="5.423401901498437"><ele></ele><time>2014-12-13T16:18:27Z</time></trkpt>
<trkpt lat="44.155392749235034" lon="5.423395363613963"><ele></ele><time>2014-12-13T16:18:30Z</time></trkpt>
<trkpt lat="44.15536081418395" lon="5.423386311158538"><ele></ele><time>2014-12-13T16:18:33Z</time></trkpt>
<trkpt lat="44.1553427092731" lon="5.4233610816299915"><ele></ele><time>2014-12-13T16:18:36Z</time></trkpt>
<trkpt lat="44.15529627352953" lon="5.423334091901779"><ele></ele><time>2014-12-13T16:18:39Z</time></trkpt>
<trkpt lat="44.1552666015923" lon="5.423327889293432"><ele></ele><time>2014-12-13T16:18:42Z</time></trkpt>
<trkpt lat="44.15517062880099" lon="5.423292685300112"><ele></ele><time>2014-12-13T16:18:45Z</time></trkpt>
<trkpt lat="44.1550818644464" lon="5.4232691321522"><ele></ele><time>2014-12-13T16:18:48Z</time></trkpt>
<trkpt lat="44.15504967793822" lon="5.423260498791933"><ele></ele><time>2014-12-13T16:18:51Z</time></trkpt>
<trkpt lat="44.15503987111151" lon="5.423255385830998"><ele></ele><time>2014-12-13T16:18:54Z</time></trkpt>
<trkpt lat="44.15501296520233" lon="5.423255637288094"><ele></ele><time>2014-12-13T16:18:57Z</time></trkpt>
<trkpt lat="44.1549748275429" lon="5.423260582610965"><ele></ele><time>2014-12-13T16:19:0Z</time></trkpt>
<trkpt lat="44.15496485307813" lon="5.423261756077409"><ele></ele><time>2014-12-13T16:19:3Z</time></trkpt>
<trkpt lat="44.15495538152754" lon="5.42325790040195"><ele></ele><time>2014-12-13T16:19:6Z</time></trkpt>
<trkpt lat="44.15494238957763" lon="5.423251278698444"><ele></ele><time>2014-12-13T16:19:9Z</time></trkpt>
<trkpt lat="44.154919339343905" lon="5.423251697793603"><ele></ele><time>2014-12-13T16:19:12Z</time></trkpt>
<trkpt lat="44.15488346479833" lon="5.423257146030664"><ele></ele><time>2014-12-13T16:19:15Z</time></trkpt>
<trkpt lat="44.15483610704541" lon="5.423255050554872"><ele></ele><time>2014-12-13T16:19:18Z</time></trkpt>
<trkpt lat="44.15478950366378" lon="5.423257648944855"><ele></ele><time>2014-12-13T16:19:21Z</time></trkpt>
<trkpt lat="44.154748767614365" lon="5.423250691965222"><ele></ele><time>2014-12-13T16:19:24Z</time></trkpt>
<trkpt lat="44.15470518171787" lon="5.423252284526825"><ele></ele><time>2014-12-13T16:19:27Z</time></trkpt>
<trkpt lat="44.15455983951688" lon="5.423251027241349"><ele></ele><time>2014-12-13T16:19:30Z</time></trkpt>
<trkpt lat="44.154473254457116" lon="5.42325546965003"><ele></ele><time>2014-12-13T16:19:33Z</time></trkpt>
<trkpt lat="44.15439957752824" lon="5.423264103010297"><ele></ele><time>2014-12-13T16:19:36Z</time></trkpt>
<trkpt lat="44.154315339401364" lon="5.423286817967892"><ele></ele><time>2014-12-13T16:19:39Z</time></trkpt>
<trkpt lat="44.15428642183542" lon="5.423303162679076"><ele></ele><time>2014-12-13T16:19:42Z</time></trkpt>
<trkpt lat="44.154272340238094" lon="5.423316825181246"><ele></ele><time>2014-12-13T16:19:45Z</time></trkpt>
<trkpt lat="44.15421408601105" lon="5.423342222347856"><ele></ele><time>2014-12-13T16:19:48Z</time></trkpt>
<trkpt lat="44.154178127646446" lon="5.423365691676736"><ele></ele><time>2014-12-13T16:19:51Z</time></trkpt>
<trkpt lat="44.15404871106148" lon="5.423434255644679"><ele></ele><time>2014-12-13T16:19:54Z</time></trkpt>
<trkpt lat="44.15397520177066" lon="5.423455545678735"><ele></ele><time>2014-12-13T16:19:57Z</time></trkpt>
<trkpt lat="44.15387453511357" lon="5.42347582988441"><ele></ele><time>2014-12-13T16:20:0Z</time></trkpt>
<trkpt lat="44.153803288936615" lon="5.423468705266714"><ele></ele><time>2014-12-13T16:20:3Z</time></trkpt>
<trkpt lat="44.152985299006104" lon="5.423392849043012"><ele></ele><time>2014-12-13T16:20:6Z</time></trkpt>
<trkpt lat="44.15294690988958" lon="5.423399806022644"><ele></ele><time>2014-12-13T16:20:9Z</time></trkpt>
<trkpt lat="44.1529231891036" lon="5.423425706103444"><ele></ele><time>2014-12-13T16:20:12Z</time></trkpt>
<trkpt lat="44.152891086414456" lon="5.4234556294977665"><ele></ele><time>2014-12-13T16:20:15Z</time></trkpt>
<trkpt lat="44.152832916006446" lon="5.423508854582906"><ele></ele><time>2014-12-13T16:20:18Z</time></trkpt>
<trkpt lat="44.15274473838508" lon="5.423601306974888"><ele></ele><time>2014-12-13T16:20:21Z</time></trkpt>
<trkpt lat="44.152763430029154" lon="5.423681354150176"><ele></ele><time>2014-12-13T16:20:24Z</time></trkpt>
<trkpt lat="44.152640802785754" lon="5.423401901498437"><ele></ele><time>2014-12-13T16:20:27Z</time></trkpt>
<trkpt lat="44.15260744281113" lon="5.423357393592596"><ele></ele><time>2014-12-13T16:20:30Z</time></trkpt>
<trkpt lat="44.152578273788095" lon="5.423342222347856"><ele></ele><time>2014-12-13T16:20:33Z</time></trkpt>
<trkpt lat="44.15233704261482" lon="5.423367451876402"><ele></ele><time>2014-12-13T16:20:36Z</time></trkpt>
<trkpt lat="44.15232681669295" lon="5.423363344743848"><ele></ele><time>2014-12-13T16:20:39Z</time></trkpt>
<trkpt lat="44.15227074176073" lon="5.423340881243348"><ele></ele><time>2014-12-13T16:20:42Z</time></trkpt>
<trkpt lat="44.15224567987025" lon="5.423318333923817"><ele></ele><time>2014-12-13T16:20:45Z</time></trkpt>
<trkpt lat="44.15223402902484" lon="5.423317663371563"><ele></ele><time>2014-12-13T16:20:48Z</time></trkpt>
<trkpt lat="44.152162447571754" lon="5.423329900950193"><ele></ele><time>2014-12-13T16:20:51Z</time></trkpt>
<trkpt lat="44.15214870125055" lon="5.423333253711462"><ele></ele><time>2014-12-13T16:20:54Z</time></trkpt>
<trkpt lat="44.15210301987827" lon="5.423348173499107"><ele></ele><time>2014-12-13T16:20:57Z</time></trkpt>
<trkpt lat="44.15207150392234" lon="5.423367451876402"><ele></ele><time>2014-12-13T16:21:0Z</time></trkpt>
<trkpt lat="44.15200495161116" lon="5.423389161005616"><ele></ele><time>2014-12-13T16:21:3Z</time></trkpt>
<trkpt lat="44.15194761939347" lon="5.423443308100104"><ele></ele><time>2014-12-13T16:21:6Z</time></trkpt>
<trkpt lat="44.15188433602452" lon="5.423448756337166"><ele></ele><time>2014-12-13T16:21:9Z</time></trkpt>
<trkpt lat="44.151848293840885" lon="5.423470130190253"><ele></ele><time>2014-12-13T16:21:12Z</time></trkpt>
<trkpt lat="44.15182122029364" lon="5.423493515700102"><ele></ele><time>2014-12-13T16:21:15Z</time></trkpt>
<trkpt lat="44.15179640986025" lon="5.423543304204941"><ele></ele><time>2014-12-13T16:21:18Z</time></trkpt>
<trkpt lat="44.15179037488997" lon="5.423553865402937"><ele></ele><time>2014-12-13T16:21:21Z</time></trkpt>
<trkpt lat="44.15171694941819" lon="5.423610610887408"><ele></ele><time>2014-12-13T16:21:24Z</time></trkpt>
<trkpt lat="44.15168543346226" lon="5.423628380522132"><ele></ele><time>2014-12-13T16:21:27Z</time></trkpt>
<trkpt lat="44.15159977041185" lon="5.423648497089744"><ele></ele><time>2014-12-13T16:21:30Z</time></trkpt>
<trkpt lat="44.15154805406928" lon="5.423662913963199"><ele></ele><time>2014-12-13T16:21:33Z</time></trkpt>
<trkpt lat="44.15151838213205" lon="5.423672134056687"><ele></ele><time>2014-12-13T16:21:36Z</time></trkpt>
<trkpt lat="44.15143456310034" lon="5.4236856289207935"><ele></ele><time>2014-12-13T16:21:39Z</time></trkpt>
<trkpt lat="44.15132216177881" lon="5.4236753191798925"><ele></ele><time>2014-12-13T16:21:42Z</time></trkpt>
<trkpt lat="44.15123004466295" lon="5.42366199195385"><ele></ele><time>2014-12-13T16:21:45Z</time></trkpt>
<trkpt lat="44.15120439603925" lon="5.4236603155732155"><ele></ele><time>2014-12-13T16:21:48Z</time></trkpt>
<trkpt lat="44.151161313056946" lon="5.423666602000594"><ele></ele><time>2014-12-13T16:21:51Z</time></trkpt>
<trkpt lat="44.15111672133207" lon="5.423652688041329"><ele></ele><time>2014-12-13T16:21:54Z</time></trkpt>
<trkpt lat="44.15108570829034" lon="5.423619830980897"><ele></ele><time>2014-12-13T16:21:57Z</time></trkpt>
<trkpt lat="44.15104136802256" lon="5.423558726906776"><ele></ele><time>2014-12-13T16:22:0Z</time></trkpt>
<trkpt lat="44.15099375881255" lon="5.423527378588915"><ele></ele><time>2014-12-13T16:22:3Z</time></trkpt>
<trkpt lat="44.15090356953442" lon="5.423520924523473"><ele></ele><time>2014-12-13T16:22:6Z</time></trkpt>
<trkpt lat="44.15081270970404" lon="5.423525953665376"><ele></ele><time>2014-12-13T16:22:9Z</time></trkpt>
<trkpt lat="44.15074816904962" lon="5.423532072454691"><ele></ele><time>2014-12-13T16:22:12Z</time></trkpt>
<trkpt lat="44.150694105774164" lon="5.423544142395258"><ele></ele><time>2014-12-13T16:22:15Z</time></trkpt>
<trkpt lat="44.1506767552346" lon="5.4235542844980955"><ele></ele><time>2014-12-13T16:22:18Z</time></trkpt>
<trkpt lat="44.15064414963126" lon="5.4235840402543545"><ele></ele><time>2014-12-13T16:22:21Z</time></trkpt>
<trkpt lat="44.15061724372208" lon="5.423607341945171"><ele></ele><time>2014-12-13T16:22:24Z</time></trkpt>
<trkpt lat="44.1506008990109" lon="5.423642210662365"><ele></ele><time>2014-12-13T16:22:27Z</time></trkpt>
<trkpt lat="44.15059427730739" lon="5.423719240352511"><ele></ele><time>2014-12-13T16:22:30Z</time></trkpt>
<trkpt lat="44.15058949962258" lon="5.423777662217617"><ele></ele><time>2014-12-13T16:22:33Z</time></trkpt>
<trkpt lat="44.15058488957584" lon="5.423875479027629"><ele></ele><time>2014-12-13T16:22:36Z</time></trkpt>
<trkpt lat="44.15058287791908" lon="5.423907833173871"><ele></ele><time>2014-12-13T16:22:39Z</time></trkpt>
<trkpt lat="44.15057374164462" lon="5.423993244767189"><ele></ele><time>2014-12-13T16:22:42Z</time></trkpt>
<trkpt lat="44.15055806748569" lon="5.424092821776867"><ele></ele><time>2014-12-13T16:22:45Z</time></trkpt>
<trkpt lat="44.150557396933436" lon="5.424146298319101"><ele></ele><time>2014-12-13T16:22:48Z</time></trkpt>
<trkpt lat="44.15056158788502" lon="5.4241948295384645"><ele></ele><time>2014-12-13T16:22:51Z</time></trkpt>
<trkpt lat="44.15055513381958" lon="5.424282755702734"><ele></ele><time>2014-12-13T16:22:54Z</time></trkpt>
<trkpt lat="44.150511464104056" lon="5.424398593604565"><ele></ele><time>2014-12-13T16:22:57Z</time></trkpt>
<trkpt lat="44.15048187598586" lon="5.42458207346499"><ele></ele><time>2014-12-13T16:23:0Z</time></trkpt>
<trkpt lat="44.150477685034275" lon="5.424612332135439"><ele></ele><time>2014-12-13T16:23:3Z</time></trkpt>
<trkpt lat="44.15046142414212" lon="5.42466907761991"><ele></ele><time>2014-12-13T16:23:6Z</time></trkpt>
<trkpt lat="44.150429824367166" lon="5.424783322960138"><ele></ele><time>2014-12-13T16:23:9Z</time></trkpt>
<trkpt lat="44.15042228065431" lon="5.424845600500703"><ele></ele><time>2014-12-13T16:23:12Z</time></trkpt>
<trkpt lat="44.15043502114713" lon="5.424921959638596"><ele></ele><time>2014-12-13T16:23:15Z</time></trkpt>
<trkpt lat="44.150453293696046" lon="5.424992619082332"><ele></ele><time>2014-12-13T16:23:18Z</time></trkpt>
<trkpt lat="44.15046318434179" lon="5.425021117553115"><ele></ele><time>2014-12-13T16:23:21Z</time></trkpt>
<trkpt lat="44.15050366893411" lon="5.425095213577151"><ele></ele><time>2014-12-13T16:23:24Z</time></trkpt>
<trkpt lat="44.15054189041257" lon="5.4251328483223915"><ele></ele><time>2014-12-13T16:23:27Z</time></trkpt>
<trkpt lat="44.150565192103386" lon="5.425160424783826"><ele></ele><time>2014-12-13T16:23:30Z</time></trkpt>
<trkpt lat="44.15056820958853" lon="5.42517970316112"><ele></ele><time>2014-12-13T16:23:33Z</time></trkpt>
<trkpt lat="44.15050727315247" lon="5.425346335396171"><ele></ele><time>2014-12-13T16:23:36Z</time></trkpt>
<trkpt lat="44.15051565505564" lon="5.4253581538796425"><ele></ele><time>2014-12-13T16:23:39Z</time></trkpt>
<trkpt lat="44.15050023235381" lon="5.425434177741408"><ele></ele><time>2014-12-13T16:23:42Z</time></trkpt>
<trkpt lat="44.15047944523394" lon="5.425446582958102"><ele></ele><time>2014-12-13T16:23:45Z</time></trkpt>
<trkpt lat="44.15034307166934" lon="5.425526043400168"><ele></ele><time>2014-12-13T16:23:48Z</time></trkpt>
<trkpt lat="44.150301329791546" lon="5.425544483587146"><ele></ele><time>2014-12-13T16:23:51Z</time></trkpt>
<trkpt lat="44.15027551352978" lon="5.425544148311019"><ele></ele><time>2014-12-13T16:23:54Z</time></trkpt>
<trkpt lat="44.15025715716183" lon="5.425539705902338"><ele></ele><time>2014-12-13T16:23:57Z</time></trkpt>
<trkpt lat="44.15023997426033" lon="5.425505507737398"><ele></ele><time>2014-12-13T16:24:0Z</time></trkpt>
<trkpt lat="44.15023469366133" lon="5.4254865646362305"><ele></ele><time>2014-12-13T16:24:3Z</time></trkpt>
<trkpt lat="44.15023955516517" lon="5.42531699873507"><ele></ele><time>2014-12-13T16:24:6Z</time></trkpt>
<trkpt lat="44.15022673085332" lon="5.425154557451606"><ele></ele><time>2014-12-13T16:24:9Z</time></trkpt>
<trkpt lat="44.15022337809205" lon="5.425118263810873"><ele></ele><time>2014-12-13T16:24:12Z</time></trkpt>
<trkpt lat="44.1501828096807" lon="5.424879379570484"><ele></ele><time>2014-12-13T16:24:15Z</time></trkpt>
<trkpt lat="44.150148360058665" lon="5.424764379858971"><ele></ele><time>2014-12-13T16:24:18Z</time></trkpt>
<trkpt lat="44.15009245276451" lon="5.4245765414088964"><ele></ele><time>2014-12-13T16:24:21Z</time></trkpt>
<trkpt lat="44.15005029179156" lon="5.424395576119423"><ele></ele><time>2014-12-13T16:24:24Z</time></trkpt>
<trkpt lat="44.15000746026635" lon="5.424238163977861"><ele></ele><time>2014-12-13T16:24:27Z</time></trkpt>
<trkpt lat="44.149933280423284" lon="5.424011517316103"><ele></ele><time>2014-12-13T16:24:30Z</time></trkpt>
<trkpt lat="44.14988282136619" lon="5.423866007477045"><ele></ele><time>2014-12-13T16:24:33Z</time></trkpt>
<trkpt lat="44.14978106506169" lon="5.423655873164535"><ele></ele><time>2014-12-13T16:24:36Z</time></trkpt>
<trkpt lat="44.149759942665696" lon="5.423622261732817"><ele></ele><time>2014-12-13T16:24:39Z</time></trkpt>
<trkpt lat="44.14962952025235" lon="5.423493264243007"><ele></ele><time>2014-12-13T16:24:42Z</time></trkpt>
<trkpt lat="44.149469090625644" lon="5.423323614522815"><ele></ele><time>2014-12-13T16:24:45Z</time></trkpt>
<trkpt lat="44.14944536983967" lon="5.423296457156539"><ele></ele><time>2014-12-13T16:24:48Z</time></trkpt>
<trkpt lat="44.14929893799126" lon="5.423167208209634"><ele></ele><time>2014-12-13T16:24:51Z</time></trkpt>
<trkpt lat="44.149254178628325" lon="5.423107026144862"><ele></ele><time>2014-12-13T16:24:54Z</time></trkpt>
<trkpt lat="44.14920070208609" lon="5.423059668391943"><ele></ele><time>2014-12-13T16:24:57Z</time></trkpt>
<trkpt lat="44.14918209426105" lon="5.423033265396953"><ele></ele><time>2014-12-13T16:25:0Z</time></trkpt>
<trkpt lat="44.1491692699492" lon="5.423024045303464"><ele></ele><time>2014-12-13T16:25:3Z</time></trkpt>
<trkpt lat="44.149067429825664" lon="5.422903094440699"><ele></ele><time>2014-12-13T16:25:6Z</time></trkpt>
<trkpt lat="44.14904857054353" lon="5.4228792898356915"><ele></ele><time>2014-12-13T16:25:9Z</time></trkpt>
<trkpt lat="44.149007331579924" lon="5.4228283278644085"><ele></ele><time>2014-12-13T16:25:12Z</time></trkpt>
<trkpt lat="44.14889032021165" lon="5.422675861045718"><ele></ele><time>2014-12-13T16:25:15Z</time></trkpt>
<trkpt lat="44.14882259443402" lon="5.422568321228027"><ele></ele><time>2014-12-13T16:25:18Z</time></trkpt>
<trkpt lat="44.148732321336865" lon="5.422439910471439"><ele></ele><time>2014-12-13T16:25:21Z</time></trkpt>
<trkpt lat="44.14859636686742" lon="5.422250982373953"><ele></ele><time>2014-12-13T16:25:24Z</time></trkpt>
<trkpt lat="44.14857239462435" lon="5.4222166165709496"><ele></ele><time>2014-12-13T16:25:27Z</time></trkpt>
<trkpt lat="44.14845337159932" lon="5.422073872759938"><ele></ele><time>2014-12-13T16:25:30Z</time></trkpt>
<trkpt lat="44.14835094474256" lon="5.4219630640000105"><ele></ele><time>2014-12-13T16:25:33Z</time></trkpt>
<trkpt lat="44.14818196557462" lon="5.421817889437079"><ele></ele><time>2014-12-13T16:25:36Z</time></trkpt>
<trkpt lat="44.14811390452087" lon="5.421731555834413"><ele></ele><time>2014-12-13T16:25:39Z</time></trkpt>
<trkpt lat="44.14796051569283" lon="5.421476326882839"><ele></ele><time>2014-12-13T16:25:42Z</time></trkpt>
<trkpt lat="44.14794241078198" lon="5.421441458165646"><ele></ele><time>2014-12-13T16:25:45Z</time></trkpt>
<trkpt lat="44.147866889834404" lon="5.421221097931266"><ele></ele><time>2014-12-13T16:25:48Z</time></trkpt>
<trkpt lat="44.14785305969417" lon="5.421187654137611"><ele></ele><time>2014-12-13T16:25:51Z</time></trkpt>
<trkpt lat="44.14768391288817" lon="5.4209664557129145"><ele></ele><time>2014-12-13T16:25:54Z</time></trkpt>
<trkpt lat="44.14755005389452" lon="5.420905519276857"><ele></ele><time>2014-12-13T16:25:57Z</time></trkpt>
<trkpt lat="44.14744452573359" lon="5.420860173180699"><ele></ele><time>2014-12-13T16:26:0Z</time></trkpt>
<trkpt lat="44.147354923188686" lon="5.420805606991053"><ele></ele><time>2014-12-13T16:26:3Z</time></trkpt>
<trkpt lat="44.14724604226649" lon="5.420704940333962"><ele></ele><time>2014-12-13T16:26:6Z</time></trkpt>
<trkpt lat="44.14716104976833" lon="5.420532776042819"><ele></ele><time>2014-12-13T16:26:9Z</time></trkpt>
<trkpt lat="44.14714780636132" lon="5.4205002542585135"><ele></ele><time>2014-12-13T16:26:12Z</time></trkpt>
<trkpt lat="44.147009421139956" lon="5.420312667265534"><ele></ele><time>2014-12-13T16:26:15Z</time></trkpt>
<trkpt lat="44.1469796653837" lon="5.4202973283827305"><ele></ele><time>2014-12-13T16:26:18Z</time></trkpt>
<trkpt lat="44.14679526351392" lon="5.420222897082567"><ele></ele><time>2014-12-13T16:26:21Z</time></trkpt>
<trkpt lat="44.146759724244475" lon="5.42020688764751"><ele></ele><time>2014-12-13T16:26:24Z</time></trkpt>
<trkpt lat="44.14655570872128" lon="5.4201603680849075"><ele></ele><time>2014-12-13T16:26:27Z</time></trkpt>
<trkpt lat="44.14635236375034" lon="5.420092977583408"><ele></ele><time>2014-12-13T16:26:30Z</time></trkpt>
<trkpt lat="44.146109791472554" lon="5.420019384473562"><ele></ele><time>2014-12-13T16:26:33Z</time></trkpt>
<trkpt lat="44.145989594981074" lon="5.41998703032732"><ele></ele><time>2014-12-13T16:26:36Z</time></trkpt>
<trkpt lat="44.14596050977707" lon="5.419981246814132"><ele></ele><time>2014-12-13T16:26:39Z</time></trkpt>
<trkpt lat="44.14574794471264" lon="5.419958783313632"><ele></ele><time>2014-12-13T16:26:42Z</time></trkpt>
<trkpt lat="44.14556278847158" lon="5.420016869902611"><ele></ele><time>2014-12-13T16:26:45Z</time></trkpt>
<trkpt lat="44.14552892558277" lon="5.42002365924418"><ele></ele><time>2014-12-13T16:26:48Z</time></trkpt>
<trkpt lat="44.145268835127354" lon="5.420104209333658"><ele></ele><time>2014-12-13T16:26:51Z</time></trkpt>
<trkpt lat="44.14523849263787" lon="5.4201138485223055"><ele></ele><time>2014-12-13T16:26:54Z</time></trkpt>
<trkpt lat="44.14507278241217" lon="5.420229770243168"><ele></ele><time>2014-12-13T16:26:57Z</time></trkpt>
<trkpt lat="44.144928362220526" lon="5.420417357236147"><ele></ele><time>2014-12-13T16:27:0Z</time></trkpt>
<trkpt lat="44.14490103721619" lon="5.420449124649167"><ele></ele><time>2014-12-13T16:27:3Z</time></trkpt>
<trkpt lat="44.144825683906674" lon="5.42051182128489"><ele></ele><time>2014-12-13T16:27:6Z</time></trkpt>
<trkpt lat="44.14479416795075" lon="5.4205296747386456"><ele></ele><time>2014-12-13T16:27:9Z</time></trkpt>
<trkpt lat="44.14472619071603" lon="5.420563453808427"><ele></ele><time>2014-12-13T16:27:12Z</time></trkpt>
<trkpt lat="44.144610771909356" lon="5.420569572597742"><ele></ele><time>2014-12-13T16:27:15Z</time></trkpt>
<trkpt lat="44.14445453323424" lon="5.4205491207540035"><ele></ele><time>2014-12-13T16:27:18Z</time></trkpt>
<trkpt lat="44.14437834173441" lon="5.420540235936642"><ele></ele><time>2014-12-13T16:27:21Z</time></trkpt>
<trkpt lat="44.144136188551784" lon="5.420475611463189"><ele></ele><time>2014-12-13T16:27:24Z</time></trkpt>
<trkpt lat="44.14410534314811" lon="5.420464631170034"><ele></ele><time>2014-12-13T16:27:27Z</time></trkpt>
<trkpt lat="44.14392437785864" lon="5.420411322265863"><ele></ele><time>2014-12-13T16:27:30Z</time></trkpt>
<trkpt lat="44.143660850822926" lon="5.4202772956341505"><ele></ele><time>2014-12-13T16:27:33Z</time></trkpt>
<trkpt lat="44.14349748753011" lon="5.4201700910925865"><ele></ele><time>2014-12-13T16:27:36Z</time></trkpt>
<trkpt lat="44.143415009602904" lon="5.420119212940335"><ele></ele><time>2014-12-13T16:27:39Z</time></trkpt>
<trkpt lat="44.143314426764846" lon="5.4200570192188025"><ele></ele><time>2014-12-13T16:27:42Z</time></trkpt>
<trkpt lat="44.14324326440692" lon="5.420023323968053"><ele></ele><time>2014-12-13T16:27:45Z</time></trkpt>
<trkpt lat="44.143172688782215" lon="5.41998753324151"><ele></ele><time>2014-12-13T16:27:48Z</time></trkpt>
<trkpt lat="44.143075458705425" lon="5.419946294277906"><ele></ele><time>2014-12-13T16:27:51Z</time></trkpt>
<trkpt lat="44.14302156306803" lon="5.419938080012798"><ele></ele><time>2014-12-13T16:27:54Z</time></trkpt>
<trkpt lat="44.14287747815251" lon="5.419958112761378"><ele></ele><time>2014-12-13T16:27:57Z</time></trkpt>
<trkpt lat="44.14267321117222" lon="5.420048134401441"><ele></ele><time>2014-12-13T16:28:0Z</time></trkpt>
<trkpt lat="44.142487635836005" lon="5.420118290930986"><ele></ele><time>2014-12-13T16:28:3Z</time></trkpt>
<trkpt lat="44.14238688535988" lon="5.4201350547373295"><ele></ele><time>2014-12-13T16:28:6Z</time></trkpt>
<trkpt lat="44.142309771850705" lon="5.420142346993089"><ele></ele><time>2014-12-13T16:28:9Z</time></trkpt>
<trkpt lat="44.142155880108476" lon="5.420104879885912"><ele></ele><time>2014-12-13T16:28:12Z</time></trkpt>
<trkpt lat="44.142129896208644" lon="5.420095743611455"><ele></ele><time>2014-12-13T16:28:15Z</time></trkpt>
<trkpt lat="44.1419939417392" lon="5.420031286776066"><ele></ele><time>2014-12-13T16:28:18Z</time></trkpt>
<trkpt lat="44.14194071665406" lon="5.419990886002779"><ele></ele><time>2014-12-13T16:28:21Z</time></trkpt>
<trkpt lat="44.14191481657326" lon="5.419968338683248"><ele></ele><time>2014-12-13T16:28:24Z</time></trkpt>
<trkpt lat="44.14184248074889" lon="5.419908408075571"><ele></ele><time>2014-12-13T16:28:27Z</time></trkpt>
<trkpt lat="44.14173644967377" lon="5.419771699234843"><ele></ele><time>2014-12-13T16:28:30Z</time></trkpt>
<trkpt lat="44.141677021980286" lon="5.419680085033178"><ele></ele><time>2014-12-13T16:28:33Z</time></trkpt>
<trkpt lat="44.14151541888714" lon="5.419462909922004"><ele></ele><time>2014-12-13T16:28:36Z</time></trkpt>
<trkpt lat="44.14136689156294" lon="5.419321842491627"><ele></ele><time>2014-12-13T16:28:39Z</time></trkpt>
<trkpt lat="44.14130570366979" lon="5.4192624147981405"><ele></ele><time>2014-12-13T16:28:42Z</time></trkpt>
<trkpt lat="44.141202103346586" lon="5.419095531105995"><ele></ele><time>2014-12-13T16:28:45Z</time></trkpt>
<trkpt lat="44.14116564206779" lon="5.419036773964763"><ele></ele><time>2014-12-13T16:28:48Z</time></trkpt>
<trkpt lat="44.141030022874475" lon="5.418846756219864"><ele></ele><time>2014-12-13T16:28:51Z</time></trkpt>
<trkpt lat="44.140905970707536" lon="5.418685153126717"><ele></ele><time>2014-12-13T16:28:54Z</time></trkpt>
<trkpt lat="44.14088426157832" lon="5.418665036559105"><ele></ele><time>2014-12-13T16:28:57Z</time></trkpt>
<trkpt lat="44.1407488938421" lon="5.418598568066955"><ele></ele><time>2014-12-13T16:29:0Z</time></trkpt>
<trkpt lat="44.140561474487185" lon="5.4186230432242155"><ele></ele><time>2014-12-13T16:29:3Z</time></trkpt>
<trkpt lat="44.14053498767316" lon="5.4186248034238815"><ele></ele><time>2014-12-13T16:29:6Z</time></trkpt>
<trkpt lat="44.140359219163656" lon="5.418668640777469"><ele></ele><time>2014-12-13T16:29:9Z</time></trkpt>
<trkpt lat="44.14029526524246" lon="5.418689930811524"><ele></ele><time>2014-12-13T16:29:12Z</time></trkpt>
<trkpt lat="44.14008370600641" lon="5.418745670467615"><ele></ele><time>2014-12-13T16:29:15Z</time></trkpt>
<trkpt lat="44.13990986533463" lon="5.418771905824542"><ele></ele><time>2014-12-13T16:29:18Z</time></trkpt>
<trkpt lat="44.13985546678305" lon="5.418768553063273"><ele></ele><time>2014-12-13T16:29:21Z</time></trkpt>
<trkpt lat="44.13982789032161" lon="5.418768301606178"><ele></ele><time>2014-12-13T16:29:24Z</time></trkpt>
<trkpt lat="44.139678021892905" lon="5.418733851984143"><ele></ele><time>2014-12-13T16:29:27Z</time></trkpt>
<trkpt lat="44.13962999358773" lon="5.41870879009366"><ele></ele><time>2014-12-13T16:29:30Z</time></trkpt>
<trkpt lat="44.139491356909275" lon="5.418614158406854"><ele></ele><time>2014-12-13T16:29:33Z</time></trkpt>
<trkpt lat="44.13944961503148" lon="5.418574428185821"><ele></ele><time>2014-12-13T16:29:36Z</time></trkpt>
<trkpt lat="44.13929614238441" lon="5.418423386290669"><ele></ele><time>2014-12-13T16:29:39Z</time></trkpt>
<trkpt lat="44.13927401416004" lon="5.418405197560787"><ele></ele><time>2014-12-13T16:29:42Z</time></trkpt>
<trkpt lat="44.13914225064218" lon="5.418326910585165"><ele></ele><time>2014-12-13T16:29:45Z</time></trkpt>
<trkpt lat="44.13908424787223" lon="5.4183093924075365"><ele></ele><time>2014-12-13T16:29:48Z</time></trkpt>
<trkpt lat="44.139026161283255" lon="5.4183058720082045"><ele></ele><time>2014-12-13T16:29:51Z</time></trkpt>
<trkpt lat="44.138878136873245" lon="5.418355241417885"><ele></ele><time>2014-12-13T16:29:54Z</time></trkpt>
<trkpt lat="44.13875609636307" lon="5.418483316898346"><ele></ele><time>2014-12-13T16:29:57Z</time></trkpt>
<trkpt lat="44.13872189819813" lon="5.4185479413717985"><ele></ele><time>2014-12-13T16:30:0Z</time></trkpt>
<trkpt lat="44.13862274028361" lon="5.418748436495662"><ele></ele><time>2014-12-13T16:30:3Z</time></trkpt>
<trkpt lat="44.13859197869897" lon="5.418862262740731"><ele></ele><time>2014-12-13T16:30:6Z</time></trkpt>
<trkpt lat="44.13857798092067" lon="5.4189440701156855"><ele></ele><time>2014-12-13T16:30:9Z</time></trkpt>
<trkpt lat="44.13855870254338" lon="5.419200640171766"><ele></ele><time>2014-12-13T16:30:12Z</time></trkpt>
<trkpt lat="44.13855652324855" lon="5.419286051765084"><ele></ele><time>2014-12-13T16:30:15Z</time></trkpt>
<trkpt lat="44.138541938737035" lon="5.419565504416823"><ele></ele><time>2014-12-13T16:30:18Z</time></trkpt>
<trkpt lat="44.13851243443787" lon="5.419673882424831"><ele></ele><time>2014-12-13T16:30:21Z</time></trkpt>
<trkpt lat="44.1384712792933" lon="5.419764993712306"><ele></ele><time>2014-12-13T16:30:24Z</time></trkpt>
<trkpt lat="44.138389974832535" lon="5.4198667500168085"><ele></ele><time>2014-12-13T16:30:27Z</time></trkpt>
<trkpt lat="44.13833926431835" lon="5.419889967888594"><ele></ele><time>2014-12-13T16:30:30Z</time></trkpt>
<trkpt lat="44.13823423907161" lon="5.419903127476573"><ele></ele><time>2014-12-13T16:30:33Z</time></trkpt>
<trkpt lat="44.13812544196844" lon="5.4198903031647205"><ele></ele><time>2014-12-13T16:30:36Z</time></trkpt>
<trkpt lat="44.13797842338681" lon="5.419854177162051"><ele></ele><time>2014-12-13T16:30:39Z</time></trkpt>
<trkpt lat="44.137895526364446" lon="5.419835401698947"><ele></ele><time>2014-12-13T16:30:42Z</time></trkpt>
<trkpt lat="44.13778723217547" lon="5.419805394485593"><ele></ele><time>2014-12-13T16:30:45Z</time></trkpt>
<trkpt lat="44.13768555969" lon="5.419793576002121"><ele></ele><time>2014-12-13T16:30:48Z</time></trkpt>
<trkpt lat="44.137659994885325" lon="5.419794078916311"><ele></ele><time>2014-12-13T16:30:51Z</time></trkpt>
<trkpt lat="44.13749746978283" lon="5.419823415577412"><ele></ele><time>2014-12-13T16:30:54Z</time></trkpt>
<trkpt lat="44.13741591386497" lon="5.4198655765503645"><ele></ele><time>2014-12-13T16:30:57Z</time></trkpt>
<trkpt lat="44.13727333769202" lon="5.419944282621145"><ele></ele><time>2014-12-13T16:31:0Z</time></trkpt>
<trkpt lat="44.137166468426585" lon="5.4199811629951"><ele></ele><time>2014-12-13T16:31:3Z</time></trkpt>
<trkpt lat="44.13709580898285" lon="5.420004464685917"><ele></ele><time>2014-12-13T16:31:6Z</time></trkpt>
<trkpt lat="44.13701022975147" lon="5.4200295265764"><ele></ele><time>2014-12-13T16:31:9Z</time></trkpt>
<trkpt lat="44.13699178956449" lon="5.420027682557702"><ele></ele><time>2014-12-13T16:31:12Z</time></trkpt>
<trkpt lat="44.136980809271336" lon="5.420014942064881"><ele></ele><time>2014-12-13T16:31:15Z</time></trkpt>
<trkpt lat="44.137001764029264" lon="5.41996062733233"><ele></ele><time>2014-12-13T16:31:18Z</time></trkpt>
<trkpt lat="44.13708700798452" lon="5.419969093054533"><ele></ele><time>2014-12-13T16:31:21Z</time></trkpt>
<trkpt lat="44.13706948980689" lon="5.419982168823481"><ele></ele><time>2014-12-13T16:31:24Z</time></trkpt>
<trkpt lat="44.13704358972609" lon="5.4199836775660515"><ele></ele><time>2014-12-13T16:31:27Z</time></trkpt>
<trkpt lat="44.13696873933077" lon="5.420011505484581"><ele></ele><time>2014-12-13T16:31:30Z</time></trkpt>
<trkpt lat="44.13693303242326" lon="5.420020138844848"><ele></ele><time>2014-12-13T16:31:33Z</time></trkpt>
<trkpt lat="44.1368049569428" lon="5.420044949278235"><ele></ele><time>2014-12-13T16:31:36Z</time></trkpt>
<trkpt lat="44.13674108684063" lon="5.420058527961373"><ele></ele><time>2014-12-13T16:31:39Z</time></trkpt>
<trkpt lat="44.13651863113046" lon="5.420090463012457"><ele></ele><time>2014-12-13T16:31:42Z</time></trkpt>
<trkpt lat="44.13645333610475" lon="5.420097503811121"><ele></ele><time>2014-12-13T16:31:45Z</time></trkpt>
<trkpt lat="44.136256612837315" lon="5.420134132727981"><ele></ele><time>2014-12-13T16:31:48Z</time></trkpt>
<trkpt lat="44.13622451014817" lon="5.420135976746678"><ele></ele><time>2014-12-13T16:31:51Z</time></trkpt>
<trkpt lat="44.1360536031425" lon="5.420113513246179"><ele></ele><time>2014-12-13T16:31:54Z</time></trkpt>
<trkpt lat="44.13596207275987" lon="5.420080069452524"><ele></ele><time>2014-12-13T16:31:57Z</time></trkpt>
<trkpt lat="44.13594120182097" lon="5.420070681720972"><ele></ele><time>2014-12-13T16:32:0Z</time></trkpt>
<trkpt lat="44.13577708415687" lon="5.419959286227822"><ele></ele><time>2014-12-13T16:32:3Z</time></trkpt>
<trkpt lat="44.13553803227842" lon="5.419794917106628"><ele></ele><time>2014-12-13T16:32:6Z</time></trkpt>
<trkpt lat="44.13547944277525" lon="5.419758455827832"><ele></ele><time>2014-12-13T16:32:9Z</time></trkpt>
<trkpt lat="44.13514223881066" lon="5.419550333172083"><ele></ele><time>2014-12-13T16:32:12Z</time></trkpt>
<trkpt lat="44.13501533679664" lon="5.419482691213489"><ele></ele><time>2014-12-13T16:32:15Z</time></trkpt>
<trkpt lat="44.1346653085202" lon="5.419340450316668"><ele></ele><time>2014-12-13T16:32:18Z</time></trkpt>
<trkpt lat="44.13443044759333" lon="5.419303150847554"><ele></ele><time>2014-12-13T16:32:21Z</time></trkpt>
<trkpt lat="44.13426314480603" lon="5.419289069250226"><ele></ele><time>2014-12-13T16:32:24Z</time></trkpt>
<trkpt lat="44.134034905582666" lon="5.419231066480279"><ele></ele><time>2014-12-13T16:32:27Z</time></trkpt>
<trkpt lat="44.13397589698434" lon="5.419171638786793"><ele></ele><time>2014-12-13T16:32:30Z</time></trkpt>
<trkpt lat="44.133933233097196" lon="5.4190960340201855"><ele></ele><time>2014-12-13T16:32:33Z</time></trkpt>
<trkpt lat="44.133877996355295" lon="5.418853126466274"><ele></ele><time>2014-12-13T16:32:36Z</time></trkpt>
<trkpt lat="44.133856957778335" lon="5.418719183653593"><ele></ele><time>2014-12-13T16:32:39Z</time></trkpt>
<trkpt lat="44.13383960723877" lon="5.41858708485961"><ele></ele><time>2014-12-13T16:32:42Z</time></trkpt>
<trkpt lat="44.13383080624044" lon="5.418326742947102"><ele></ele><time>2014-12-13T16:32:45Z</time></trkpt>
<trkpt lat="44.1339398548007" lon="5.417967746034265"><ele></ele><time>2014-12-13T16:32:48Z</time></trkpt>
<trkpt lat="44.133987966924906" lon="5.417850902304053"><ele></ele><time>2014-12-13T16:32:51Z</time></trkpt>
<trkpt lat="44.13402694277465" lon="5.417732130736113"><ele></ele><time>2014-12-13T16:32:54Z</time></trkpt>
<trkpt lat="44.134050998836756" lon="5.417614448815584"><ele></ele><time>2014-12-13T16:32:57Z</time></trkpt>
<trkpt lat="44.13405988365412" lon="5.4174974374473095"><ele></ele><time>2014-12-13T16:33:0Z</time></trkpt>
<trkpt lat="44.13405762054026" lon="5.417276155203581"><ele></ele><time>2014-12-13T16:33:3Z</time></trkpt>
<trkpt lat="44.13404471240938" lon="5.417079096660018"><ele></ele><time>2014-12-13T16:33:6Z</time></trkpt>
<trkpt lat="44.13402870297432" lon="5.416751615703106"><ele></ele><time>2014-12-13T16:33:9Z</time></trkpt>
<trkpt lat="44.134027026593685" lon="5.416796877980232"><ele></ele><time>2014-12-13T16:33:12Z</time></trkpt>
<trkpt lat="44.13401395082474" lon="5.416796961799264"><ele></ele><time>2014-12-13T16:33:15Z</time></trkpt>
<trkpt lat="44.13398536853492" lon="5.416732169687748"><ele></ele><time>2014-12-13T16:33:18Z</time></trkpt>
<trkpt lat="44.13395242765546" lon="5.416631670668721"><ele></ele><time>2014-12-13T16:33:21Z</time></trkpt>
<trkpt lat="44.13392853923142" lon="5.4165576584637165"><ele></ele><time>2014-12-13T16:33:24Z</time></trkpt>
<trkpt lat="44.13391638547182" lon="5.416520526632667"><ele></ele><time>2014-12-13T16:33:27Z</time></trkpt>
<trkpt lat="44.13386441767216" lon="5.41635942645371"><ele></ele><time>2014-12-13T16:33:30Z</time></trkpt>
<trkpt lat="44.133816892281175" lon="5.416238307952881"><ele></ele><time>2014-12-13T16:33:33Z</time></trkpt>
<trkpt lat="44.13372519426048" lon="5.4159745294600725"><ele></ele><time>2014-12-13T16:33:36Z</time></trkpt>
<trkpt lat="44.133710358291864" lon="5.415939409285784"><ele></ele><time>2014-12-13T16:33:39Z</time></trkpt>
<trkpt lat="44.133650343865156" lon="5.415648389607668"><ele></ele><time>2014-12-13T16:33:42Z</time></trkpt>
<trkpt lat="44.133617486804724" lon="5.415391568094492"><ele></ele><time>2014-12-13T16:33:45Z</time></trkpt>
<trkpt lat="44.13360055536032" lon="5.415270533412695"><ele></ele><time>2014-12-13T16:33:48Z</time></trkpt>
<trkpt lat="44.13359418511391" lon="5.415123766288161"><ele></ele><time>2014-12-13T16:33:51Z</time></trkpt>
<trkpt lat="44.13358689285815" lon="5.41500935330987"><ele></ele><time>2014-12-13T16:33:54Z</time></trkpt>
<trkpt lat="44.133567279204726" lon="5.414862334728241"><ele></ele><time>2014-12-13T16:33:57Z</time></trkpt>
<trkpt lat="44.13356778211892" lon="5.414756052196026"><ele></ele><time>2014-12-13T16:34:0Z</time></trkpt>
<trkpt lat="44.13356241770089" lon="5.41460769250989"><ele></ele><time>2014-12-13T16:34:3Z</time></trkpt>
<trkpt lat="44.133554790169" lon="5.41441666893661"><ele></ele><time>2014-12-13T16:34:6Z</time></trkpt>
<trkpt lat="44.133552527055144" lon="5.414343075826764"><ele></ele><time>2014-12-13T16:34:9Z</time></trkpt>
<trkpt lat="44.13354456424713" lon="5.414180886000395"><ele></ele><time>2014-12-13T16:34:12Z</time></trkpt>
<trkpt lat="44.1335323266685" lon="5.414002435281873"><ele></ele><time>2014-12-13T16:34:15Z</time></trkpt>
<trkpt lat="44.13353274576366" lon="5.414015091955662"><ele></ele><time>2014-12-13T16:34:18Z</time></trkpt>
<trkpt lat="44.13353215903044" lon="5.414038393646479"><ele></ele><time>2014-12-13T16:34:21Z</time></trkpt>
<trkpt lat="44.133537858724594" lon="5.414247186854482"><ele></ele><time>2014-12-13T16:34:24Z</time></trkpt>
<trkpt lat="44.133545234799385" lon="5.414400994777679"><ele></ele><time>2014-12-13T16:34:27Z</time></trkpt>
<trkpt lat="44.133557891473174" lon="5.414672987535596"><ele></ele><time>2014-12-13T16:34:30Z</time></trkpt>
<trkpt lat="44.13357323035598" lon="5.4148730635643005"><ele></ele><time>2014-12-13T16:34:33Z</time></trkpt>
<trkpt lat="44.133595023304224" lon="5.41519895195961"><ele></ele><time>2014-12-13T16:34:36Z</time></trkpt>
<trkpt lat="44.13360348902643" lon="5.415313867852092"><ele></ele><time>2014-12-13T16:34:39Z</time></trkpt>
<trkpt lat="44.13362251594663" lon="5.415550656616688"><ele></ele><time>2014-12-13T16:34:42Z</time></trkpt>
<trkpt lat="44.13366467691958" lon="5.415885262191296"><ele></ele><time>2014-12-13T16:34:45Z</time></trkpt>
<trkpt lat="44.13368864916265" lon="5.415990119799972"><ele></ele><time>2014-12-13T16:34:48Z</time></trkpt>
<trkpt lat="44.13374916650355" lon="5.416184831410646"><ele></ele><time>2014-12-13T16:34:51Z</time></trkpt>
<trkpt lat="44.133810102939606" lon="5.416344674304128"><ele></ele><time>2014-12-13T16:34:54Z</time></trkpt>
<trkpt lat="44.133871123194695" lon="5.416486328467727"><ele></ele><time>2014-12-13T16:34:57Z</time></trkpt>
<trkpt lat="44.13394480012357" lon="5.416654888540506"><ele></ele><time>2014-12-13T16:35:0Z</time></trkpt>
<trkpt lat="44.13398092612624" lon="5.416742647066712"><ele></ele><time>2014-12-13T16:35:3Z</time></trkpt>
<trkpt lat="44.13399207405746" lon="5.4167652782052755"><ele></ele><time>2014-12-13T16:35:6Z</time></trkpt>
<trkpt lat="44.13401805795729" lon="5.416793106123805"><ele></ele><time>2014-12-13T16:35:9Z</time></trkpt>
<trkpt lat="44.13403909653425" lon="5.416735606268048"><ele></ele><time>2014-12-13T16:35:12Z</time></trkpt>
<trkpt lat="44.13405753672123" lon="5.416555814445019"><ele></ele><time>2014-12-13T16:35:15Z</time></trkpt>
<trkpt lat="44.13407907821238" lon="5.416455399245024"><ele></ele><time>2014-12-13T16:35:18Z</time></trkpt>
<trkpt lat="44.1341317165643" lon="5.41627736762166"><ele></ele><time>2014-12-13T16:35:21Z</time></trkpt>
<trkpt lat="44.13418125361204" lon="5.416118195280433"><ele></ele><time>2014-12-13T16:35:24Z</time></trkpt>
<trkpt lat="44.13430815562606" lon="5.41576724499464"><ele></ele><time>2014-12-13T16:35:27Z</time></trkpt>
<trkpt lat="44.13447520695627" lon="5.415498772636056"><ele></ele><time>2014-12-13T16:35:30Z</time></trkpt>
<trkpt lat="44.13458299823105" lon="5.415189312770963"><ele></ele><time>2014-12-13T16:35:33Z</time></trkpt>
<trkpt lat="44.134638737887144" lon="5.414977837353945"><ele></ele><time>2014-12-13T16:35:36Z</time></trkpt>
<trkpt lat="44.134672936052084" lon="5.414868285879493"><ele></ele><time>2014-12-13T16:35:39Z</time></trkpt>
<trkpt lat="44.134727250784636" lon="5.414597801864147"><ele></ele><time>2014-12-13T16:35:42Z</time></trkpt>
<trkpt lat="44.13478944450617" lon="5.414362270385027"><ele></ele><time>2014-12-13T16:35:45Z</time></trkpt>
<trkpt lat="44.1348257381469" lon="5.414212066680193"><ele></ele><time>2014-12-13T16:35:48Z</time></trkpt>
<trkpt lat="44.13485121913254" lon="5.41413176804781"><ele></ele><time>2014-12-13T16:35:51Z</time></trkpt>
<trkpt lat="44.13488524965942" lon="5.413992712274194"><ele></ele><time>2014-12-13T16:35:54Z</time></trkpt>
<trkpt lat="44.134895810857415" lon="5.413965135812759"><ele></ele><time>2014-12-13T16:35:57Z</time></trkpt>
<trkpt lat="44.13492229767144" lon="5.413886262103915"><ele></ele><time>2014-12-13T16:36:0Z</time></trkpt>
<trkpt lat="44.13496647030115" lon="5.4138007666915655"><ele></ele><time>2014-12-13T16:36:3Z</time></trkpt>
<trkpt lat="44.13498055189848" lon="5.413777297362685"><ele></ele><time>2014-12-13T16:36:6Z</time></trkpt>
<trkpt lat="44.13500762544572" lon="5.413646204397082"><ele></ele><time>2014-12-13T16:36:9Z</time></trkpt>
<trkpt lat="44.13492280058563" lon="5.413547968491912"><ele></ele><time>2014-12-13T16:36:12Z</time></trkpt>
<trkpt lat="44.134816685691476" lon="5.413436740636826"><ele></ele><time>2014-12-13T16:36:15Z</time></trkpt>
<trkpt lat="44.134764885529876" lon="5.413387371227145"><ele></ele><time>2014-12-13T16:36:18Z</time></trkpt>
<trkpt lat="44.13475155830383" lon="5.413365243002772"><ele></ele><time>2014-12-13T16:36:21Z</time></trkpt>
<trkpt lat="44.13467528298497" lon="5.41324689052999"><ele></ele><time>2014-12-13T16:36:24Z</time></trkpt>
<trkpt lat="44.13466019555926" lon="5.41319559328258"><ele></ele><time>2014-12-13T16:36:27Z</time></trkpt>
<trkpt lat="44.134627087041736" lon="5.413068775087595"><ele></ele><time>2014-12-13T16:36:30Z</time></trkpt>
<trkpt lat="44.13457956165075" lon="5.412915218621492"><ele></ele><time>2014-12-13T16:36:33Z</time></trkpt>
<trkpt lat="44.13457486778498" lon="5.412892755120993"><ele></ele><time>2014-12-13T16:36:36Z</time></trkpt>
<trkpt lat="44.134539579972625" lon="5.412786807864904"><ele></ele><time>2014-12-13T16:36:39Z</time></trkpt>
<trkpt lat="44.13452675566077" lon="5.412740707397461"><ele></ele><time>2014-12-13T16:36:42Z</time></trkpt>
<trkpt lat="44.13449993357062" lon="5.412644986063242"><ele></ele><time>2014-12-13T16:36:45Z</time></trkpt>
<trkpt lat="44.134464813396335" lon="5.412536105141044"><ele></ele><time>2014-12-13T16:36:48Z</time></trkpt>
<trkpt lat="44.13445643149316" lon="5.412513054907322"><ele></ele><time>2014-12-13T16:36:51Z</time></trkpt>
<trkpt lat="44.13440018892288" lon="5.412426386028528"><ele></ele><time>2014-12-13T16:36:54Z</time></trkpt>
<trkpt lat="44.13438644260168" lon="5.412411047145724"><ele></ele><time>2014-12-13T16:36:57Z</time></trkpt>
<trkpt lat="44.134296756237745" lon="5.412372574210167"><ele></ele><time>2014-12-13T16:37:0Z</time></trkpt>
<trkpt lat="44.13427806459367" lon="5.412359246984124"><ele></ele><time>2014-12-13T16:37:3Z</time></trkpt>
<trkpt lat="44.134170189499855" lon="5.412318930029869"><ele></ele><time>2014-12-13T16:37:6Z</time></trkpt>
<trkpt lat="44.13412216119468" lon="5.412315744906664"><ele></ele><time>2014-12-13T16:37:9Z</time></trkpt>
<trkpt lat="44.133926862850785" lon="5.4122869949787855"><ele></ele><time>2014-12-13T16:37:12Z</time></trkpt>
<trkpt lat="44.13387715816498" lon="5.412279786542058"><ele></ele><time>2014-12-13T16:37:15Z</time></trkpt>
<trkpt lat="44.13367540575564" lon="5.412256149575114"><ele></ele><time>2014-12-13T16:37:18Z</time></trkpt>
<trkpt lat="44.133539786562324" lon="5.412221197038889"><ele></ele><time>2014-12-13T16:37:21Z</time></trkpt>
<trkpt lat="44.13344398140907" lon="5.412166630849242"><ele></ele><time>2014-12-13T16:37:24Z</time></trkpt>
<trkpt lat="44.1334236972034" lon="5.412149783223867"><ele></ele><time>2014-12-13T16:37:27Z</time></trkpt>
<trkpt lat="44.133283300325274" lon="5.412057247012854"><ele></ele><time>2014-12-13T16:37:30Z</time></trkpt>
<trkpt lat="44.13322965614498" lon="5.412019360810518"><ele></ele><time>2014-12-13T16:37:33Z</time></trkpt>
<trkpt lat="44.13315639831126" lon="5.4119492042809725"><ele></ele><time>2014-12-13T16:37:36Z</time></trkpt>
<trkpt lat="44.13309210911393" lon="5.411900924518704"><ele></ele><time>2014-12-13T16:37:39Z</time></trkpt>
<trkpt lat="44.13303536362946" lon="5.4118455201387405"><ele></ele><time>2014-12-13T16:37:42Z</time></trkpt>
<trkpt lat="44.133025305345654" lon="5.4118287563323975"><ele></ele><time>2014-12-13T16:37:45Z</time></trkpt>
<trkpt lat="44.13290787488222" lon="5.411717528477311"><ele></ele><time>2014-12-13T16:37:48Z</time></trkpt>
<trkpt lat="44.13288029842079" lon="5.4116912093013525"><ele></ele><time>2014-12-13T16:37:51Z</time></trkpt>
<trkpt lat="44.13281735032797" lon="5.411640917882323"><ele></ele><time>2014-12-13T16:37:54Z</time></trkpt>
<trkpt lat="44.13276496343315" lon="5.411593057215214"><ele></ele><time>2014-12-13T16:37:57Z</time></trkpt>
<trkpt lat="44.13262506946921" lon="5.411537820473313"><ele></ele><time>2014-12-13T16:38:0Z</time></trkpt>
<trkpt lat="44.13249439559877" lon="5.411486942321062"><ele></ele><time>2014-12-13T16:38:3Z</time></trkpt>
<trkpt lat="44.13243790157139" lon="5.411480404436588"><ele></ele><time>2014-12-13T16:38:6Z</time></trkpt>
<trkpt lat="44.13223841227591" lon="5.411465484648943"><ele></ele><time>2014-12-13T16:38:9Z</time></trkpt>
<trkpt lat="44.13215979002416" lon="5.411468334496021"><ele></ele><time>2014-12-13T16:38:12Z</time></trkpt>
<trkpt lat="44.132026517763734" lon="5.4114876966923475"><ele></ele><time>2014-12-13T16:38:15Z</time></trkpt>
<trkpt lat="44.13195116445422" lon="5.411486020311713"><ele></ele><time>2014-12-13T16:38:18Z</time></trkpt>
<trkpt lat="44.131838511675596" lon="5.411503370851278"><ele></ele><time>2014-12-13T16:38:21Z</time></trkpt>
<trkpt lat="44.13179802708328" lon="5.411517284810543"><ele></ele><time>2014-12-13T16:38:24Z</time></trkpt>
<trkpt lat="44.131696270778775" lon="5.411567660048604"><ele></ele><time>2014-12-13T16:38:27Z</time></trkpt>
<trkpt lat="44.131679087877274" lon="5.411586100235581"><ele></ele><time>2014-12-13T16:38:30Z</time></trkpt>
<trkpt lat="44.131605913862586" lon="5.4116620402783155"><ele></ele><time>2014-12-13T16:38:33Z</time></trkpt>
<trkpt lat="44.13154296576977" lon="5.411717863753438"><ele></ele><time>2014-12-13T16:38:36Z</time></trkpt>
<trkpt lat="44.13153475150466" lon="5.411730520427227"><ele></ele><time>2014-12-13T16:38:39Z</time></trkpt>
<trkpt lat="44.131492925807834" lon="5.411769496276975"><ele></ele><time>2014-12-13T16:38:42Z</time></trkpt>
<trkpt lat="44.13146794773638" lon="5.411797408014536"><ele></ele><time>2014-12-13T16:38:45Z</time></trkpt>
<trkpt lat="44.131426541134715" lon="5.411822469905019"><ele></ele><time>2014-12-13T16:38:48Z</time></trkpt>
<trkpt lat="44.13138438016176" lon="5.411856332793832"><ele></ele><time>2014-12-13T16:38:51Z</time></trkpt>
<trkpt lat="44.131347332149744" lon="5.411884663626552"><ele></ele><time>2014-12-13T16:38:54Z</time></trkpt>
<trkpt lat="44.13130525499582" lon="5.411907797679305"><ele></ele><time>2014-12-13T16:38:57Z</time></trkpt>
<trkpt lat="44.13128455169499" lon="5.411912826821208"><ele></ele><time>2014-12-13T16:39:0Z</time></trkpt>
<trkpt lat="44.13127231411636" lon="5.411921376362443"><ele></ele><time>2014-12-13T16:39:3Z</time></trkpt>
<trkpt lat="44.13123660720885" lon="5.411933697760105"><ele></ele><time>2014-12-13T16:39:6Z</time></trkpt>
<trkpt lat="44.1311854775995" lon="5.411951635032892"><ele></ele><time>2014-12-13T16:39:9Z</time></trkpt>
<trkpt lat="44.13114331662655" lon="5.411955993622541"><ele></ele><time>2014-12-13T16:39:12Z</time></trkpt>
<trkpt lat="44.131125044077635" lon="5.411962950602174"><ele></ele><time>2014-12-13T16:39:15Z</time></trkpt>
<trkpt lat="44.131101574748755" lon="5.411974769085646"><ele></ele><time>2014-12-13T16:39:18Z</time></trkpt>
<trkpt lat="44.13107098080218" lon="5.411993293091655"><ele></ele><time>2014-12-13T16:39:21Z</time></trkpt>
<trkpt lat="44.131022449582815" lon="5.4120145831257105"><ele></ele><time>2014-12-13T16:39:24Z</time></trkpt>
<trkpt lat="44.13099587894976" lon="5.412025060504675"><ele></ele><time>2014-12-13T16:39:27Z</time></trkpt>
<trkpt lat="44.13096176460385" lon="5.412040650844574"><ele></ele><time>2014-12-13T16:39:30Z</time></trkpt>
<trkpt lat="44.13092295639217" lon="5.4120558220893145"><ele></ele><time>2014-12-13T16:39:33Z</time></trkpt>
<trkpt lat="44.13086285814643" lon="5.412092115730047"><ele></ele><time>2014-12-13T16:39:36Z</time></trkpt>
<trkpt lat="44.13079060614109" lon="5.4121126513928175"><ele></ele><time>2014-12-13T16:39:39Z</time></trkpt>
<trkpt lat="44.13074844516814" lon="5.412137545645237"><ele></ele><time>2014-12-13T16:39:42Z</time></trkpt>
<trkpt lat="44.1307176835835" lon="5.412147771567106"><ele></ele><time>2014-12-13T16:39:45Z</time></trkpt>
<trkpt lat="44.1307036858052" lon="5.412146765738726"><ele></ele><time>2014-12-13T16:39:48Z</time></trkpt>
<trkpt lat="44.13066127337515" lon="5.412164116278291"><ele></ele><time>2014-12-13T16:39:51Z</time></trkpt>
<trkpt lat="44.13058675825596" lon="5.412165708839893"><ele></ele><time>2014-12-13T16:39:54Z</time></trkpt>
<trkpt lat="44.13055105134845" lon="5.412163361907005"><ele></ele><time>2014-12-13T16:39:57Z</time></trkpt>
<trkpt lat="44.130426747724414" lon="5.412182556465268"><ele></ele><time>2014-12-13T16:40:0Z</time></trkpt>
<trkpt lat="44.13026422262192" lon="5.412161517888308"><ele></ele><time>2014-12-13T16:40:3Z</time></trkpt>
<trkpt lat="44.13019205443561" lon="5.412160763517022"><ele></ele><time>2014-12-13T16:40:6Z</time></trkpt>
<trkpt lat="44.13015064783394" lon="5.412151794880629"><ele></ele><time>2014-12-13T16:40:9Z</time></trkpt>
<trkpt lat="44.13008342497051" lon="5.4121488612145185"><ele></ele><time>2014-12-13T16:40:12Z</time></trkpt>
<trkpt lat="44.12998057901859" lon="5.412147771567106"><ele></ele><time>2014-12-13T16:40:15Z</time></trkpt>
<trkpt lat="44.12969408556819" lon="5.412110723555088"><ele></ele><time>2014-12-13T16:40:18Z</time></trkpt>
<trkpt lat="44.12942234426737" lon="5.4120455123484135"><ele></ele><time>2014-12-13T16:40:21Z</time></trkpt>
<trkpt lat="44.12923375144601" lon="5.411983737722039"><ele></ele><time>2014-12-13T16:40:24Z</time></trkpt>
<trkpt lat="44.129053289070725" lon="5.411915173754096"><ele></ele><time>2014-12-13T16:40:27Z</time></trkpt>
<trkpt lat="44.1287886723876" lon="5.411808555945754"><ele></ele><time>2014-12-13T16:40:30Z</time></trkpt>
<trkpt lat="44.128530425950885" lon="5.411716438829899"><ele></ele><time>2014-12-13T16:40:33Z</time></trkpt>
<trkpt lat="44.12799322977662" lon="5.411582663655281"><ele></ele><time>2014-12-13T16:40:36Z</time></trkpt>
<trkpt lat="44.12790580652654" lon="5.4115592781454325"><ele></ele><time>2014-12-13T16:40:39Z</time></trkpt>
<trkpt lat="44.1276522539556" lon="5.411429861560464"><ele></ele><time>2014-12-13T16:40:42Z</time></trkpt>
<trkpt lat="44.12758075632155" lon="5.411373032256961"><ele></ele><time>2014-12-13T16:40:45Z</time></trkpt>
<trkpt lat="44.12746600806713" lon="5.4112576972693205"><ele></ele><time>2014-12-13T16:40:48Z</time></trkpt>
<trkpt lat="44.12736249156296" lon="5.411169854924083"><ele></ele><time>2014-12-13T16:40:51Z</time></trkpt>
<trkpt lat="44.12724916823208" lon="5.411057369783521"><ele></ele><time>2014-12-13T16:40:54Z</time></trkpt>
<trkpt lat="44.12723567336798" lon="5.410991236567497"><ele></ele><time>2014-12-13T16:40:57Z</time></trkpt>
<trkpt lat="44.12728722207248" lon="5.410836338996887"><ele></ele><time>2014-12-13T16:41:0Z</time></trkpt>
<trkpt lat="44.12731789983809" lon="5.4108132887631655"><ele></ele><time>2014-12-13T16:41:3Z</time></trkpt>
<trkpt lat="44.12739576771855" lon="5.410737181082368"><ele></ele><time>2014-12-13T16:41:6Z</time></trkpt>
<trkpt lat="44.12743960507214" lon="5.410661157220602"><ele></ele><time>2014-12-13T16:41:9Z</time></trkpt>
<trkpt lat="44.12746902555227" lon="5.410573817789555"><ele></ele><time>2014-12-13T16:41:12Z</time></trkpt>
<trkpt lat="44.1274746414274" lon="5.410529058426619"><ele></ele><time>2014-12-13T16:41:15Z</time></trkpt>
<trkpt lat="44.12746340967715" lon="5.410284390673041"><ele></ele><time>2014-12-13T16:41:18Z</time></trkpt>
<trkpt lat="44.127454943954945" lon="5.410231668502092"><ele></ele><time>2014-12-13T16:41:21Z</time></trkpt>
<trkpt lat="44.12743994034827" lon="5.409924807026982"><ele></ele><time>2014-12-13T16:41:24Z</time></trkpt>
<trkpt lat="44.12743667140603" lon="5.409826403483748"><ele></ele><time>2014-12-13T16:41:27Z</time></trkpt>
<trkpt lat="44.12741378881037" lon="5.409649629145861"><ele></ele><time>2014-12-13T16:41:30Z</time></trkpt>
<trkpt lat="44.12739551626146" lon="5.409584753215313"><ele></ele><time>2014-12-13T16:41:33Z</time></trkpt>
<trkpt lat="44.127331897616386" lon="5.4094991739839315"><ele></ele><time>2014-12-13T16:41:36Z</time></trkpt>
<trkpt lat="44.1272862162441" lon="5.409468999132514"><ele></ele><time>2014-12-13T16:41:39Z</time></trkpt>
<trkpt lat="44.127125618979335" lon="5.4093695897608995"><ele></ele><time>2014-12-13T16:41:42Z</time></trkpt>
<trkpt lat="44.12707197479904" lon="5.409325836226344"><ele></ele><time>2014-12-13T16:41:45Z</time></trkpt>
<trkpt lat="44.126933589577675" lon="5.409209076315165"><ele></ele><time>2014-12-13T16:41:48Z</time></trkpt>
<trkpt lat="44.12681423127651" lon="5.409121653065085"><ele></ele><time>2014-12-13T16:41:51Z</time></trkpt>
<trkpt lat="44.126631170511246" lon="5.408984608948231"><ele></ele><time>2014-12-13T16:41:54Z</time></trkpt>
<trkpt lat="44.12641483359039" lon="5.408827867358923"><ele></ele><time>2014-12-13T16:41:57Z</time></trkpt>
<trkpt lat="44.12635423243046" lon="5.408774809911847"><ele></ele><time>2014-12-13T16:42:0Z</time></trkpt>
<trkpt lat="44.126075534150004" lon="5.408503068611026"><ele></ele><time>2014-12-13T16:42:3Z</time></trkpt>
<trkpt lat="44.12600236013532" lon="5.408474234864116"><ele></ele><time>2014-12-13T16:42:6Z</time></trkpt>
<trkpt lat="44.125974448397756" lon="5.408456549048424"><ele></ele><time>2014-12-13T16:42:9Z</time></trkpt>
<trkpt lat="44.12590278312564" lon="5.408327886834741"><ele></ele><time>2014-12-13T16:42:12Z</time></trkpt>
<trkpt lat="44.125753501430154" lon="5.408047176897526"><ele></ele><time>2014-12-13T16:42:15Z</time></trkpt>
<trkpt lat="44.125518975779414" lon="5.407628333196044"><ele></ele><time>2014-12-13T16:42:18Z</time></trkpt>
<trkpt lat="44.12524421699345" lon="5.407301355153322"><ele></ele><time>2014-12-13T16:42:21Z</time></trkpt>
<trkpt lat="44.12519434466958" lon="5.407249387353659"><ele></ele><time>2014-12-13T16:42:24Z</time></trkpt>
<trkpt lat="44.12485856562853" lon="5.406921319663525"><ele></ele><time>2014-12-13T16:42:27Z</time></trkpt>
<trkpt lat="44.12477474659681" lon="5.40683071129024"><ele></ele><time>2014-12-13T16:42:30Z</time></trkpt>
<trkpt lat="44.12456025369465" lon="5.406595766544342"><ele></ele><time>2014-12-13T16:42:33Z</time></trkpt>
<trkpt lat="44.124473333358765" lon="5.4064807668328285"><ele></ele><time>2014-12-13T16:42:36Z</time></trkpt>
<trkpt lat="44.12437685765326" lon="5.406317822635174"><ele></ele><time>2014-12-13T16:42:39Z</time></trkpt>
<trkpt lat="44.124357076361775" lon="5.40627415291965"><ele></ele><time>2014-12-13T16:42:42Z</time></trkpt>
<trkpt lat="44.124270072206855" lon="5.40605865418911"><ele></ele><time>2014-12-13T16:42:45Z</time></trkpt>
<trkpt lat="44.12424299865961" lon="5.4059686325490475"><ele></ele><time>2014-12-13T16:42:48Z</time></trkpt>
<trkpt lat="44.12415741942823" lon="5.405653724446893"><ele></ele><time>2014-12-13T16:42:51Z</time></trkpt>
<trkpt lat="44.12414484657347" lon="5.405564373359084"><ele></ele><time>2014-12-13T16:42:54Z</time></trkpt>
<trkpt lat="44.12409304641187" lon="5.405247118324041"><ele></ele><time>2014-12-13T16:42:57Z</time></trkpt>
<trkpt lat="44.1240862570703" lon="5.405198000371456"><ele></ele><time>2014-12-13T16:43:0Z</time></trkpt>
<trkpt lat="44.124075109139085" lon="5.404940005391836"><ele></ele><time>2014-12-13T16:43:3Z</time></trkpt>
<trkpt lat="44.124152390286326" lon="5.404581511393189"><ele></ele><time>2014-12-13T16:43:6Z</time></trkpt>
<trkpt lat="44.12432153709233" lon="5.404254952445626"><ele></ele><time>2014-12-13T16:43:9Z</time></trkpt>
<trkpt lat="44.1244144923985" lon="5.40402403101325"><ele></ele><time>2014-12-13T16:43:12Z</time></trkpt>
<trkpt lat="44.1244525462389" lon="5.403899056836963"><ele></ele><time>2014-12-13T16:43:15Z</time></trkpt>
<trkpt lat="44.12446981295943" lon="5.403721444308758"><ele></ele><time>2014-12-13T16:43:18Z</time></trkpt>
<trkpt lat="44.12446671165526" lon="5.403437213972211"><ele></ele><time>2014-12-13T16:43:21Z</time></trkpt>
<trkpt lat="44.12445313297212" lon="5.403420617803931"><ele></ele><time>2014-12-13T16:43:24Z</time></trkpt>
<trkpt lat="44.124414157122374" lon="5.403386503458023"><ele></ele><time>2014-12-13T16:43:27Z</time></trkpt>
<trkpt lat="44.12435791455209" lon="5.4033207055181265"><ele></ele><time>2014-12-13T16:43:30Z</time></trkpt>
<trkpt lat="44.12432740442455" lon="5.403300505131483"><ele></ele><time>2014-12-13T16:43:33Z</time></trkpt>
<trkpt lat="44.12431424483657" lon="5.403287680819631"><ele></ele><time>2014-12-13T16:43:36Z</time></trkpt>
<trkpt lat="44.12426395341754" lon="5.403238562867045"><ele></ele><time>2014-12-13T16:43:39Z</time></trkpt>
<trkpt lat="44.12423017434776" lon="5.403209226205945"><ele></ele><time>2014-12-13T16:43:42Z</time></trkpt>
<trkpt lat="44.12409086711705" lon="5.403093807399273"><ele></ele><time>2014-12-13T16:43:45Z</time></trkpt>
<trkpt lat="44.12403202615678" lon="5.403040498495102"><ele></ele><time>2014-12-13T16:43:48Z</time></trkpt>
<trkpt lat="44.12389422766864" lon="5.402930276468396"><ele></ele><time>2014-12-13T16:43:51Z</time></trkpt>
<trkpt lat="44.12373865954578" lon="5.4028109181672335"><ele></ele><time>2014-12-13T16:43:54Z</time></trkpt>
<trkpt lat="44.12347429431975" lon="5.402609836310148"><ele></ele><time>2014-12-13T16:43:57Z</time></trkpt>
<trkpt lat="44.12328394129872" lon="5.402463572099805"><ele></ele><time>2014-12-13T16:44:0Z</time></trkpt>
<trkpt lat="44.122760156169534" lon="5.40209736675024"><ele></ele><time>2014-12-13T16:44:3Z</time></trkpt>
<trkpt lat="44.12268186919391" lon="5.402070879936218"><ele></ele><time>2014-12-13T16:44:6Z</time></trkpt>
<trkpt lat="44.12252898328006" lon="5.402062581852078"><ele></ele><time>2014-12-13T16:44:9Z</time></trkpt>
<trkpt lat="44.122243244200945" lon="5.401944564655423"><ele></ele><time>2014-12-13T16:44:12Z</time></trkpt>
<trkpt lat="44.12211164832115" lon="5.401704255491495"><ele></ele><time>2014-12-13T16:44:15Z</time></trkpt>
<trkpt lat="44.12205196917057" lon="5.401279041543603"><ele></ele><time>2014-12-13T16:44:18Z</time></trkpt>
<trkpt lat="44.12204794585705" lon="5.401167226955295"><ele></ele><time>2014-12-13T16:44:21Z</time></trkpt>
<trkpt lat="44.122039061039686" lon="5.400842595845461"><ele></ele><time>2014-12-13T16:44:24Z</time></trkpt>
<trkpt lat="44.12202523089945" lon="5.400518719106913"><ele></ele><time>2014-12-13T16:44:27Z</time></trkpt>
<trkpt lat="44.12201634608209" lon="5.40041696280241"><ele></ele><time>2014-12-13T16:44:30Z</time></trkpt>
<trkpt lat="44.12198005244136" lon="5.400231387466192"><ele></ele><time>2014-12-13T16:44:33Z</time></trkpt>
<trkpt lat="44.12190578877926" lon="5.400071125477552"><ele></ele><time>2014-12-13T16:44:36Z</time></trkpt>
<trkpt lat="44.12170110270381" lon="5.399823356419802"><ele></ele><time>2014-12-13T16:44:39Z</time></trkpt>
<trkpt lat="44.121514270082116" lon="5.399712715297937"><ele></ele><time>2014-12-13T16:44:42Z</time></trkpt>
<trkpt lat="44.12137186154723" lon="5.399658568203449"><ele></ele><time>2014-12-13T16:44:45Z</time></trkpt>
<trkpt lat="44.12091203033924" lon="5.399566702544689"><ele></ele><time>2014-12-13T16:44:48Z</time></trkpt>
<trkpt lat="44.12083734758198" lon="5.399558991193771"><ele></ele><time>2014-12-13T16:44:51Z</time></trkpt>
<trkpt lat="44.120313646271825" lon="5.3995356895029545"><ele></ele><time>2014-12-13T16:44:54Z</time></trkpt>
<trkpt lat="44.12023913115263" lon="5.399532839655876"><ele></ele><time>2014-12-13T16:44:57Z</time></trkpt>
<trkpt lat="44.12009244784713" lon="5.3995356895029545"><ele></ele><time>2014-12-13T16:45:0Z</time></trkpt>
<trkpt lat="44.11987376399338" lon="5.399533677846193"><ele></ele><time>2014-12-13T16:45:3Z</time></trkpt>
<trkpt lat="44.119720458984375" lon="5.399523200467229"><ele></ele><time>2014-12-13T16:45:6Z</time></trkpt>
<trkpt lat="44.11963856779039" lon="5.399521943181753"><ele></ele><time>2014-12-13T16:45:9Z</time></trkpt>
<trkpt lat="44.11931334994733" lon="5.399527475237846"><ele></ele><time>2014-12-13T16:45:12Z</time></trkpt>
<trkpt lat="44.11915618926287" lon="5.399595452472568"><ele></ele><time>2014-12-13T16:45:15Z</time></trkpt>
<trkpt lat="44.119082847610116" lon="5.3996578976511955"><ele></ele><time>2014-12-13T16:45:18Z</time></trkpt>
<trkpt lat="44.11900766193867" lon="5.399737861007452"><ele></ele><time>2014-12-13T16:45:21Z</time></trkpt>
<trkpt lat="44.118943540379405" lon="5.39983450435102"><ele></ele><time>2014-12-13T16:45:24Z</time></trkpt>
<trkpt lat="44.11883734166622" lon="5.400063078850508"><ele></ele><time>2014-12-13T16:45:27Z</time></trkpt>
<trkpt lat="44.11878738552332" lon="5.400181515142322"><ele></ele><time>2014-12-13T16:45:30Z</time></trkpt>
<trkpt lat="44.11868437193334" lon="5.400424674153328"><ele></ele><time>2014-12-13T16:45:33Z</time></trkpt>
<trkpt lat="44.11858211271465" lon="5.400684596970677"><ele></ele><time>2014-12-13T16:45:36Z</time></trkpt>
<trkpt lat="44.118483709171414" lon="5.400945944711566"><ele></ele><time>2014-12-13T16:45:39Z</time></trkpt>
<trkpt lat="44.11831431090832" lon="5.401453468948603"><ele></ele><time>2014-12-13T16:45:42Z</time></trkpt>
<trkpt lat="44.11824658513069" lon="5.401705764234066"><ele></ele><time>2014-12-13T16:45:45Z</time></trkpt>
<trkpt lat="44.11817827261984" lon="5.401949426159263"><ele></ele><time>2014-12-13T16:45:48Z</time></trkpt>
<trkpt lat="44.11800602450967" lon="5.402493244037032"><ele></ele><time>2014-12-13T16:45:51Z</time></trkpt>
<trkpt lat="44.11796076223254" lon="5.402590809389949"><ele></ele><time>2014-12-13T16:45:54Z</time></trkpt>
<trkpt lat="44.117810893803835" lon="5.402866741642356"><ele></ele><time>2014-12-13T16:45:57Z</time></trkpt>
<trkpt lat="44.11775984801352" lon="5.402958272024989"><ele></ele><time>2014-12-13T16:46:0Z</time></trkpt>
<trkpt lat="44.117554826661944" lon="5.40331743657589"><ele></ele><time>2014-12-13T16:46:3Z</time></trkpt>
<trkpt lat="44.11744284443557" lon="5.4034944623708725"><ele></ele><time>2014-12-13T16:46:6Z</time></trkpt>
<trkpt lat="44.117383332923055" lon="5.403580795973539"><ele></ele><time>2014-12-13T16:46:9Z</time></trkpt>
<trkpt lat="44.11731795407832" lon="5.403661262243986"><ele></ele><time>2014-12-13T16:46:12Z</time></trkpt>
<trkpt lat="44.11703439429402" lon="5.4039709735661745"><ele></ele><time>2014-12-13T16:46:15Z</time></trkpt>
<trkpt lat="44.11696130409837" lon="5.404038783162832"><ele></ele><time>2014-12-13T16:46:18Z</time></trkpt>
<trkpt lat="44.116619070991874" lon="5.404329048469663"><ele></ele><time>2014-12-13T16:46:21Z</time></trkpt>
<trkpt lat="44.116556039080024" lon="5.404381938278675"><ele></ele><time>2014-12-13T16:46:24Z</time></trkpt>
<trkpt lat="44.116197377443314" lon="5.404679412022233"><ele></ele><time>2014-12-13T16:46:27Z</time></trkpt>
<trkpt lat="44.11613501608372" lon="5.404724758118391"><ele></ele><time>2014-12-13T16:46:30Z</time></trkpt>
<trkpt lat="44.11568851210177" lon="5.405079564079642"><ele></ele><time>2014-12-13T16:46:33Z</time></trkpt>
<trkpt lat="44.11549162119627" lon="5.405273353680968"><ele></ele><time>2014-12-13T16:46:36Z</time></trkpt>
<trkpt lat="44.11529925651848" lon="5.405501341447234"><ele></ele><time>2014-12-13T16:46:39Z</time></trkpt>
<trkpt lat="44.11523655988276" lon="5.405578287318349"><ele></ele><time>2014-12-13T16:46:42Z</time></trkpt>
<trkpt lat="44.11490178667009" lon="5.406099641695619"><ele></ele><time>2014-12-13T16:46:45Z</time></trkpt>
<trkpt lat="44.114728616550565" lon="5.4063535295426846"><ele></ele><time>2014-12-13T16:46:48Z</time></trkpt>
<trkpt lat="44.11447489634156" lon="5.40667581371963"><ele></ele><time>2014-12-13T16:46:51Z</time></trkpt>
<trkpt lat="44.114335253834724" lon="5.406840518116951"><ele></ele><time>2014-12-13T16:46:54Z</time></trkpt>
<trkpt lat="44.11398187279701" lon="5.407279059290886"><ele></ele><time>2014-12-13T16:46:57Z</time></trkpt>
<trkpt lat="44.11384063772857" lon="5.407454157248139"><ele></ele><time>2014-12-13T16:47:0Z</time></trkpt>
<trkpt lat="44.113407377153635" lon="5.407991437241435"><ele></ele><time>2014-12-13T16:47:3Z</time></trkpt>
<trkpt lat="44.11319154314697" lon="5.408245660364628"><ele></ele><time>2014-12-13T16:47:6Z</time></trkpt>
<trkpt lat="44.11298853345215" lon="5.408495357260108"><ele></ele><time>2014-12-13T16:47:9Z</time></trkpt>
<trkpt lat="44.11285794340074" lon="5.408660229295492"><ele></ele><time>2014-12-13T16:47:12Z</time></trkpt>
<trkpt lat="44.112791726365685" lon="5.408739689737558"><ele></ele><time>2014-12-13T16:47:15Z</time></trkpt>
<trkpt lat="44.112535659223795" lon="5.409045964479446"><ele></ele><time>2014-12-13T16:47:18Z</time></trkpt>
<trkpt lat="44.11226165480912" lon="5.409289374947548"><ele></ele><time>2014-12-13T16:47:21Z</time></trkpt>
<trkpt lat="44.11181758157909" lon="5.409544017165899"><ele></ele><time>2014-12-13T16:47:24Z</time></trkpt>
<trkpt lat="44.111748933792114" lon="5.409578634425998"><ele></ele><time>2014-12-13T16:47:27Z</time></trkpt>
<trkpt lat="44.11135599017143" lon="5.409784661605954"><ele></ele><time>2014-12-13T16:47:30Z</time></trkpt>
<trkpt lat="44.11122095771134" lon="5.410019522532821"><ele></ele><time>2014-12-13T16:47:33Z</time></trkpt>
<trkpt lat="44.11120570264757" lon="5.4101241286844015"><ele></ele><time>2014-12-13T16:47:36Z</time></trkpt>
<trkpt lat="44.1111920401454" lon="5.410342728719115"><ele></ele><time>2014-12-13T16:47:39Z</time></trkpt>
<trkpt lat="44.11118634045124" lon="5.410570632666349"><ele></ele><time>2014-12-13T16:47:42Z</time></trkpt>
<trkpt lat="44.11117125302553" lon="5.410934742540121"><ele></ele><time>2014-12-13T16:47:45Z</time></trkpt>
<trkpt lat="44.11116370931268" lon="5.411055609583855"><ele></ele><time>2014-12-13T16:47:48Z</time></trkpt>
<trkpt lat="44.11111006513238" lon="5.411854572594166"><ele></ele><time>2014-12-13T16:47:51Z</time></trkpt>
<trkpt lat="44.11108382977545" lon="5.4121924471110106"><ele></ele><time>2014-12-13T16:47:54Z</time></trkpt>
<trkpt lat="44.11108424887061" lon="5.412261765450239"><ele></ele><time>2014-12-13T16:47:57Z</time></trkpt>
<trkpt lat="44.11107352003455" lon="5.41242060251534"><ele></ele><time>2014-12-13T16:48:0Z</time></trkpt>
<trkpt lat="44.111054576933384" lon="5.4125099536031485"><ele></ele><time>2014-12-13T16:48:3Z</time></trkpt>
<trkpt lat="44.11102901212871" lon="5.412630820646882"><ele></ele><time>2014-12-13T16:48:6Z</time></trkpt>
<trkpt lat="44.110979391261935" lon="5.412772139534354"><ele></ele><time>2014-12-13T16:48:9Z</time></trkpt>
<trkpt lat="44.11096204072237" lon="5.412804912775755"><ele></ele><time>2014-12-13T16:48:12Z</time></trkpt>
<trkpt lat="44.110881155356765" lon="5.412946315482259"><ele></ele><time>2014-12-13T16:48:15Z</time></trkpt>
<trkpt lat="44.110863050445914" lon="5.4129687789827585"><ele></ele><time>2014-12-13T16:48:18Z</time></trkpt>
<trkpt lat="44.1107739508152" lon="5.4130426235497"><ele></ele><time>2014-12-13T16:48:21Z</time></trkpt>
<trkpt lat="44.11068602465093" lon="5.41306022554636"><ele></ele><time>2014-12-13T16:48:24Z</time></trkpt>
<trkpt lat="44.11059700883925" lon="5.413065003231168"><ele></ele><time>2014-12-13T16:48:27Z</time></trkpt>
<trkpt lat="44.11043984815478" lon="5.413051089271903"><ele></ele><time>2014-12-13T16:48:30Z</time></trkpt>
<trkpt lat="44.11020959727466" lon="5.412966012954712"><ele></ele><time>2014-12-13T16:48:33Z</time></trkpt>
<trkpt lat="44.10988848656416" lon="5.412835758179426"><ele></ele><time>2014-12-13T16:48:36Z</time></trkpt>
<trkpt lat="44.109481293708086" lon="5.412690751254559"><ele></ele><time>2014-12-13T16:48:39Z</time></trkpt>
<trkpt lat="44.109325306490064" lon="5.412645069882274"><ele></ele><time>2014-12-13T16:48:42Z</time></trkpt>
<trkpt lat="44.10892750136554" lon="5.412557562813163"><ele></ele><time>2014-12-13T16:48:45Z</time></trkpt>
<trkpt lat="44.10863094963133" lon="5.412467792630196"><ele></ele><time>2014-12-13T16:48:48Z</time></trkpt>
<trkpt lat="44.10857604816556" lon="5.41243183426559"><ele></ele><time>2014-12-13T16:48:51Z</time></trkpt>
<trkpt lat="44.10847554914653" lon="5.412371484562755"><ele></ele><time>2014-12-13T16:48:54Z</time></trkpt>
<trkpt lat="44.108448810875416" lon="5.412327395752072"><ele></ele><time>2014-12-13T16:48:57Z</time></trkpt>
<trkpt lat="44.108442440629005" lon="5.412251623347402"><ele></ele><time>2014-12-13T16:49:0Z</time></trkpt>
<trkpt lat="44.1083581186831" lon="5.412153052166104"><ele></ele><time>2014-12-13T16:49:3Z</time></trkpt>
<trkpt lat="44.10829651169479" lon="5.41210594587028"><ele></ele><time>2014-12-13T16:49:6Z</time></trkpt>
<trkpt lat="44.10807187668979" lon="5.411888100206852"><ele></ele><time>2014-12-13T16:49:9Z</time></trkpt>
<trkpt lat="44.10778060555458" lon="5.41162608191371"><ele></ele><time>2014-12-13T16:49:12Z</time></trkpt>
<trkpt lat="44.10744256339967" lon="5.411446038633585"><ele></ele><time>2014-12-13T16:49:15Z</time></trkpt>
<trkpt lat="44.10706722177565" lon="5.411280496045947"><ele></ele><time>2014-12-13T16:49:18Z</time></trkpt>
<trkpt lat="44.106633458286524" lon="5.411068266257644"><ele></ele><time>2014-12-13T16:49:21Z</time></trkpt>
<trkpt lat="44.10635031759739" lon="5.410943292081356"><ele></ele><time>2014-12-13T16:49:24Z</time></trkpt>
<trkpt lat="44.106075977906585" lon="5.410817228257656"><ele></ele><time>2014-12-13T16:49:27Z</time></trkpt>
<trkpt lat="44.10563844256103" lon="5.410604747012258"><ele></ele><time>2014-12-13T16:49:30Z</time></trkpt>
<trkpt lat="44.10544750280678" lon="5.4105043318122625"><ele></ele><time>2014-12-13T16:49:33Z</time></trkpt>
<trkpt lat="44.105106107890606" lon="5.410332418978214"><ele></ele><time>2014-12-13T16:49:36Z</time></trkpt>
<trkpt lat="44.10464258864522" lon="5.41009571403265"><ele></ele><time>2014-12-13T16:49:39Z</time></trkpt>
<trkpt lat="44.10448215901852" lon="5.410016840323806"><ele></ele><time>2014-12-13T16:49:42Z</time></trkpt>
<trkpt lat="44.10389710217714" lon="5.409746188670397"><ele></ele><time>2014-12-13T16:49:45Z</time></trkpt>
<trkpt lat="44.103809259831905" lon="5.409707715734839"><ele></ele><time>2014-12-13T16:49:48Z</time></trkpt>
<trkpt lat="44.103547828271985" lon="5.409605540335178"><ele></ele><time>2014-12-13T16:49:51Z</time></trkpt>
<trkpt lat="44.103115908801556" lon="5.4094248265028"><ele></ele><time>2014-12-13T16:49:54Z</time></trkpt>
<trkpt lat="44.103029910475016" lon="5.409392137080431"><ele></ele><time>2014-12-13T16:49:57Z</time></trkpt>
<trkpt lat="44.102778201922774" lon="5.409290883690119"><ele></ele><time>2014-12-13T16:50:0Z</time></trkpt>
<trkpt lat="44.10230655223131" lon="5.4091475531458855"><ele></ele><time>2014-12-13T16:50:3Z</time></trkpt>
<trkpt lat="44.10203514620662" lon="5.409118132665753"><ele></ele><time>2014-12-13T16:50:6Z</time></trkpt>
<trkpt lat="44.10198041237891" lon="5.409121988341212"><ele></ele><time>2014-12-13T16:50:9Z</time></trkpt>
<trkpt lat="44.101841105148196" lon="5.409142440184951"><ele></ele><time>2014-12-13T16:50:12Z</time></trkpt>
<trkpt lat="44.10167212598026" lon="5.409211087971926"><ele></ele><time>2014-12-13T16:50:15Z</time></trkpt>
<trkpt lat="44.10164698027074" lon="5.40922936052084"><ele></ele><time>2014-12-13T16:50:18Z</time></trkpt>
<trkpt lat="44.10148403607309" lon="5.409287279471755"><ele></ele><time>2014-12-13T16:50:21Z</time></trkpt>
<trkpt lat="44.101399881765246" lon="5.409320974722505"><ele></ele><time>2014-12-13T16:50:24Z</time></trkpt>
<trkpt lat="44.101264933124185" lon="5.409359782934189"><ele></ele><time>2014-12-13T16:50:27Z</time></trkpt>
<trkpt lat="44.101162841543555" lon="5.409377887845039"><ele></ele><time>2014-12-13T16:50:30Z</time></trkpt>
<trkpt lat="44.10106183961034" lon="5.409383168444037"><ele></ele><time>2014-12-13T16:50:33Z</time></trkpt>
<trkpt lat="44.10095404833555" lon="5.409376211464405"><ele></ele><time>2014-12-13T16:50:36Z</time></trkpt>
<trkpt lat="44.10076620988548" lon="5.409360369667411"><ele></ele><time>2014-12-13T16:50:39Z</time></trkpt>
<trkpt lat="44.1004335321486" lon="5.409276634454727"><ele></ele><time>2014-12-13T16:50:42Z</time></trkpt>
<trkpt lat="44.10036186687648" lon="5.409247716888785"><ele></ele><time>2014-12-13T16:50:45Z</time></trkpt>
<trkpt lat="44.10012667067349" lon="5.409166244789958"><ele></ele><time>2014-12-13T16:50:48Z</time></trkpt>
<trkpt lat="44.10009574145079" lon="5.409155432134867"><ele></ele><time>2014-12-13T16:50:51Z</time></trkpt>
<trkpt lat="44.09985593520105" lon="5.409113438799977"><ele></ele><time>2014-12-13T16:50:54Z</time></trkpt>
<trkpt lat="44.0998238325119" lon="5.409106481820345"><ele></ele><time>2014-12-13T16:50:57Z</time></trkpt>
<trkpt lat="44.09968578256667" lon="5.408982262015343"><ele></ele><time>2014-12-13T16:51:0Z</time></trkpt>
<trkpt lat="44.09958092495799" lon="5.4088465590029955"><ele></ele><time>2014-12-13T16:51:3Z</time></trkpt>
<trkpt lat="44.09948126412928" lon="5.408742120489478"><ele></ele><time>2014-12-13T16:51:6Z</time></trkpt>
<trkpt lat="44.09942644648254" lon="5.408683866262436"><ele></ele><time>2014-12-13T16:51:9Z</time></trkpt>
<trkpt lat="44.099187813699245" lon="5.408387398347259"><ele></ele><time>2014-12-13T16:51:12Z</time></trkpt>
<trkpt lat="44.099053367972374" lon="5.4082221910357475"><ele></ele><time>2014-12-13T16:51:15Z</time></trkpt>
<trkpt lat="44.09883183427155" lon="5.40795648470521"><ele></ele><time>2014-12-13T16:51:18Z</time></trkpt>
<trkpt lat="44.098753463476896" lon="5.407864535227418"><ele></ele><time>2014-12-13T16:51:21Z</time></trkpt>
<trkpt lat="44.09867123700678" lon="5.407771831378341"><ele></ele><time>2014-12-13T16:51:24Z</time></trkpt>
<trkpt lat="44.09849848598242" lon="5.407584412023425"><ele></ele><time>2014-12-13T16:51:27Z</time></trkpt>
<trkpt lat="44.098304444924" lon="5.407390873879194"><ele></ele><time>2014-12-13T16:51:30Z</time></trkpt>
<trkpt lat="44.09820352680981" lon="5.4072938952594995"><ele></ele><time>2014-12-13T16:51:33Z</time></trkpt>
<trkpt lat="44.098098669201136" lon="5.407193312421441"><ele></ele><time>2014-12-13T16:51:36Z</time></trkpt>
<trkpt lat="44.0977861918509" lon="5.406886367127299"><ele></ele><time>2014-12-13T16:51:39Z</time></trkpt>
<trkpt lat="44.097599275410175" lon="5.4066951759159565"><ele></ele><time>2014-12-13T16:51:42Z</time></trkpt>
<trkpt lat="44.09745435230434" lon="5.406548073515296"><ele></ele><time>2014-12-13T16:51:45Z</time></trkpt>
<trkpt lat="44.09739375114441" lon="5.406494177877903"><ele></ele><time>2014-12-13T16:51:48Z</time></trkpt>
<trkpt lat="44.09733264707029" lon="5.406446987763047"><ele></ele><time>2014-12-13T16:51:51Z</time></trkpt>
<trkpt lat="44.09722125157714" lon="5.40634254924953"><ele></ele><time>2014-12-13T16:51:54Z</time></trkpt>
<trkpt lat="44.09718026407063" lon="5.406275242567062"><ele></ele><time>2014-12-13T16:51:57Z</time></trkpt>
<trkpt lat="44.097115471959114" lon="5.406145490705967"><ele></ele><time>2014-12-13T16:52:0Z</time></trkpt>
<trkpt lat="44.097090661525726" lon="5.406111208721995"><ele></ele><time>2014-12-13T16:52:3Z</time></trkpt>
</trkseg></trk></gpx>